[[{"header":{"parameterUnit":"m.s-1","parameterCategory":1,"la1":31.0,"la2":29.5877,"lo1":-88.7671,"lo2":-86.6584,"dy":0.0162,"dx":0.0185,"nx":115,"ny":88,"refTime":"2023-08-02T18:00:00:Z","depth":0,"parameterNumber":2,"parameterNumberName":"U-component_of_WINDS"},"data":[0.0,0.0,0.0,0.0,0.0,0.0,0.0,0.0,0.0,0.0,0.0,0.0,0.0,0.0,0.0,0.0,0.0,0.0,0.0,0.0,0.0,0.0,0.0,0.0,0.0,0.0,0.0,0.0,0.0,0.0,0.0,0.0,0.0,0.0,0.0,0.0,0.0,0.0,0.0,0.0,0.0,0.0,0.0,0.0,0.0,0.0,0.0,0.0,0.0,0.0,0.0,0.0,0.0,0.0,0.0,0.0,0.0,0.0,0.0,0.0,0.0,0.0,0.0,0.0,0.0,0.0,0.0,0.0,0.0,0.0,0.0,0.0,0.0,0.0,0.0,0.0,0.0,0.0,0.0,0.0,0.0,0.0,0.0,0.0,0.0,0.0,0.0,0.0,0.0,0.0,0.0,0.0,0.0,0.0,0.0,0.0,0.0,0.0,0.0,0.0,0.0,0.0,0.0,0.0,0.0,0.0,0.0,0.0,0.0,0.0,0.0,0.0,0.0,0.0,0.0,0.0,0.0,0.0,0.0,0.0,0.0,0.0,0.0,0.0,0.0,0.0,0.0,0.0,0.0,0.0,0.0,0.0,0.0,0.0,0.0,0.0,0.0,0.0,0.0,0.0,0.0,0.0,0.0,0.0,0.0,0.0,0.0,0.0,0.0,0.0,0.0,0.0,0.0,0.0,0.0,0.0,0.0,0.0,0.0,0.0,0.0,0.0,0.0,0.0,0.0,0.0,0.0,0.0,0.0,0.0,0.0,0.0,0.0,0.0,0.0,0.0,0.0,0.0,0.0,0.0,0.0,0.0,0.0,0.0,0.0,0.0,0.0,0.0,0.0,0.0,0.0,0.0,0.0,0.0,0.0,0.0,0.0,0.0,0.0,0.0,0.0,0.0,0.0,0.0,0.0,0.0,0.0,0.0,0.0,0.0,0.0,0.0,0.0,0.0,0.0,0.0,0.0,0.0,0.0,0.0,0.0,0.0,0.0,0.0,0.0,0.0,0.0,0.0,0.0,0.0,0.0,0.0,0.0,0.0,0.0,0.0,0.0,0.0,0.0,0.0,0.0,0.0,0.0,0.0,0.0,0.0,0.0,0.0,0.0,0.0,0.0,0.0,0.0,0.0,0.0,0.0,0.0,0.0,0.0,0.0,0.0,0.0,0.0,0.0,0.0,0.0,0.0,0.0,0.0,0.0,0.0,0.0,0.0,0.0,0.0,0.0,0.0,0.0,0.0,0.0,0.0,0.0,0.0,0.0,0.0,0.0,0.0,0.0,0.0,0.0,0.0,0.0,0.0,0.0,0.0,0.0,0.0,0.0,0.0,0.0,0.0,0.0,0.0,0.0,0.0,0.0,0.0,0.0,0.0,0.0,0.0,0.0,0.0,0.0,0.0,0.0,0.0,0.0,0.0,0.0,0.0,0.0,0.0,0.0,0.0,0.0,0.0,0.0,0.0,0.0,0.0,0.0,0.0,0.0,0.0,0.0,0.0,0.0,0.0,0.0,0.0,0.0,0.0,0.0,0.0,0.0,0.0,0.0,0.0,0.0,0.0,0.0,0.0,0.0,0.0,0.0,0.0,0.0,0.0,0.0,0.0,0.0,0.0,0.0,0.0,0.0,0.0,0.0,0.0,0.0,0.0,0.0,0.0,0.0,0.0,0.0,0.0,0.0,0.0,0.0,0.0,0.0,0.0,0.0,0.0,0.0,0.0,0.0,0.0,0.0,0.0,0.0,0.0,0.0,0.0,0.0,0.0,0.0,0.0,0.0,0.0,0.0,0.0,0.0,0.0,0.0,0.0,0.0,0.0,0.0,0.0,0.0,0.0,0.0,0.0,0.0,0.0,0.0,0.0,0.0,0.0,0.0,0.0,0.0,0.0,0.0,0.0,0.0,0.0,0.0,0.0,0.0,0.0,0.0,0.0,0.0,0.0,0.0,0.0,0.0,0.0,0.0,0.0,0.0,0.0,0.0,0.0,0.0,0.0,0.0,0.0,0.0,0.0,0.0,0.0,0.0,0.0,0.0,0.0,0.0,0.0,0.0,0.0,0.0,0.0,0.0,0.0,0.0,0.0,0.0,0.0,0.0,0.0,0.0,0.0,0.0,0.0,0.0,0.0,0.0,0.0,0.0,0.0,0.0,0.0,0.0,0.0,0.0,0.0,0.0,0.0,0.0,0.0,0.0,0.0,0.0,0.0,0.0,0.0,0.0,0.0,0.0,0.0,0.0,0.0,0.0,0.0,0.0,0.0,0.0,0.0,0.0,0.0,0.0,0.0,0.0,0.0,0.0,0.0,0.0,0.0,0.0,0.0,0.0,0.0,0.0,0.0,0.0,0.0,0.0,0.0,0.0,0.0,0.0,0.0,0.0,0.0,0.0,0.0,0.0,0.0,0.0,0.0,0.0,0.0,0.0,0.0,0.0,0.0,0.0,0.0,0.0,0.0,0.0,0.0,0.0,0.0,0.0,0.0,0.0,0.0,0.0,0.0,0.0,0.0,0.0,0.0,0.0,0.0,0.0,0.0,0.0,0.0,0.0,0.0,0.0,0.0,0.0,0.0,0.0,0.0,0.0,0.0,0.0,0.0,0.0,0.0,0.0,0.0,0.0,0.0,0.0,0.0,0.0,0.0,0.0,0.0,0.0,0.0,0.0,0.0,0.0,0.0,0.0,0.0,0.0,0.0,0.0,0.0,0.0,0.0,0.0,0.0,0.0,0.0,0.0,0.0,0.0,0.0,0.0,0.0,0.0,0.0,0.0,0.0,0.0,0.0,0.0,0.0,0.0,0.0,0.0,0.0,0.0,0.0,0.0,0.0,0.0,0.0,0.0,0.0,0.0,0.0,0.0,0.0,0.0,0.0,0.0,0.0,0.0,0.0,0.0,0.0,0.0,0.0,0.0,0.0,0.0,0.0,0.0,0.0,0.0,0.0,0.0,0.0,0.0,0.0,0.0,0.0,0.0,0.0,0.0,0.0,0.0,0.0,0.0,0.0,0.0,0.0,0.0,0.0,0.0,0.0,0.0,0.0,0.0,0.0,0.0,0.0,0.0,0.0,0.0,0.0,0.0,0.0,0.0,0.0,0.0,0.0,0.0,0.0,0.0,0.0,0.0,0.0,0.0,0.0,0.0,0.0,0.0,0.0,0.0,0.0,0.0,0.0,0.0,0.0,0.0,0.0,0.0,0.0,0.0,0.0,0.0,0.0,0.0,0.0,0.0,0.0,0.0,0.0,0.0,0.0,0.0,0.0,0.0,0.0,0.0,0.0,0.0,0.0,0.0,0.0,0.0,0.0,0.0,0.0,0.0,0.0,0.0,0.0,0.0,0.0,0.0,0.0,0.0,0.0,0.0,0.0,0.0,0.0,0.0,0.0,0.0,0.0,0.0,0.0,0.0,0.0,0.0,0.0,0.0,0.0,0.0,0.0,0.0,0.0,0.0,0.0,0.0,0.0,0.0,0.0,0.0,0.0,0.0,0.0,0.0,0.0,0.0,0.0,0.0,0.0,0.0,0.0,0.0,0.0,0.0,0.0,0.0,0.0,0.0,0.0,0.0,0.0,0.0,0.0,0.0,0.0,0.0,0.0,0.0,0.0,0.0,0.0,0.0,0.0,0.0,0.0,0.0,0.0,0.0,0.0,0.0,0.0,0.0,0.0,0.0,0.0,0.0,0.0,0.0,0.0,0.0,0.0,0.0,0.0,0.0,0.0,0.0,0.0,0.0,0.0,0.0,0.0,0.0,0.0,0.0,0.0,0.0,0.0,0.0,0.0,0.0,0.0,0.0,0.0,0.0,0.0,0.0,0.0,0.0,0.0,0.0,0.0,0.0,0.0,0.0,0.0,0.0,0.0,0.0,0.0,0.0,0.0,0.0,0.0,0.0,0.0,0.0,0.0,0.0,0.0,0.0,0.0,0.0,0.0,0.0,0.0,0.0,0.0,0.0,0.0,0.0,0.0,0.0,0.0,0.0,0.0,0.0,0.0,0.0,0.0,0.0,0.0,0.0,0.0,0.0,0.0,0.0,0.0,0.0,0.0,0.0,0.0,0.0,0.0,0.0,0.0,0.0,0.0,0.0,0.0,0.0,0.0,0.0,0.0,0.0,0.0,0.0,0.0,0.0,0.0,0.0,0.0,0.0,0.0,0.0,0.0,0.0,0.0,0.0,0.0,0.0,0.0,0.0,0.0,0.0,0.0,0.0,0.0,0.0,0.0,0.0,0.0,0.0,0.0,0.0,0.0,0.0,0.0,0.0,0.0,0.0,0.0,0.0,-1.9341,0.0,0.0,0.0,0.0,0.0,0.0,0.0,0.0,0.0,0.0,0.0,0.0,0.0,0.0,0.0,0.0,0.0,0.0,0.0,0.0,0.0,0.0,0.0,0.0,0.0,0.0,0.0,0.0,0.0,0.0,0.0,0.0,0.0,0.0,0.0,0.0,0.0,0.0,0.0,0.0,0.0,0.0,0.0,0.0,0.0,0.0,0.0,0.0,0.0,0.0,0.0,0.0,0.0,0.0,0.0,0.0,0.0,0.0,0.0,0.0,0.0,0.0,0.0,0.0,0.0,0.0,0.0,0.0,0.0,0.0,0.0,0.0,0.0,0.0,0.0,0.0,0.0,0.0,0.0,0.0,0.0,0.0,0.0,0.0,0.0,0.0,0.0,0.0,0.0,0.0,0.0,0.0,0.0,0.0,0.0,0.0,0.0,0.0,0.0,0.0,0.0,0.0,0.0,0.0,0.0,0.0,0.0,0.0,0.0,0.0,-2.2244,-2.1821,-2.1418,-2.0611,-1.9378,0.0,0.0,0.0,0.0,0.0,0.0,0.0,0.0,0.0,0.0,0.0,0.0,0.0,0.0,0.0,0.0,0.0,0.0,0.0,0.0,0.0,0.0,0.0,0.0,0.0,0.0,0.0,0.0,0.0,0.0,0.0,0.0,0.0,0.0,0.0,0.0,0.0,0.0,0.0,0.0,0.0,0.0,0.0,0.0,0.0,0.0,0.0,0.0,0.0,0.0,0.0,0.0,0.0,0.0,0.0,0.0,0.0,0.0,0.0,0.0,0.0,0.0,0.0,0.0,0.0,0.0,0.0,0.0,0.0,0.0,0.0,0.0,0.0,0.0,0.0,0.0,0.0,0.0,0.0,0.0,0.0,0.0,0.0,0.0,0.0,0.0,0.0,0.0,0.0,0.0,0.0,0.0,0.0,0.0,0.0,0.0,0.0,0.0,0.0,0.0,0.0,0.0,0.0,0.0,0.0,0.0,0.0,0.0,0.0,0.0,0.0,0.0,-2.2611,-2.1839,-2.0225,0.0,0.0,0.0,0.0,0.0,0.0,0.0,0.0,0.0,0.0,0.0,0.0,0.0,0.0,0.0,0.0,0.0,0.0,0.0,0.0,0.0,0.0,0.0,0.0,0.0,0.0,0.0,0.0,0.0,0.0,0.0,0.0,0.0,0.0,0.0,0.0,0.0,0.0,0.0,0.0,0.0,0.0,0.0,0.0,0.0,0.0,0.0,0.0,0.0,0.0,0.0,0.0,0.0,0.0,0.0,0.0,0.0,0.0,0.0,0.0,0.0,0.0,0.0,0.0,0.0,0.0,0.0,0.0,0.0,0.0,0.0,0.0,0.0,0.0,0.0,0.0,0.0,0.0,0.0,0.0,0.0,0.0,0.0,0.0,0.0,0.0,0.0,0.0,0.0,0.0,0.0,0.0,0.0,0.0,0.0,0.0,0.0,0.0,0.0,0.0,0.0,0.0,0.0,0.0,0.0,0.0,0.0,0.0,0.0,0.0,-2.2923,-2.4999,-2.5054,0.0,-2.2832,0.0,0.0,0.0,0.0,0.0,0.0,0.0,0.0,0.0,0.0,0.0,0.0,0.0,0.0,0.0,0.0,0.0,0.0,0.0,0.0,0.0,0.0,0.0,0.0,0.0,0.0,0.0,0.0,0.0,0.0,0.0,0.0,0.0,0.0,0.0,0.0,0.0,0.0,0.0,0.0,0.0,0.0,0.0,0.0,0.0,0.0,0.0,0.0,0.0,0.0,0.0,0.0,0.0,0.0,0.0,0.0,0.0,0.0,0.0,0.0,0.0,0.0,0.0,0.0,0.0,0.0,0.0,0.0,0.0,0.0,0.0,0.0,0.0,0.0,0.0,0.0,0.0,0.0,0.0,0.0,0.0,0.0,0.0,0.0,0.0,0.0,0.0,0.0,0.0,0.0,0.0,0.0,0.0,0.0,0.0,0.0,0.0,0.0,0.0,0.0,0.0,0.0,0.0,0.0,0.0,0.0,0.0,0.0,0.0,0.0,-2.4887,-2.5384,-2.4465,-2.3437,0.0,0.0,0.0,0.0,0.0,0.0,0.0,0.0,0.0,0.0,0.0,0.0,0.0,0.0,0.0,0.0,0.0,0.0,0.0,0.0,0.0,0.0,0.0,0.0,0.0,0.0,0.0,0.0,0.0,0.0,0.0,0.0,0.0,0.0,0.0,0.0,0.0,0.0,0.0,0.0,0.0,0.0,0.0,0.0,0.0,0.0,0.0,0.0,0.0,0.0,0.0,0.0,0.0,0.0,0.0,0.0,0.0,0.0,0.0,0.0,0.0,0.0,0.0,0.0,0.0,0.0,0.0,0.0,0.0,0.0,0.0,0.0,0.0,0.0,0.0,0.0,0.0,0.0,0.0,0.0,0.0,0.0,0.0,0.0,0.0,0.0,0.0,0.0,0.0,0.0,0.0,0.0,0.0,0.0,0.0,0.0,0.0,0.0,0.0,0.0,0.0,0.0,0.0,0.0,0.0,0.0,0.0,0.0,0.0,0.0,-2.5841,-2.619,-2.5988,-2.4722,-2.3309,-2.184,0.0,0.0,0.0,0.0,0.0,0.0,0.0,0.0,0.0,0.0,0.0,0.0,0.0,0.0,0.0,0.0,0.0,0.0,0.0,0.0,0.0,0.0,0.0,0.0,0.0,0.0,0.0,0.0,0.0,0.0,0.0,0.0,0.0,0.0,0.0,0.0,0.0,0.0,0.0,0.0,0.0,0.0,0.0,0.0,0.0,0.0,0.0,0.0,0.0,0.0,0.0,0.0,0.0,0.0,0.0,0.0,0.0,0.0,0.0,0.0,0.0,0.0,0.0,0.0,0.0,0.0,0.0,0.0,0.0,0.0,0.0,0.0,0.0,0.0,0.0,0.0,0.0,0.0,0.0,0.0,0.0,0.0,0.0,0.0,0.0,0.0,0.0,0.0,0.0,0.0,0.0,0.0,0.0,0.0,0.0,0.0,0.0,0.0,0.0,0.0,0.0,0.0,0.0,0.0,0.0,0.0,0.0,0.0,-2.9347,-2.6924,-2.6193,-2.7658,-2.6869,-2.4979,0.0,0.0,0.0,0.0,0.0,0.0,0.0,0.0,0.0,0.0,0.0,0.0,0.0,0.0,0.0,0.0,0.0,0.0,0.0,0.0,0.0,0.0,0.0,0.0,0.0,0.0,0.0,0.0,0.0,0.0,0.0,0.0,0.0,0.0,0.0,0.0,0.0,0.0,0.0,0.0,0.0,0.0,0.0,0.0,0.0,0.0,0.0,0.0,0.0,0.0,0.0,0.0,0.0,0.0,0.0,0.0,0.0,0.0,0.0,0.0,0.0,0.0,0.0,0.0,0.0,0.0,0.0,0.0,0.0,0.0,0.0,0.0,0.0,0.0,0.0,0.0,0.0,0.0,0.0,0.0,0.0,0.0,0.0,0.0,0.0,0.0,0.0,0.0,0.0,0.0,0.0,0.0,0.0,0.0,0.0,0.0,0.0,0.0,0.0,0.0,0.0,0.0,0.0,0.0,0.0,0.0,0.0,0.0,0.0,-2.4649,-2.5182,-2.7163,-3.054,-2.6135,-2.3437,0.0,0.0,0.0,0.0,0.0,0.0,0.0,0.0,0.0,0.0,0.0,0.0,0.0,0.0,0.0,0.0,0.0,0.0,0.0,0.0,0.0,0.0,0.0,0.0,0.0,0.0,0.0,0.0,0.0,0.0,0.0,0.0,0.0,0.0,0.0,0.0,0.0,0.0,0.0,0.0,0.0,0.0,0.0,0.0,0.0,0.0,0.0,0.0,0.0,0.0,0.0,0.0,0.0,0.0,0.0,0.0,0.0,0.0,0.0,0.0,0.0,0.0,0.0,0.0,0.0,0.0,0.0,0.0,0.0,0.0,0.0,0.0,0.0,0.0,0.0,0.0,0.0,0.0,0.0,0.0,0.0,0.0,0.0,0.0,0.0,0.0,0.0,0.0,0.0,0.0,0.0,0.0,0.0,0.0,0.0,0.0,0.0,0.0,0.0,0.0,0.0,0.0,0.0,0.0,0.0,0.0,0.0,0.0,0.0,-2.3713,0.0,-2.8429,-3.0356,-2.5933,-2.2887,0.0,0.0,0.0,0.0,0.0,0.0,0.0,0.0,0.0,0.0,0.0,0.0,0.0,0.0,0.0,0.0,0.0,0.0,0.0,0.0,0.0,0.0,0.0,0.0,0.0,0.0,0.0,0.0,0.0,0.0,0.0,0.0,0.0,0.0,0.0,0.0,0.0,0.0,0.0,0.0,0.0,0.0,0.0,0.0,0.0,0.0,0.0,0.0,0.0,0.0,0.0,0.0,0.0,0.0,0.0,0.0,0.0,0.0,0.0,0.0,0.0,0.0,0.0,0.0,0.0,0.0,0.0,0.0,0.0,0.0,0.0,0.0,0.0,0.0,0.0,0.0,0.0,0.0,0.0,0.0,0.0,0.0,0.0,0.0,0.0,0.0,0.0,0.0,0.0,0.0,0.0,0.0,0.0,0.0,0.0,0.0,0.0,0.0,0.0,0.0,0.0,0.0,0.0,0.0,0.0,0.0,0.0,0.0,-2.2923,-2.7512,-2.9953,-2.9806,-2.6906,-2.6557,-2.3529,0.0,0.0,0.0,0.0,0.0,0.0,0.0,0.0,0.0,0.0,0.0,0.0,0.0,0.0,0.0,0.0,0.0,0.0,0.0,0.0,0.0,0.0,0.0,0.0,0.0,0.0,0.0,0.0,0.0,0.0,0.0,0.0,0.0,0.0,0.0,0.0,0.0,0.0,0.0,0.0,0.0,0.0,0.0,0.0,0.0,0.0,0.0,0.0,0.0,0.0,0.0,0.0,0.0,0.0,0.0,0.0,0.0,0.0,0.0,0.0,0.0,0.0,0.0,0.0,0.0,0.0,0.0,0.0,0.0,0.0,0.0,0.0,0.0,0.0,0.0,0.0,0.0,0.0,0.0,0.0,0.0,0.0,0.0,0.0,0.0,0.0,0.0,0.0,0.0,0.0,0.0,0.0,0.0,0.0,0.0,0.0,0.0,0.0,0.0,0.0,0.0,0.0,0.0,0.0,0.0,0.0,0.0,0.0,0.0,-2.6174,-2.8484,-3.0338,-3.1347,-2.6704,-2.4226,0.0,0.0,0.0,0.0,0.0,0.0,0.0,0.0,0.0,0.0,0.0,0.0,0.0,0.0,0.0,0.0,0.0,0.0,0.0,0.0,0.0,0.0,0.0,0.0,0.0,0.0,0.0,0.0,0.0,0.0,0.0,0.0,0.0,0.0,0.0,0.0,0.0,0.0,0.0,0.0,0.0,0.0,0.0,0.0,0.0,0.0,0.0,0.0,0.0,0.0,0.0,0.0,0.0,0.0,0.0,0.0,0.0,0.0,0.0,0.0,0.0,0.0,0.0,0.0,0.0,0.0,0.0,0.0,0.0,0.0,0.0,0.0,0.0,0.0,0.0,0.0,0.0,0.0,0.0,0.0,0.0,0.0,0.0,0.0,0.0,0.0,0.0,0.0,0.0,0.0,0.0,0.0,0.0,0.0,0.0,0.0,0.0,0.0,0.0,0.0,0.0,0.0,0.0,0.0,0.0,0.0,0.0,0.0,0.0,-2.8631,-3.0907,-3.254,-3.3348,-2.8356,-2.5621,-2.5456,0.0,0.0,0.0,0.0,0.0,0.0,0.0,0.0,0.0,0.0,0.0,0.0,0.0,0.0,0.0,0.0,0.0,0.0,0.0,0.0,0.0,0.0,0.0,0.0,0.0,0.0,0.0,0.0,0.0,0.0,0.0,0.0,0.0,0.0,0.0,0.0,0.0,0.0,0.0,0.0,0.0,0.0,0.0,0.0,0.0,0.0,0.0,0.0,0.0,0.0,0.0,0.0,0.0,0.0,0.0,0.0,0.0,0.0,0.0,0.0,0.0,0.0,0.0,0.0,0.0,0.0,0.0,0.0,0.0,0.0,0.0,0.0,0.0,0.0,0.0,0.0,0.0,0.0,0.0,0.0,0.0,0.0,0.0,0.0,0.0,0.0,0.0,0.0,0.0,0.0,0.0,0.0,0.0,0.0,0.0,0.0,0.0,0.0,0.0,0.0,0.0,0.0,0.0,0.0,0.0,0.0,0.0,0.0,-3.3899,-3.6431,-3.6248,-3.3175,-3.1219,-2.7787,0.0,0.0,0.0,0.0,0.0,0.0,0.0,0.0,0.0,0.0,0.0,0.0,0.0,0.0,0.0,0.0,0.0,0.0,0.0,0.0,0.0,0.0,0.0,0.0,0.0,0.0,0.0,0.0,0.0,0.0,0.0,0.0,0.0,0.0,0.0,0.0,0.0,0.0,0.0,0.0,0.0,0.0,0.0,0.0,0.0,0.0,0.0,0.0,0.0,0.0,0.0,0.0,0.0,0.0,0.0,0.0,0.0,0.0,0.0,0.0,0.0,0.0,0.0,0.0,0.0,0.0,0.0,0.0,0.0,0.0,0.0,0.0,0.0,0.0,0.0,0.0,0.0,0.0,0.0,0.0,0.0,0.0,0.0,0.0,0.0,0.0,0.0,0.0,0.0,0.0,0.0,0.0,0.0,0.0,0.0,0.0,0.0,0.0,0.0,0.0,0.0,0.0,0.0,0.0,0.0,0.0,0.0,0.0,0.0,-3.5624,-3.9184,-4.0065,-3.7973,-3.3513,-3.0393,0.0,0.0,0.0,0.0,0.0,0.0,0.0,0.0,0.0,0.0,0.0,0.0,0.0,0.0,0.0,0.0,0.0,0.0,0.0,0.0,0.0,0.0,0.0,0.0,0.0,0.0,0.0,0.0,0.0,0.0,0.0,0.0,0.0,0.0,0.0,0.0,0.0,0.0,0.0,0.0,0.0,0.0,0.0,0.0,0.0,0.0,0.0,0.0,0.0,0.0,0.0,0.0,0.0,0.0,0.0,0.0,0.0,0.0,0.0,0.0,0.0,0.0,0.0,0.0,0.0,0.0,0.0,0.0,0.0,0.0,0.0,0.0,0.0,0.0,0.0,0.0,0.0,0.0,0.0,0.0,0.0,0.0,0.0,0.0,0.0,0.0,0.0,0.0,0.0,0.0,0.0,0.0,0.0,0.0,0.0,0.0,0.0,0.0,0.0,0.0,0.0,0.0,0.0,0.0,0.0,0.0,0.0,0.0,-3.4156,-3.7753,-4.1093,-4.2194,-4.0928,-3.6725,-3.333,0.0,0.0,0.0,0.0,0.0,0.0,0.0,0.0,0.0,0.0,0.0,0.0,0.0,0.0,0.0,0.0,0.0,0.0,0.0,0.0,0.0,0.0,0.0,0.0,0.0,0.0,0.0,0.0,0.0,0.0,0.0,0.0,0.0,0.0,0.0,0.0,0.0,0.0,0.0,0.0,0.0,0.0,0.0,0.0,0.0,0.0,0.0,0.0,0.0,0.0,0.0,0.0,0.0,0.0,0.0,0.0,0.0,0.0,0.0,0.0,0.0,0.0,0.0,0.0,0.0,0.0,0.0,0.0,0.0,0.0,0.0,0.0,0.0,0.0,0.0,0.0,0.0,0.0,0.0,0.0,0.0,0.0,0.0,0.0,0.0,0.0,0.0,0.0,0.0,0.0,0.0,0.0,0.0,0.0,0.0,0.0,0.0,0.0,0.0,0.0,0.0,0.0,0.0,0.0,0.0,0.0,0.0,0.0,-3.5991,-3.9937,-4.2286,-4.3167,-4.2396,-3.9937,-3.6028,0.0,0.0,0.0,0.0,0.0,0.0,0.0,0.0,0.0,0.0,0.0,0.0,0.0,0.0,0.0,0.0,0.0,0.0,0.0,0.0,0.0,0.0,0.0,0.0,0.0,0.0,0.0,0.0,0.0,0.0,0.0,0.0,0.0,0.0,0.0,0.0,0.0,0.0,0.0,0.0,0.0,0.0,0.0,0.0,0.0,0.0,0.0,0.0,0.0,0.0,0.0,0.0,0.0,0.0,0.0,0.0,0.0,0.0,0.0,0.0,0.0,0.0,0.0,0.0,0.0,0.0,0.0,0.0,0.0,0.0,0.0,0.0,0.0,0.0,0.0,0.0,0.0,0.0,0.0,0.0,0.0,0.0,0.0,0.0,0.0,0.0,0.0,0.0,0.0,0.0,0.0,0.0,0.0,0.0,0.0,0.0,0.0,0.0,0.0,0.0,0.0,0.0,0.0,0.0,0.0,0.0,0.0,0.0,-3.7422,-4.0763,-4.258,-4.3406,-4.324,-3.9662,-3.5973,0.0,0.0,0.0,0.0,0.0,0.0,0.0,0.0,0.0,0.0,0.0,0.0,0.0,0.0,0.0,0.0,0.0,0.0,0.0,0.0,0.0,0.0,0.0,0.0,0.0,0.0,0.0,0.0,0.0,0.0,0.0,0.0,0.0,0.0,0.0,0.0,0.0,0.0,0.0,0.0,0.0,0.0,0.0,0.0,0.0,0.0,0.0,0.0,-1.3256,0.0,0.0,0.0,0.0,0.0,0.0,0.0,0.0,0.0,0.0,0.0,0.0,0.0,0.0,0.0,0.0,0.0,0.0,0.0,0.0,0.0,0.0,0.0,0.0,0.0,0.0,0.0,0.0,0.0,0.0,0.0,0.0,0.0,0.0,0.0,0.0,0.0,0.0,0.0,0.0,0.0,0.0,0.0,0.0,0.0,0.0,0.0,0.0,0.0,0.0,0.0,0.0,0.0,0.0,0.0,0.0,0.0,0.0,0.0,-3.8414,-4.157,-4.2855,-4.3479,-4.3387,-4.0689,-3.7294,0.0,0.0,0.0,0.0,0.0,0.0,0.0,0.0,0.0,0.0,0.0,0.0,0.0,0.0,0.0,0.0,0.0,0.0,0.0,0.0,0.0,0.0,0.0,0.0,0.0,0.0,0.0,0.0,0.0,0.0,0.0,0.0,0.0,0.0,0.0,0.0,0.0,0.0,0.0,0.0,0.0,0.0,0.0,0.0,0.0,0.0,0.0,0.0,0.0,0.0,0.0,0.0,0.0,0.0,0.0,0.0,0.0,0.0,0.0,0.0,0.0,0.0,0.0,0.0,0.0,0.0,0.0,0.0,0.0,0.0,0.0,0.0,0.0,0.0,0.0,0.0,0.0,0.0,0.0,0.0,0.0,0.0,0.0,0.0,0.0,0.0,0.0,0.0,0.0,0.0,0.0,0.0,0.0,0.0,0.0,0.0,0.0,0.0,0.0,0.0,0.0,0.0,0.0,0.0,0.0,0.0,0.0,-3.5624,-3.8982,-4.2323,-4.313,-4.3479,-4.3479,-4.1956,-3.8817,-3.399,0.0,0.0,0.0,0.0,0.0,0.0,0.0,0.0,0.0,0.0,0.0,0.0,0.0,0.0,0.0,0.0,0.0,0.0,0.0,0.0,0.0,0.0,0.0,0.0,0.0,0.0,0.0,0.0,0.0,0.0,0.0,0.0,0.0,0.0,0.0,0.0,0.0,0.0,-1.4164,-1.4874,0.0,0.0,0.0,0.0,0.0,0.0,0.0,0.0,-1.4483,0.0,0.0,0.0,0.0,0.0,0.0,0.0,0.0,0.0,0.0,0.0,0.0,0.0,0.0,0.0,0.0,0.0,0.0,0.0,0.0,0.0,0.0,0.0,0.0,0.0,0.0,0.0,0.0,0.0,0.0,0.0,0.0,0.0,0.0,0.0,0.0,0.0,0.0,0.0,0.0,0.0,0.0,0.0,0.0,0.0,0.0,0.0,0.0,0.0,0.0,0.0,0.0,0.0,0.0,0.0,0.0,-3.6358,-3.6505,-3.8707,-4.3149,-4.3424,-4.3479,-4.3442,-4.1937,-3.8817,-3.4027,0.0,0.0,0.0,0.0,0.0,0.0,0.0,0.0,0.0,0.0,0.0,0.0,0.0,0.0,0.0,0.0,0.0,0.0,0.0,0.0,0.0,0.0,0.0,0.0,0.0,0.0,0.0,0.0,0.0,0.0,0.0,0.0,0.0,0.0,0.0,0.0,0.0,0.0,0.0,-1.5186,-1.5808,0.0,0.0,0.0,0.0,0.0,0.0,0.0,0.0,-1.4363,0.0,0.0,0.0,0.0,0.0,0.0,0.0,0.0,0.0,0.0,0.0,0.0,0.0,0.0,0.0,0.0,0.0,0.0,0.0,0.0,0.0,0.0,0.0,0.0,0.0,0.0,0.0,0.0,0.0,0.0,0.0,0.0,0.0,0.0,0.0,0.0,0.0,0.0,0.0,0.0,0.0,0.0,0.0,0.0,0.0,0.0,0.0,0.0,0.0,0.0,0.0,0.0,0.0,0.0,0.0,-3.5312,-3.7698,-4.0322,-4.3351,-4.3479,-4.3479,-4.3424,-4.0726,-3.7533,0.0,0.0,0.0,0.0,0.0,0.0,0.0,0.0,0.0,0.0,0.0,0.0,0.0,0.0,0.0,0.0,0.0,0.0,0.0,0.0,0.0,0.0,0.0,0.0,0.0,0.0,0.0,0.0,0.0,0.0,0.0,0.0,0.0,0.0,0.0,0.0,0.0,0.0,0.0,0.0,-1.5286,-1.5958,-1.6978,0.0,0.0,0.0,0.0,0.0,0.0,-1.5889,-1.5037,0.0,0.0,0.0,0.0,0.0,0.0,0.0,0.0,0.0,0.0,0.0,0.0,0.0,0.0,0.0,0.0,0.0,0.0,0.0,0.0,0.0,0.0,0.0,0.0,0.0,0.0,0.0,0.0,0.0,0.0,0.0,0.0,0.0,0.0,0.0,0.0,0.0,0.0,0.0,0.0,0.0,0.0,0.0,0.0,0.0,0.0,0.0,0.0,0.0,0.0,0.0,0.0,0.0,0.0,0.0,-3.3788,-3.8138,-4.1405,-4.3369,-4.3479,-4.3479,-4.3424,-3.99,-3.6652,0.0,0.0,0.0,0.0,0.0,0.0,0.0,0.0,0.0,0.0,0.0,0.0,0.0,0.0,0.0,0.0,0.0,0.0,0.0,0.0,0.0,0.0,0.0,0.0,0.0,0.0,0.0,0.0,0.0,0.0,0.0,0.0,0.0,0.0,0.0,0.0,0.0,0.0,0.0,0.0,0.0,-1.6478,-1.716,-1.6526,0.0,0.0,0.0,0.0,-1.779,-1.7161,0.0,0.0,0.0,0.0,0.0,0.0,0.0,0.0,0.0,0.0,0.0,0.0,0.0,0.0,0.0,0.0,0.0,0.0,0.0,0.0,0.0,0.0,0.0,0.0,0.0,0.0,0.0,0.0,0.0,0.0,0.0,0.0,0.0,0.0,0.0,0.0,0.0,0.0,0.0,0.0,0.0,0.0,0.0,0.0,0.0,0.0,0.0,0.0,0.0,0.0,0.0,0.0,0.0,0.0,0.0,0.0,-3.366,-3.6505,-3.9748,-4.3259,-4.3479,-4.3479,-4.3442,-4.0965,-3.779,0.0,0.0,0.0,0.0,0.0,0.0,0.0,0.0,0.0,0.0,0.0,0.0,0.0,0.0,0.0,0.0,0.0,0.0,0.0,0.0,0.0,0.0,0.0,0.0,0.0,0.0,0.0,0.0,0.0,0.0,0.0,0.0,0.0,0.0,0.0,0.0,0.0,0.0,0.0,0.0,0.0,-1.7963,-1.7808,-1.8178,-1.8499,0.0,0.0,-1.9076,-1.8672,-1.8942,0.0,0.0,0.0,0.0,0.0,0.0,0.0,0.0,0.0,0.0,0.0,0.0,0.0,0.0,0.0,0.0,0.0,0.0,0.0,0.0,0.0,0.0,0.0,0.0,0.0,0.0,0.0,0.0,0.0,0.0,0.0,0.0,0.0,0.0,0.0,0.0,0.0,0.0,0.0,0.0,0.0,0.0,0.0,0.0,0.0,0.0,0.0,0.0,0.0,0.0,0.0,0.0,0.0,0.0,0.0,-2.9072,-3.3752,-3.7588,-4.0836,-4.3369,-4.3479,-4.3479,-4.3479,-3.9827,-3.6578,0.0,0.0,0.0,0.0,0.0,0.0,0.0,0.0,0.0,0.0,0.0,0.0,0.0,0.0,0.0,0.0,0.0,0.0,0.0,0.0,0.0,0.0,0.0,0.0,0.0,0.0,0.0,0.0,0.0,0.0,0.0,0.0,0.0,0.0,0.0,0.0,0.0,0.0,0.0,0.0,0.0,0.0,-1.8912,-1.8659,0.0,0.0,0.0,-1.9891,-2.0333,0.0,0.0,0.0,0.0,0.0,0.0,0.0,0.0,0.0,0.0,0.0,0.0,0.0,0.0,0.0,0.0,0.0,0.0,0.0,0.0,0.0,0.0,0.0,0.0,0.0,0.0,0.0,0.0,0.0,0.0,0.0,0.0,0.0,0.0,0.0,0.0,0.0,0.0,0.0,0.0,0.0,0.0,0.0,0.0,0.0,0.0,0.0,0.0,0.0,0.0,0.0,0.0,0.0,0.0,0.0,0.0,0.0,-3.3788,-3.8634,-4.1882,-4.3424,-4.3479,-4.3406,-4.313,-3.9111,0.0,0.0,0.0,0.0,0.0,0.0,0.0,0.0,0.0,0.0,0.0,0.0,0.0,0.0,0.0,0.0,0.0,0.0,0.0,0.0,0.0,0.0,0.0,0.0,0.0,0.0,0.0,-0.9533,0.0,0.0,0.0,0.0,0.0,0.0,0.0,0.0,0.0,0.0,0.0,0.0,0.0,0.0,-1.833,-1.948,-1.939,-1.9755,0.0,0.0,-2.0662,-2.135,-2.0872,-1.9765,0.0,0.0,0.0,0.0,0.0,0.0,0.0,0.0,0.0,0.0,0.0,0.0,0.0,0.0,0.0,0.0,0.0,0.0,0.0,0.0,0.0,0.0,0.0,0.0,0.0,0.0,0.0,0.0,0.0,0.0,0.0,0.0,0.0,0.0,0.0,0.0,0.0,0.0,0.0,0.0,0.0,0.0,0.0,0.0,0.0,0.0,0.0,0.0,0.0,0.0,0.0,0.0,0.0,0.0,0.0,-3.3807,-3.8615,-4.1882,-4.3406,-4.3479,-4.313,-4.2359,-3.99,-3.6688,0.0,0.0,0.0,0.0,0.0,0.0,0.0,0.0,0.0,0.0,0.0,0.0,0.0,0.0,0.0,0.0,0.0,0.0,0.0,0.0,0.0,0.0,0.0,0.0,0.0,0.0,0.0,0.0,0.0,0.0,0.0,0.0,0.0,0.0,0.0,0.0,0.0,0.0,0.0,0.0,0.0,-1.9684,-1.9046,-2.0936,-2.2211,0.0,0.0,-2.2099,-2.0961,-2.1739,-2.1201,-1.7413,0.0,0.0,0.0,0.0,0.0,0.0,0.0,0.0,0.0,0.0,0.0,0.0,0.0,0.0,0.0,0.0,0.0,0.0,0.0,0.0,0.0,0.0,0.0,0.0,0.0,0.0,0.0,0.0,0.0,0.0,0.0,0.0,0.0,0.0,0.0,0.0,0.0,0.0,0.0,0.0,0.0,0.0,0.0,0.0,0.0,0.0,0.0,0.0,0.0,0.0,0.0,0.0,0.0,-2.9292,-3.377,-3.8615,-4.1882,-4.3406,-4.3479,-4.3112,-4.2323,-3.9955,-3.678,0.0,0.0,0.0,0.0,0.0,0.0,0.0,0.0,0.0,0.0,0.0,0.0,0.0,0.0,0.0,0.0,0.0,0.0,0.0,0.0,0.0,0.0,0.0,0.0,0.0,0.0,0.0,0.0,-1.3107,-1.3481,-1.3077,0.0,0.0,0.0,0.0,0.0,0.0,0.0,0.0,0.0,0.0,-1.981,-2.1043,-2.1733,0.0,0.0,-2.2772,-2.2637,-2.2517,-2.2248,-2.1276,-1.8942,-1.7832,0.0,0.0,0.0,0.0,0.0,0.0,0.0,0.0,0.0,0.0,0.0,0.0,0.0,0.0,0.0,0.0,0.0,0.0,0.0,0.0,0.0,0.0,0.0,0.0,0.0,0.0,0.0,0.0,0.0,0.0,0.0,0.0,0.0,0.0,0.0,0.0,0.0,0.0,0.0,0.0,0.0,0.0,0.0,0.0,0.0,0.0,0.0,0.0,0.0,0.0,0.0,0.0,-2.9219,-3.377,-3.8634,-4.1882,-4.3442,-4.3479,-4.2983,-4.1937,-4.0065,-3.7037,0.0,0.0,0.0,0.0,0.0,0.0,0.0,0.0,0.0,0.0,0.0,0.0,0.0,0.0,0.0,0.0,0.0,0.0,0.0,0.0,0.0,0.0,0.0,0.0,0.0,0.0,0.0,0.0,-1.4229,-1.4203,-1.343,0.0,0.0,0.0,0.0,0.0,0.0,0.0,0.0,0.0,0.0,-2.0429,-2.2226,-2.2321,-2.2585,-2.3492,-2.3071,-2.2772,-2.2981,-2.2278,-2.1171,-1.963,0.0,0.0,0.0,0.0,0.0,0.0,0.0,0.0,0.0,0.0,0.0,0.0,0.0,0.0,0.0,0.0,0.0,0.0,0.0,0.0,0.0,0.0,0.0,0.0,0.0,0.0,0.0,0.0,0.0,0.0,0.0,0.0,0.0,0.0,0.0,0.0,0.0,0.0,0.0,0.0,0.0,0.0,0.0,0.0,0.0,0.0,0.0,0.0,0.0,0.0,0.0,0.0,0.0,-2.9793,-3.3788,-3.8634,-4.1882,-4.3424,-4.3479,-4.2745,-4.1203,-4.0304,-3.7569,-3.2706,0.0,0.0,0.0,0.0,0.0,0.0,0.0,0.0,0.0,0.0,0.0,0.0,0.0,0.0,0.0,0.0,0.0,0.0,0.0,0.0,0.0,0.0,0.0,0.0,0.0,0.0,-1.3795,-1.3814,-1.346,0.0,0.0,0.0,0.0,0.0,0.0,0.0,0.0,0.0,0.0,-2.0272,-2.1859,-2.196,-2.2861,-2.3507,-2.3595,-2.3086,-2.2473,-2.1919,-2.1739,-2.1021,0.0,0.0,0.0,0.0,0.0,0.0,0.0,0.0,0.0,0.0,0.0,0.0,0.0,0.0,0.0,0.0,0.0,0.0,0.0,0.0,0.0,0.0,0.0,0.0,0.0,0.0,0.0,-2.6004,-2.4637,0.0,0.0,0.0,0.0,0.0,0.0,0.0,0.0,0.0,0.0,0.0,-3.2864,-3.4597,0.0,0.0,0.0,0.0,0.0,0.0,0.0,0.0,0.0,0.0,0.0,0.0,-3.0798,-3.4623,-3.9106,-4.2087,-4.3458,-4.3479,-4.2727,-4.1148,-4.0322,-3.7092,-3.1182,0.0,0.0,0.0,0.0,0.0,0.0,0.0,0.0,0.0,0.0,0.0,0.0,0.0,0.0,0.0,0.0,0.0,0.0,0.0,0.0,0.0,0.0,0.0,0.0,0.0,-1.4405,0.0,0.0,0.0,0.0,0.0,0.0,0.0,0.0,0.0,0.0,0.0,-1.8287,-1.9792,-2.1097,-2.2192,-2.2906,-2.3374,-2.3595,0.0,0.0,0.0,0.0,0.0,0.0,0.0,0.0,0.0,0.0,0.0,0.0,0.0,0.0,-1.7565,-1.4947,-1.3735,-1.3196,-1.3421,0.0,0.0,0.0,0.0,0.0,0.0,0.0,0.0,0.0,0.0,0.0,0.0,0.0,0.0,0.0,0.0,-2.8281,0.0,0.0,0.0,0.0,0.0,0.0,0.0,0.0,-3.4827,-3.7079,-3.7318,-3.9022,-3.874,0.0,-3.6367,-3.3277,0.0,0.0,0.0,0.0,0.0,0.0,0.0,0.0,-3.1793,-3.5578,-3.9556,-4.2224,-4.3422,-4.3222,-4.2451,-4.1148,-3.9221,-3.6083,-3.1586,-2.786,-2.5226,0.0,0.0,0.0,0.0,0.0,0.0,0.0,0.0,0.0,0.0,0.0,0.0,0.0,0.0,0.0,0.0,0.0,0.0,0.0,0.0,0.0,0.0,0.0,-1.5183,0.0,0.0,0.0,0.0,0.0,0.0,0.0,0.0,0.0,-1.6242,-1.8082,-1.9964,-2.1361,-2.2085,-2.2848,-2.382,0.0,0.0,0.0,0.0,0.0,0.0,0.0,-2.2637,-2.2398,-2.1635,-2.0827,-2.0154,-2.0602,-2.0842,-2.0168,0.0,0.0,-1.7012,-1.5785,-1.5246,-1.547,-1.55,-1.5605,-1.6054,-1.6488,-1.6816,0.0,0.0,0.0,0.0,0.0,0.0,0.0,0.0,-3.4886,-3.4817,0.0,-3.2939,0.0,0.0,0.0,0.0,0.0,0.0,0.0,0.0,-4.1092,-4.3223,-4.2441,-4.241,-4.1967,-4.1186,-4.1682,-4.0214,-3.6716,-3.0326,0.0,0.0,0.0,0.0,0.0,0.0,-3.2836,-3.6745,-4.003,-4.2242,-4.3422,-4.2727,-4.1919,-4.1001,-3.7173,-3.4715,-3.377,-3.0723,-2.7515,-2.4184,-2.2168,0.0,0.0,0.0,0.0,0.0,0.0,0.0,0.0,0.0,0.0,0.0,0.0,0.0,0.0,0.0,0.0,0.0,0.0,0.0,0.0,-1.5593,0.0,0.0,0.0,0.0,0.0,0.0,0.0,0.0,0.0,0.0,-1.6985,-1.9775,-2.2114,-2.2617,0.0,0.0,0.0,0.0,-2.4627,-2.4612,-2.4612,-2.4612,-2.4597,-2.4582,-2.4328,-2.3759,0.0,0.0,-2.1171,-2.1365,-2.1575,-2.0902,-2.0812,-2.0557,-1.9794,-1.8553,-1.7906,-1.8463,-1.7608,-1.7294,-1.8339,-1.8568,-1.8654,-4.1972,0.0,0.0,0.0,0.0,-3.6699,-3.8301,-4.1054,-4.0428,-3.9841,-3.9175,-3.7428,0.0,0.0,0.0,0.0,0.0,0.0,-3.7251,-3.8795,-4.1502,-4.3301,-4.4258,-4.4882,-4.4705,-4.3864,-4.3923,-4.279,-4.0555,-3.7854,-3.3391,-2.7409,0.0,0.0,0.0,0.0,-3.5983,-3.8425,-4.1301,-4.3013,-4.3495,-4.2708,-4.1625,-4.0267,-3.7441,-3.5532,-3.4688,-3.2118,-2.9496,-2.6931,-2.4218,0.0,0.0,0.0,0.0,0.0,0.0,0.0,0.0,0.0,0.0,0.0,0.0,0.0,0.0,0.0,0.0,0.0,0.0,0.0,-1.5459,-1.6028,-1.6,0.0,0.0,0.0,0.0,0.0,0.0,0.0,0.0,0.0,-2.1561,-2.2104,-2.271,0.0,0.0,-2.4926,-2.4627,-2.4985,-2.533,-2.533,0.0,0.0,0.0,-2.4926,-2.4672,-2.4986,-2.4642,-2.4148,-2.3566,-2.3266,-2.2847,-2.2218,-2.2113,-2.1769,-2.0632,-1.972,-1.9211,-1.9316,-1.9076,-1.8957,-1.9301,-1.9405,-1.9415,-4.7592,-4.381,-4.1188,-4.0703,-4.1621,-4.1465,-4.2656,-4.4687,-4.418,-4.3691,-4.3144,-4.1698,-3.9391,-3.6402,-3.4812,0.0,0.0,0.0,-4.021,-4.1929,-4.33,-4.4512,-4.5508,-4.6035,-4.6035,-4.5508,-4.5273,-4.4623,-4.3583,-4.2543,-3.9161,-3.3776,0.0,0.0,-3.2551,-3.5755,-3.8364,-4.0233,-4.2246,-4.3352,-4.3477,-4.2396,-4.091,-3.8982,-3.7221,-3.5899,-3.5009,-3.2687,-3.0534,-2.8712,-2.5854,-2.2952,0.0,0.0,0.0,0.0,0.0,0.0,0.0,0.0,0.0,0.0,0.0,-1.1093,0.0,0.0,0.0,0.0,-1.3171,-1.4765,-1.6346,-1.7022,0.0,0.0,0.0,0.0,0.0,0.0,0.0,-2.0708,-2.1785,-2.3035,-2.4583,-2.4489,-2.4368,-2.4782,-2.528,-2.5555,-2.542,0.0,-2.5989,-2.6004,-2.6213,-2.6393,-2.6378,-2.6063,-2.5854,-2.5974,-2.545,-2.4911,-2.4597,-2.4059,-2.349,-2.3101,-2.2637,-2.2039,-2.1246,-2.0348,-1.9705,-1.9705,-1.9705,-1.9705,-1.9705,-1.9705,-1.9639,-5.2394,-5.2163,-4.845,-4.6758,-4.666,-4.7402,-4.7226,-4.6504,-4.6426,-4.6406,-4.6328,-4.541,-4.3691,-4.1367,-3.9004,0.0,-4.0398,-4.1991,-4.3555,-4.5137,-4.5937,-4.6289,-4.6289,-4.6289,-4.6289,-4.6269,-4.6027,-4.589,-4.5813,-4.4868,-4.3201,-4.0893,-3.8383,-3.7447,-3.8127,-3.892,-4.0252,-4.2077,-4.2989,-4.3352,-4.3275,-4.1864,-3.9955,-3.7569,-3.6652,-3.5789,-3.489,-3.2625,-3.0768,-2.9485,-2.7058,-2.4451,-2.1759,0.0,0.0,0.0,0.0,0.0,0.0,0.0,0.0,0.0,0.0,0.0,0.0,0.0,0.0,0.0,-1.5152,0.0,-1.7201,-1.8257,0.0,0.0,0.0,-1.8229,-1.7815,-1.9095,-2.0785,-2.2757,0.0,0.0,0.0,0.0,-2.6746,-2.6703,-2.6149,-2.5974,-2.6527,-2.6617,-2.6677,-2.6662,-2.7156,-2.7545,-2.7475,-2.7425,-2.728,-2.6883,-2.6126,-2.539,-2.4822,-2.4073,-2.3655,-2.3565,-2.2607,-2.1754,-2.171,-2.0632,-1.975,-1.972,-1.9705,-1.9705,-1.9705,-1.9705,-1.9566,-5.4084,-5.4003,-5.2616,-5.0863,-4.9029,-4.8708,-4.8476,-4.8223,-4.7578,-4.7285,-4.7187,-4.5683,-4.4668,-4.4062,-4.3457,-4.3769,-4.4765,-4.5176,-4.5605,-4.5996,-4.6211,-4.6289,-4.6289,-4.6289,-4.6247,-4.6144,-4.5962,-4.5872,-4.582,-4.5449,-4.4989,-4.4374,-4.3724,-4.1918,-3.9181,-4.1072,-4.2412,-4.2989,-4.3844,-4.3418,-4.1732,-4.1313,-3.9955,-3.7569,-3.6083,-3.4926,-3.4082,-3.2101,-3.0188,-2.8441,-2.6954,-2.4917,-2.2272,-1.9738,0.0,0.0,0.0,0.0,0.0,0.0,0.0,0.0,0.0,-1.4629,-1.179,0.0,-1.6532,0.0,-1.6973,-1.7718,-1.7945,-1.8235,0.0,0.0,-1.966,-2.0363,-2.1066,-2.1481,-2.2683,-2.5246,-2.5632,-2.6497,-2.8628,-2.8889,-2.8693,-2.8188,-2.7518,-2.6976,-2.6692,-2.7085,-2.7335,-2.7385,-2.7455,-2.756,-2.761,-2.756,-2.77,-2.8023,-2.6682,-2.5555,-2.5405,-2.4388,-2.3595,-2.3565,-2.2981,-2.2308,-2.1799,-2.1006,-2.0288,-1.9824,-1.9705,-1.9705,-1.9705,-1.9705,-1.9675,-5.5132,-5.5091,-5.4465,-5.3351,-5.196,-5.1018,-5.0176,-4.9453,-4.8965,-4.8535,-4.8105,-4.6738,-4.6152,-4.6133,-4.5742,-4.584,-4.6289,-4.6289,-4.6289,-4.6289,-4.6289,-4.6289,-4.6289,-4.6289,-4.6225,-4.6089,-4.5974,-4.5871,-4.5796,-4.5665,-4.5586,-4.5586,-4.5586,-4.4432,-4.2258,-4.3366,-4.3869,-4.3624,-4.3567,-4.2748,-4.1148,-4.0763,-3.9405,-3.7055,-3.6064,-3.4769,-3.3122,-3.1664,-2.9904,-2.7836,-2.6498,-2.4879,-2.288,-2.0636,-1.8877,0.0,0.0,0.0,0.0,0.0,0.0,0.0,0.0,0.0,0.0,0.0,-1.8003,0.0,-1.8194,0.0,-1.9274,-1.9965,-2.0539,-2.0891,-2.187,-2.2661,-2.3025,-2.3276,-2.4296,-2.6497,-2.6754,-2.747,-2.9357,-2.9594,-2.946,-2.9071,-2.8457,-2.7784,-2.72,-2.74,-2.756,-2.756,-2.756,-2.771,-2.7959,-2.776,-2.7689,-2.7842,-2.6685,-2.5525,-2.5211,-2.4313,-2.3595,-2.355,-2.2862,-2.2143,-2.1739,-2.0887,-2.0124,-1.9839,-1.9705,-1.9705,-1.9705,-1.9705,-1.9639,-5.5857,-5.5801,-5.5128,-5.4804,-5.4603,-5.3454,-5.2029,-5.0487,-5.0389,-4.9785,-4.8867,-4.8105,-4.7773,-4.7715,-4.6973,-4.6582,-4.6465,-4.6465,-4.6406,-4.6289,-4.6289,-4.6289,-4.6289,-4.6289,-4.6223,-4.6075,-4.5967,-4.5861,-4.5789,-4.5668,-4.5586,-4.5586,-4.5586,-4.5568,-4.5457,-4.5161,-4.4688,-4.3998,-4.2977,-4.2011,-4.113,-4.0432,-3.8854,-3.645,-3.6072,-3.4655,-3.2061,-3.1052,-2.9554,-2.737,-2.6016,-2.4723,-2.3456,-2.1448,-1.9925,0.0,-1.7988,0.0,0.0,0.0,0.0,0.0,0.0,0.0,0.0,-1.8822,-1.9261,-1.9181,-1.9326,-1.98,-2.0643,-2.2159,-2.289,-2.2535,-2.3916,-2.472,-2.428,-2.4759,-2.5754,-2.7262,-2.7547,-2.8209,-2.9644,-2.9834,-2.9834,-2.9684,-2.929,-2.8665,-2.7981,-2.772,-2.7625,-2.766,-2.781,-2.8174,-2.8606,-2.8271,-2.7847,-2.7581,-2.6612,-2.5468,-2.4762,-2.4073,-2.3595,-2.3505,-2.2682,-2.1874,-2.1724,-2.0692,-1.9839,-1.972,-1.9705,-1.9705,-1.9705,-1.9705,-1.953,-5.6742,-5.6689,-5.5977,-5.5288,-5.4684,-5.4566,-5.3572,-5.203,-5.1308,-5.022,-4.8926,-4.873,-4.8652,-4.8633,-4.8496,-4.8027,-4.7363,-4.7363,-4.6973,-4.6289,-4.6289,-4.6289,-4.6289,-4.6289,-4.6173,-4.594,-4.5888,-4.5817,-4.5654,-4.562,-4.5586,-4.5586,-4.5586,-4.5342,-4.4806,0.0,0.0,0.0,-4.3531,-4.2561,-4.1167,-4.0965,-3.9405,-3.6395,-3.4717,0.0,-3.1191,-2.9655,-2.8119,-2.6536,-2.6404,0.0,0.0,0.0,0.0,0.0,0.0,0.0,0.0,0.0,0.0,0.0,-2.0348,-2.0453,-2.0206,-2.1637,-2.2209,-2.1255,-2.1488,-2.1482,-2.081,-2.2159,-2.3027,-2.305,-2.4456,-2.5398,-2.5322,-2.6412,-2.7536,-2.8532,-2.9275,-3.0028,-3.0919,-3.1165,-3.0926,-3.0398,-3.0228,-2.9869,-2.9212,-2.8263,-2.7825,-2.8238,-2.8685,-2.9225,-2.9865,-2.9406,-2.8744,-2.8255,-2.718,-2.5968,-2.4822,-2.4059,-2.361,-2.358,-2.2981,-2.2278,-2.1799,-2.1051,-2.0273,-1.9809,-1.9705,-1.9705,-1.9705,-1.969,-1.953,-5.7396,0.0,-5.6599,-5.5962,0.0,-5.5274,-5.4638,-5.3485,-5.2269,-5.1076,-4.9972,-4.9609,-4.9441,-4.9422,-4.9061,-4.8652,-4.8223,-4.7793,-4.7363,-4.6933,-4.6484,-4.6289,-4.6289,-4.6289,-4.6198,-4.5995,-4.5924,-4.5839,-4.5708,-4.5635,-4.5586,-4.5586,-4.5586,-4.5342,-4.4849,-4.4482,-4.4117,-4.3758,-4.321,-4.2323,-4.1167,-4.0726,-3.935,-3.6964,0.0,0.0,0.0,0.0,0.0,0.0,0.0,0.0,0.0,0.0,0.0,-2.1899,-2.2051,-2.1837,-2.1095,-2.1506,-2.2039,-2.2607,-2.3565,-2.3699,-2.2727,-2.3213,-2.3406,-2.3078,-2.2616,-2.2209,-2.199,-2.3138,-2.3966,-2.4042,-2.5197,-2.6148,-2.6616,-2.7235,-2.8233,-2.9442,-3.0025,-3.0598,-3.1409,-3.1853,-3.1718,-3.1089,-3.098,-3.0746,-3.0036,-2.9106,-2.8638,-2.8904,-2.918,-2.9585,-3.0123,-2.9805,-2.9155,-2.8359,-2.7307,-2.6047,-2.4734,-2.3993,-2.3595,-2.352,-2.2847,-2.2143,-2.2113,-2.1141,-2.0198,-2.0168,-1.9929,-1.972,-1.969,-1.9479,-1.9132,-5.8088,-5.7396,-5.7126,-5.6588,-5.5915,-5.5761,-5.5287,-5.4561,0.0,0.0,0.0,-5.0524,-5.0215,-5.0172,-4.958,-4.9238,-4.9082,-4.8379,-4.791,-4.7558,-4.6875,-4.6445,-4.6289,-4.6289,-4.6245,-4.6089,-4.5955,-4.5871,-4.5796,-4.5684,-4.5586,-4.5586,-4.5586,-4.54,-4.4988,-4.429,-4.3772,-4.3477,-4.2855,-4.2066,-4.1148,-4.0451,-3.9227,-3.7424,-3.6141,-3.4515,-3.2555,-3.1394,-2.9643,-2.7267,-2.7215,-2.6623,-2.5203,-2.5067,-2.4792,-2.4164,-2.4841,-2.4839,-2.3752,-2.4366,-2.4852,-2.4925,-2.5974,-2.6123,-2.5046,-2.4333,-2.4113,-2.4529,-2.3271,-2.2648,-2.304,-2.4155,-2.4885,-2.5013,-2.6054,-2.7027,-2.7789,-2.8103,-2.8798,-3.0011,-3.045,-3.0763,-3.1357,-3.1946,-3.2191,-3.1566,-3.1369,-3.1289,-3.0612,-2.9939,-2.9524,-2.954,-2.9717,-2.9951,-3.0251,-3.0123,-2.9414,-2.8582,-2.7547,-2.6314,-2.4989,-2.4109,-2.3767,-2.3595,-2.2682,-2.2368,-2.2514,-2.1374,-2.0258,-2.0617,-2.0168,-1.9705,-1.9654,-1.9207,-1.8664,-5.9261,-5.9031,-5.7588,-5.6915,-5.6742,-5.6011,-5.5243,-5.4419,-5.2958,-5.2232,-5.2076,-5.1298,-5.0977,-5.1006,-5.0918,-5.0571,-5.0019,-4.9883,-4.9043,0.0,-4.748,-4.7012,-4.6308,-4.6289,-4.6245,-4.6108,-4.5974,-4.5852,-4.5796,-4.5665,-4.5586,-4.5586,-4.5586,-4.5283,-4.4657,-4.3912,-4.3548,-4.3479,-4.3369,-4.2598,-4.1148,-4.0983,-3.9597,-3.6931,-3.5661,-3.4058,-3.209,-3.1439,-3.037,-2.8808,-2.9279,-2.8941,-2.7469,-2.7282,-2.6805,-2.5642,-2.5841,-2.5756,-2.5095,-2.5304,-2.5719,-2.6258,-2.6497,-2.6497,-2.6314,-2.5588,-2.5191,-2.5205,-2.3871,-2.299,-2.3201,-2.4167,-2.5065,-2.5788,-2.6843,-2.7841,-2.8643,-2.9324,-2.9864,-3.0228,-3.0896,-3.1252,-3.1335,-3.155,-3.167,-3.1433,-3.1366,-3.1281,-3.1016,-3.0559,-3.0208,-3.0251,-3.0617,-3.0935,-3.0958,-3.1015,-3.0356,-2.9343,-2.8458,-2.7252,-2.5587,-2.4704,-2.4105,-2.3666,-2.3295,-2.3101,-2.2802,-2.2039,-2.1291,-2.0932,-2.0333,-1.9839,-1.9809,-1.9003,-1.8252,-5.9935,-5.9435,-5.8665,-5.7819,-5.6915,-5.6049,-5.5491,-5.5051,-5.3971,-5.3204,-5.2717,-5.1967,-5.1649,-5.1648,-5.1343,-5.1043,-5.0727,-5.037,-4.9766,-4.9004,-4.8535,-4.7832,-4.7051,-4.6992,-4.6737,-4.6219,-4.6014,-4.5872,-4.5859,-4.5692,-4.5586,-4.5568,-4.5243,-4.4919,-4.458,-4.3868,-4.3479,-4.3479,-4.3057,-4.2286,-4.113,-4.0689,-3.9451,-3.7406,-3.6149,-3.4956,-3.3786,-3.2861,-3.1715,-3.0243,-3.0514,-3.0006,-2.8552,-2.845,-2.7885,-2.6724,-2.7073,-2.6922,-2.6077,-2.6432,-2.6797,-2.7096,-2.7126,-2.7125,-2.7011,-2.627,-2.5654,-2.528,-2.4442,-2.3929,-2.3665,-2.4343,-2.4936,-2.5345,-2.6192,-2.721,-2.8284,-2.887,-2.9363,-2.9853,-3.0513,-3.0937,-3.0933,-3.1505,-3.1742,-3.1443,-3.1292,-3.1264,-3.1202,-3.0975,-3.0797,-3.0838,-3.1015,-3.1151,-3.119,-3.119,-3.0791,-2.9867,-2.8865,-2.7676,-2.6188,-2.5143,-2.4276,-2.3679,-2.3355,-2.3161,-2.3086,-2.2353,-2.1814,-2.1829,-2.1246,-2.0752,-2.0266,-1.9333,-1.844,-6.0416,-5.9781,-5.9569,-5.8531,-5.6934,-5.6069,-5.5684,-5.5626,-5.503,-5.4395,-5.3685,-5.2794,-5.2256,-5.2061,-5.1619,-5.1323,-5.1147,-5.0674,-5.0332,-5.0137,-4.9492,-4.8633,-4.7676,-4.7617,-4.7148,-4.6348,-4.6069,-4.5924,-4.5881,-4.5742,-4.5618,-4.5531,-4.5011,-4.4657,-4.4599,-4.3962,-4.3563,-4.3458,-4.2543,-4.1735,-4.1111,-4.0304,-3.9185,-3.7791,-3.6791,-3.592,-3.5152,-3.4184,-3.3051,-3.1799,-3.1529,-3.0903,-2.9858,-2.9567,-2.896,-2.7991,-2.827,-2.8056,-2.6973,-2.7275,-2.756,-2.756,-2.756,-2.7454,-2.7097,-2.6649,-2.6095,-2.5374,-2.4822,-2.4406,-2.4117,-2.4722,-2.5129,-2.5203,-2.6109,-2.7264,-2.8222,-2.8498,-2.8902,-2.9711,-3.021,-3.0525,-3.084,-3.1515,-3.1835,-3.1378,-3.123,-3.1224,-3.119,-3.119,-3.119,-3.119,-3.119,-3.119,-3.119,-3.119,-3.097,-3.0412,-2.9453,-2.8201,-2.6896,-2.5582,-2.4493,-2.3882,-2.3251,-2.3161,-2.3415,-2.2727,-2.2274,-2.2439,-2.1979,-2.1391,-2.0523,-1.9612,-1.8795,-6.0742,-6.055,-5.9858,-5.8531,-5.6992,-5.6088,-5.5722,-5.5684,-5.5607,-5.5568,-5.5222,-5.38,-5.276,-5.2152,-5.2056,-5.1725,-5.1249,-5.1132,-5.0783,-5.0273,-5.0117,-4.9199,-4.7793,-4.7637,-4.7148,-4.6387,-4.6167,-4.6001,-4.5899,-4.5801,-4.5723,-4.5566,-4.5222,-4.4877,-4.4599,-4.4165,-4.3804,-4.3495,-4.1992,-4.1185,-4.1075,-4.0322,-3.9052,-3.7321,-3.714,-3.6269,-3.4729,-3.4464,-3.4032,-3.3237,-3.2544,-3.2121,-3.1901,-3.1343,-3.0442,-2.9271,-2.9217,-2.8763,-2.7655,-2.758,-2.756,-2.756,-2.759,-2.7275,-2.6496,-2.6734,-2.6666,-2.5889,-2.4833,-2.4268,-2.4117,-2.5249,-2.6047,-2.6231,-2.7659,-2.9103,-2.9204,-2.9431,-2.9726,-3.0351,-3.0335,-3.0694,-3.104,-3.1347,-3.1371,-3.1237,-3.1252,-3.1213,-3.119,-3.1252,-3.123,-3.119,-3.119,-3.119,-3.119,-3.119,-3.1123,-3.0987,-3.0425,-2.9104,-2.7607,-2.651,-2.5645,-2.3912,-2.355,-2.3505,-2.3415,-2.3041,-2.2694,-2.2709,-2.2211,-2.1399,-2.0274,-1.9598,-1.9205,-6.08,-6.0762,-6.0416,-5.93,-5.7742,-5.6819,-5.6165,-5.5703,-5.5684,-5.5684,-5.5626,-5.4953,-5.4245,-5.3474,-5.255,-5.1961,-5.1725,-5.1356,-5.1058,-5.0806,-5.0859,-5.0273,-4.9199,-4.8574,-4.791,-4.7031,-4.6427,-4.6014,-4.5909,-4.5764,-4.5668,-4.5568,-4.5263,-4.4943,-4.458,-4.4204,-4.3836,-4.3458,-4.1919,-4.1097,-4.0965,-3.9863,-3.8546,-3.7376,-3.719,-3.6584,-3.5314,-3.5148,-3.4827,-3.41,-3.3744,-3.3186,-3.2307,-3.1666,-3.0738,-2.9499,-2.8732,-2.8125,-2.761,-2.756,-2.756,-2.756,-2.7949,-2.7764,-2.6868,-2.7729,-2.7963,-2.711,-2.6492,-2.6078,-2.5868,-2.6689,-2.7242,-2.709,-2.7755,-2.8291,-2.8265,-2.8681,-2.9066,-2.9348,-2.9943,-3.0464,-3.0734,-3.1008,-3.1197,-3.1263,-3.1372,-3.147,-3.1252,-3.1372,-3.1449,-3.1252,-3.119,-3.119,-3.119,-3.119,-3.119,-3.1072,-3.0598,-2.946,-2.7891,-2.68,-2.5693,-2.3945,-2.3713,-2.364,-2.358,-2.346,-2.3221,-2.3071,-2.2715,-2.2007,-2.1122,-2.0475,-2.0141,-6.08,-6.0742,-6.055,-5.9742,-5.855,-5.7453,-5.6646,-5.6049,-5.5799,-5.5684,-5.5684,-5.5684,-5.5395,-5.4666,-5.3375,-5.2531,-5.208,-5.1695,-5.138,-5.1245,-5.1343,-5.0976,-5.0176,-4.9316,-4.8437,-4.7558,-4.6612,-4.6075,-4.589,-4.5699,-4.5586,-4.555,-4.5282,-4.4919,-4.4599,-4.4223,-4.3818,-4.3385,-4.2103,-4.1332,-4.0932,-3.9589,-3.8301,-3.7339,-3.719,-3.6706,-3.5667,-3.5639,-3.5368,-3.4844,-3.4607,-3.3914,-3.2696,-3.1824,-3.0712,-2.9275,-2.8174,-2.756,-2.756,-2.756,-2.77,-2.7874,-2.8353,-2.8355,-2.7965,-2.868,-2.8844,-2.8241,-2.8233,-2.8143,-2.7467,-2.7878,-2.7994,-2.7619,-2.7695,-2.7773,-2.8021,-2.8343,-2.8778,-2.9233,-2.9992,-3.0377,-3.0559,-3.0912,-3.1207,-3.123,-3.1545,-3.1716,-3.147,-3.1603,-3.166,-3.1428,-3.1291,-3.119,-3.119,-3.119,-3.119,-3.1106,-3.0717,-2.9923,-2.8258,-2.7405,-2.6236,-2.4983,-2.429,-2.3744,-2.3625,-2.358,-2.3565,-2.3419,-2.2964,-2.2309,-2.1634,-2.1035,-2.0329,-6.08,-6.0685,-5.9935,-5.9569,-5.9319,-5.7723,-5.6992,-5.678,-5.6049,-5.5684,-5.5684,-5.5684,-5.5665,-5.553,-5.4687,-5.3551,-5.2302,-5.2185,-5.1857,-5.1313,-5.1342,-5.0976,-5.0176,-4.9316,-4.8476,-4.7695,-4.6816,-4.6206,-4.5918,-4.5713,-4.5586,-4.5586,-4.5263,-4.4919,-4.458,-4.4204,-4.3818,-4.3437,-4.2598,-4.1846,-4.1027,-3.9761,-3.8474,-3.7281,-3.719,-3.6666,-3.5739,-3.5639,-3.5571,-3.5509,-3.4895,-3.415,-3.3347,-3.2064,-3.049,-2.8747,-2.7959,-2.756,-2.756,-2.7604,-2.791,-2.8412,-2.8667,-2.8808,-2.8986,-2.9333,-2.9351,-2.8947,-2.9642,-2.9558,-2.8521,-2.8521,-2.8512,-2.8396,-2.8523,-2.8845,-2.9269,-2.9005,-2.9468,-3.0624,-3.0863,-3.094,-3.1219,-3.119,-3.1325,-3.1368,-3.1603,-3.1825,-3.1825,-3.1825,-3.1789,-3.1696,-3.1449,-3.119,-3.119,-3.119,-3.119,-3.114,-3.0982,-3.0628,-2.9682,-2.8591,-2.7201,-2.5913,-2.4967,-2.4237,-2.3789,-2.3595,-2.3551,-2.3289,-2.2608,-2.1983,-2.154,-2.0607,-1.994,-6.08,-6.0762,-6.0473,-6.0031,-5.9396,-5.828,-5.7511,-5.6934,-5.6069,-5.5684,-5.5684,-5.5684,-5.5684,-5.5684,-5.5395,-5.4667,-5.359,-5.2632,-5.2061,-5.1838,-5.1479,-5.1164,-5.0898,-5.0117,-4.9277,-4.8398,-4.7539,-4.6697,-4.5938,-4.5699,-4.5586,-4.5531,-4.5263,-4.4919,-4.458,-4.4204,-4.3818,-4.3474,-4.269,-4.1748,-4.065,-3.9606,-3.8347,-3.6816,-3.6701,-3.6333,-3.5622,-3.5639,-3.5639,-3.5605,-3.5334,-3.4684,-3.3416,-3.1368,-2.9532,-2.8134,-2.771,-2.756,-2.7619,-2.7993,-2.8323,-2.8607,-2.9385,-2.9592,-2.9523,-3.0119,-3.047,-3.0151,-3.0584,-3.069,-3.0397,-2.9999,-2.9566,-2.9292,-2.9614,-2.9797,-2.9822,-3.0402,-3.1372,-3.2001,-3.2404,-3.2835,-3.2659,-3.2808,-3.258,-3.2196,-3.2417,-3.25,-3.2298,-3.2248,-3.2179,-3.1842,-3.1487,-3.119,-3.119,-3.119,-3.119,-3.119,-3.1033,-3.0499,-2.9682,-2.8906,-2.7678,-2.615,-2.5192,-2.4462,-2.3909,-2.3595,-2.3551,-2.3098,-2.2423,-2.1805,-2.1272,-2.0584,-2.0054,-6.08,-6.08,-6.08,-6.0454,-5.9858,-5.905,-5.8204,-5.7357,-5.6492,-5.5972,-5.5742,-5.5684,-5.5684,-5.5684,-5.5684,-5.5434,-5.4764,-5.3271,-5.2419,-5.2166,-5.1507,-5.1225,-5.1183,-5.0523,-4.9705,-4.8789,-4.7627,-4.6621,-4.5948,-4.5699,-4.5603,-4.5586,-4.518,-4.4849,-4.4553,-4.4106,-4.3726,-4.3419,-4.2947,-4.2022,-4.0652,-3.9698,-3.8411,-3.6881,-3.6333,-3.5985,-3.5622,-3.5639,-3.5639,-3.5639,-3.5639,-3.4873,-3.319,-3.107,-2.9268,-2.8101,-2.7694,-2.7694,-2.7919,-2.8338,-2.8771,-2.9205,-2.9968,-3.0256,-3.009,-3.0909,-3.1131,-3.097,-3.1146,-3.1467,-3.1405,-3.1065,-3.0803,-3.0539,-3.0612,-3.0751,-3.0878,-3.1797,-3.2547,-3.3119,-3.4048,-3.4333,-3.3863,-3.3686,-3.3278,-3.2623,-3.2921,-3.3014,-3.2809,-3.2713,-3.2583,-3.2109,-3.1677,-3.1389,-3.1252,-3.119,-3.119,-3.119,-3.119,-3.0566,-2.9971,-2.9193,-2.8088,-2.6565,-2.5379,-2.4609,-2.4059,-2.3699,-2.3334,-2.2979,-2.2438,-2.1805,-2.1259,-2.0733,-2.0231,-6.08,-6.08,-6.08,-6.0762,-6.055,-5.9762,-5.8992,-5.8223,-5.73,-5.6472,-5.5915,-5.5722,-5.5684,-5.5684,-5.5684,-5.5665,-5.5322,-5.3951,-5.2887,-5.223,-5.1439,-5.1125,-5.1171,-5.0508,-4.9712,-4.8828,-4.6936,-4.6013,-4.589,-4.5694,-4.5586,-4.5475,-4.4988,-4.4682,-4.458,-4.3962,-4.3548,-4.3461,-4.3387,-4.2601,-4.1181,-4.0056,-3.8756,-3.7175,-3.6165,-3.5667,-3.5639,-3.5639,-3.5639,-3.5639,-3.5639,-3.4672,-3.2838,-3.123,-2.9908,-2.8776,-2.8008,-2.8008,-2.8517,-2.8697,-2.9325,-3.0073,-3.0507,-3.0795,-3.1185,-3.1364,-3.1467,-3.1394,-3.1409,-3.1467,-3.1492,-3.1586,-3.172,-3.2276,-3.1457,-3.1642,-3.2704,-3.2925,-3.3014,-3.4174,-3.534,-3.5314,-3.425,-3.4013,-3.3743,-3.3045,-3.3014,-3.3273,-3.3184,-3.3136,-3.2952,-3.2517,-3.2021,-3.1582,-3.1351,-3.119,-3.119,-3.119,-3.119,-3.092,-3.0434,-2.9753,-2.8618,-2.7127,-2.5632,-2.4792,-2.3909,-2.3551,-2.3363,-2.295,-2.2377,-2.1663,-2.1002,-2.0434,-2.0144,-6.08,-6.08,-6.08,-6.08,-6.0685,-5.9858,-5.9338,-5.8973,-5.7627,-5.6838,-5.6511,-5.5953,-5.5684,-5.5684,-5.5684,-5.5684,-5.557,-5.4053,-5.3161,-5.2771,-5.1605,-5.1035,-5.1102,-5.0928,-5.0155,-4.8867,-4.7501,-4.6472,-4.5949,-4.5699,-4.5586,-4.5513,-4.5161,-4.4806,-4.458,-4.4106,-4.3758,-4.3513,-4.3479,-4.2534,-4.0725,-3.994,-3.8669,-3.6835,-3.5968,-3.5639,-3.5639,-3.5639,-3.5639,-3.5639,-3.5622,-3.4672,-3.2788,-3.127,-3.0152,-2.9417,-2.9101,-2.9011,-2.9265,-2.9669,-3.0013,-3.0522,-3.0926,-3.1255,-3.148,-3.1467,-3.1467,-3.1467,-3.1467,-3.1467,-3.1595,-3.2007,-3.2183,-3.1989,-3.2378,-3.2803,-3.366,-3.4536,-3.5432,-3.6162,-3.688,-3.671,-3.5815,-3.5423,-3.4812,-3.3597,-3.3494,-3.3597,-3.3578,-3.3361,-3.2996,-3.2583,-3.2109,-3.1714,-3.1351,-3.119,-3.119,-3.119,-3.119,-3.1151,-3.074,-2.9999,-2.8902,-2.7496,-2.6001,-2.4897,-2.4043,-2.3508,-2.3319,-2.2756,-2.2039,-2.1328,-2.0557,-2.0181,-1.9901,-6.08,-6.08,-6.08,-6.08,-6.0742,-6.0185,-5.98,-5.9338,-5.8069,-5.73,-5.6876,-5.6069,-5.5684,-5.5684,-5.5684,-5.5684,-5.5549,-5.426,-5.3552,-5.3103,-5.1612,-5.0959,-5.1012,-5.0829,-5.0155,-4.8926,-4.7782,-4.6804,-4.5929,-4.5764,-4.5651,-4.5549,-4.514,-4.4825,-4.4553,-4.4076,-4.3693,-4.3513,-4.3461,-4.2611,-4.0962,-3.9988,-3.869,-3.6988,-3.6007,-3.5639,-3.5639,-3.5639,-3.5639,-3.5577,-3.5362,-3.4457,-3.3042,-3.1657,-3.0588,-3.0038,-2.9729,-2.9654,-2.9924,-3.0238,-3.0642,-3.0896,-3.13,-3.1467,-3.1467,-3.1467,-3.1467,-3.1467,-3.1467,-3.164,-3.1951,-3.2571,-3.2819,-3.2752,-3.3437,-3.4134,-3.4656,-3.5845,-3.6794,-3.7307,-3.7841,-3.7499,-3.6692,-3.6248,-3.5605,-3.4247,-3.3807,-3.3807,-3.378,-3.3597,-3.3166,-3.2695,-3.2332,-3.1842,-3.1329,-3.119,-3.119,-3.119,-3.119,-3.1095,-3.0878,-3.0005,-2.8936,-2.7302,-2.5755,-2.4972,-2.4163,-2.3759,-2.3421,-2.256,-2.1852,-2.128,-2.072,-2.0144,-1.985,-6.08,-6.08,-6.08,-6.08,-6.08,-6.0723,-6.03,-5.9569,-5.8607,-5.7819,-5.7049,-5.6126,-5.5684,-5.5684,-5.5684,-5.5684,-5.553,-5.4799,-5.3914,-5.2973,-5.1684,-5.0941,-5.0914,-5.0536,-4.9863,-4.8867,-4.7985,-4.695,-4.5938,-4.582,-4.5733,-4.5549,-4.5011,-4.4631,-4.4501,-4.3899,-4.3563,-4.3513,-4.3479,-4.2775,-4.125,-4.0221,-3.8813,-3.7386,-3.6222,-3.5639,-3.5639,-3.5639,-3.5639,-3.5532,-3.4958,-3.4203,-3.3489,-3.2306,-3.1204,-3.0593,-2.9998,-3.0133,-3.0432,-3.0642,-3.0881,-3.136,-3.1465,-3.1467,-3.1467,-3.1467,-3.1467,-3.1524,-3.1582,-3.1894,-3.2492,-3.3235,-3.3838,-3.4559,-3.4728,-3.5189,-3.6197,-3.6847,-3.7342,-3.779,-3.8259,-3.8083,-3.656,-3.6303,-3.5459,-3.4302,-3.3807,-3.3807,-3.3807,-3.3652,-3.3314,-3.2885,-3.2433,-3.195,-3.1389,-3.119,-3.119,-3.119,-3.1095,-3.0918,-3.0559,-2.9597,-2.8495,-2.6887,-2.5963,-2.5136,-2.4418,-2.3969,-2.3451,-2.274,-2.2128,-2.1547,-2.0868,-2.0245,-1.985,-6.08,-6.08,-6.08,-6.08,-6.08,-6.08,-6.0666,-6.0281,-5.8915,-5.8204,-5.7646,-5.6338,-5.5722,-5.5684,-5.5684,-5.5684,-5.5511,-5.4895,-5.403,-5.3145,-5.2145,-5.138,-5.1097,-5.0913,-5.0155,-4.9004,-4.846,-4.7501,-4.5996,-4.5856,-4.5733,-4.5605,-4.5161,-4.4825,-4.4553,-4.4106,-4.3758,-4.3548,-4.3479,-4.2538,-4.0799,-4.0006,-3.8619,-3.6814,-3.6,-3.5622,-3.5639,-3.5639,-3.5639,-3.5532,-3.4447,-3.3836,-3.3515,-3.2315,-3.1464,-3.1207,-3.1091,-3.1031,-3.118,-3.124,-3.1302,-3.1422,-3.1467,-3.1467,-3.1467,-3.1467,-3.1467,-3.1582,-3.1951,-3.2382,-3.2749,-3.3684,-3.475,-3.5725,-3.5856,-3.6045,-3.6481,-3.7155,-3.779,-3.7946,-3.8401,-3.7839,-3.6872,-3.6211,-3.5679,-3.4394,-3.3862,-3.388,-3.3935,-3.378,-3.3504,-3.2903,-3.2366,-3.1914,-3.1524,-3.1291,-3.119,-3.119,-3.1015,-3.0642,-2.9919,-2.8841,-2.7564,-2.6096,-2.6291,-2.5764,-2.4777,-2.4014,-2.3452,-2.2855,-2.2161,-2.152,-2.0868,-2.0245,-1.9952,-6.08,-6.08,-6.08,-6.08,-6.08,-6.08,-6.08,-6.055,-5.9415,-5.8588,-5.805,-5.6896,-5.603,-5.5722,-5.5684,-5.5684,-5.5626,-5.5222,-5.4337,-5.3106,-5.1914,-5.1277,-5.1111,-5.1113,-5.0347,-4.9043,-4.8822,-4.7684,-4.6216,-4.5861,-4.5764,-4.5565,-4.5263,-4.4919,-4.458,-4.4223,-4.3818,-4.3582,-4.3442,-4.2503,-4.0628,-3.9872,-3.8526,-3.6887,-3.5977,-3.5639,-3.5639,-3.5639,-3.5639,-3.5379,-3.4592,-3.3887,-3.3531,-3.2586,-3.1853,-3.1582,-3.1467,-3.1452,-3.1467,-3.1467,-3.1467,-3.1467,-3.1467,-3.1467,-3.1467,-3.1467,-3.1467,-3.1582,-3.216,-3.268,-3.3219,-3.4398,-3.5548,-3.6215,-3.6746,-3.702,-3.7002,-3.7524,-3.798,-3.8234,-3.8423,-3.8248,-3.6927,-3.657,-3.5881,-3.5037,-3.4211,-3.4229,-3.4247,-3.3963,-3.3606,-3.3027,-3.25,-3.2074,-3.1657,-3.1389,-3.119,-3.119,-3.0699,-3.0377,-2.9613,-2.8497,-2.7496,-2.6597,-2.6654,-2.6228,-2.5061,-2.406,-2.3478,-2.2861,-2.2152,-2.1376,-2.072,-2.0245,-1.9952,-6.08,-6.08,-6.08,-6.08,-6.08,-6.08,-6.08,-6.0627,-5.9819,-5.8992,-5.8223,-5.7376,-5.6434,-5.5703,-5.5684,-5.5684,-5.5684,-5.5607,-5.4587,-5.3164,-5.1722,-5.0858,-5.1039,-5.1094,-5.0368,-4.9252,-4.9004,-4.7868,-4.6573,-4.6063,-4.5794,-4.5591,-4.5284,-4.4919,-4.458,-4.4223,-4.3818,-4.3563,-4.3479,-4.2414,-4.0721,-3.9802,-3.8572,-3.6734,-3.5938,-3.5656,-3.5639,-3.5639,-3.5639,-3.5639,-3.4894,-3.4137,-3.3547,-3.2933,-3.2216,-3.164,-3.1467,-3.1467,-3.1467,-3.1467,-3.1467,-3.1467,-3.1467,-3.1467,-3.1524,-3.164,-3.1739,-3.1739,-3.2312,-3.3271,-3.4104,-3.5487,-3.6298,-3.6746,-3.7415,-3.7825,-3.798,-3.798,-3.8165,-3.867,-3.8732,-3.8345,-3.7647,-3.6967,-3.6397,-3.5716,-3.4945,-3.4541,-3.4412,-3.4092,-3.3706,-3.3214,-3.2745,-3.2316,-3.1878,-3.1449,-3.1291,-3.1151,-3.0435,-2.9978,-2.9585,-2.8701,-2.7856,-2.7258,-2.6984,-2.6183,-2.4896,-2.4133,-2.3725,-2.2783,-2.2081,-2.1183,-2.0383,-2.0093,-1.9798,-6.08,-6.08,-6.08,-6.08,-6.08,-6.08,-6.08,-6.0723,-5.9877,-5.905,-5.8242,-5.7376,-5.6511,-5.5684,-5.5662,-5.5684,-5.5643,-5.5549,-5.478,-5.3145,-5.1471,-5.0868,-5.094,-5.1031,-5.0587,-4.9755,-4.9139,-4.8215,-4.7167,-4.6263,-4.5841,-4.5708,-4.5362,-4.4943,-4.4606,-4.4252,-4.3836,-4.3563,-4.3479,-4.2268,-4.0374,-3.9713,-3.8408,-3.6197,-3.574,-3.5656,-3.5639,-3.5639,-3.5639,-3.5316,-3.4544,-3.3786,-3.3427,-3.2516,-3.1853,-3.1582,-3.1467,-3.1467,-3.1467,-3.1467,-3.1467,-3.1467,-3.1467,-3.1524,-3.1524,-3.2064,-3.2272,-3.2571,-3.3479,-3.4463,-3.5487,-3.6045,-3.6746,-3.7342,-3.7772,-3.8114,-3.8396,-3.8496,-3.8676,-3.8905,-3.898,-3.8711,-3.7968,-3.7745,-3.7136,-3.637,-3.5661,-3.5,-3.4651,-3.4376,-3.388,-3.3422,-3.2809,-3.2384,-3.2056,-3.1582,-3.1291,-3.1151,-3.0559,-2.9805,-2.9451,-2.8917,-2.8092,-2.7552,-2.719,-2.6198,-2.5075,-2.497,-2.4678,-2.3342,-2.2021,-2.1293,-2.067,-2.0245,-1.9798,-6.08,-6.08,-6.08,-6.08,-6.08,-6.08,-6.08,-6.0608,-5.9877,-5.905,-5.8177,-5.7182,-5.6247,-5.5461,-5.5423,-5.5423,-5.5259,-5.4756,-5.4068,-5.2914,-5.1529,-5.0778,-5.0855,-5.0926,-5.0708,-4.9991,-4.9252,-4.8375,-4.7377,-4.6461,-4.5871,-4.5796,-4.5472,-4.5077,-4.4657,-4.4392,-4.4004,-4.3597,-4.3461,-4.2359,-4.0459,-3.9713,-3.8303,-3.6161,-3.5639,-3.5639,-3.5639,-3.5639,-3.5639,-3.527,-3.435,-3.3582,-3.3531,-3.2864,-3.2256,-3.1567,-3.1467,-3.1467,-3.1467,-3.1467,-3.1467,-3.1467,-3.1467,-3.1739,-3.1951,-3.2437,-3.2734,-3.3182,-3.4021,-3.5094,-3.6232,-3.6943,-3.7379,-3.7772,-3.8255,-3.8554,-3.8789,-3.8894,-3.8905,-3.9099,-3.9231,-3.9102,-3.8814,-3.8458,-3.8264,-3.7654,-3.648,-3.5787,-3.544,-3.5092,-3.4248,-3.3666,-3.2943,-3.2417,-3.2144,-3.175,-3.1291,-3.1151,-3.0918,-3.0166,-2.954,-2.9023,-2.8436,-2.7804,-2.7156,-2.6617,-2.5764,-2.5687,-2.5159,-2.3757,-2.2527,-2.1684,-2.0917,-2.0245,-1.9901,-6.08,-6.08,-6.08,-6.08,-6.08,-6.08,-6.08,-6.0666,-6.0031,-5.9242,-5.8212,-5.7041,-5.6191,-5.526,-5.5034,-5.5007,-5.4669,-5.3694,-5.2985,-5.2845,-5.1312,-5.072,-5.0738,-5.0868,-5.0801,-5.0113,-4.9309,-4.8414,-4.7627,-4.6507,-4.5901,-4.5803,-4.5665,-4.5283,-4.4806,-4.458,-4.4252,-4.3712,-4.3529,-4.2577,-4.0833,-3.9904,-3.8227,-3.6161,-3.5639,-3.5639,-3.5639,-3.5639,-3.5639,-3.5532,-3.4399,-3.3786,-3.3531,-3.3235,-3.2864,-3.1524,-3.1467,-3.1467,-3.1467,-3.1467,-3.1467,-3.1467,-3.1697,-3.1951,-3.2437,-3.2895,-3.3287,-3.3836,-3.4559,-3.5459,-3.644,-3.723,-3.7807,-3.819,-3.8744,-3.9053,-3.9186,-3.9231,-3.9289,-3.9339,-3.9552,-3.9554,-3.9403,-3.9157,-3.9076,-3.8782,-3.7573,-3.6582,-3.6159,-3.5459,-3.4449,-3.3741,-3.3019,-3.2179,-3.1823,-3.1694,-3.1252,-3.1055,-3.1015,-3.0293,-2.9496,-2.8748,-2.8086,-2.758,-2.6976,-2.6572,-2.6168,-2.5809,-2.505,-2.3887,-2.2729,-2.1643,-2.0904,-2.0245,-2.0003,-6.08,-6.08,-6.08,-6.08,-6.08,-6.08,-6.08,-6.0781,-6.0569,-5.9704,-5.8312,-5.7614,-5.6395,-5.5322,-5.4701,-5.4609,-5.4292,-5.3186,-5.246,-5.2417,-5.109,-5.0377,-5.0702,-5.0863,-5.0891,-5.0564,-4.9622,-4.873,-4.8174,-4.6916,-4.5968,-4.585,-4.5684,-4.5362,-4.5007,-4.4732,-4.4364,-4.3836,-4.356,-4.2541,-4.0962,-3.9653,-3.8209,-3.5864,-3.5639,-3.5639,-3.5639,-3.5639,-3.5639,-3.5532,-3.4847,-3.4186,-3.3582,-3.2718,-3.2007,-3.1582,-3.1467,-3.1467,-3.1467,-3.1467,-3.1467,-3.1625,-3.1946,-3.2351,-3.2826,-3.355,-3.3989,-3.4638,-3.5425,-3.634,-3.6981,-3.7667,-3.8204,-3.8715,-3.9026,-3.9264,-3.9505,-3.9731,-3.9861,-3.9861,-3.9963,-4.0022,-3.987,-3.9696,-3.952,-3.9024,-3.7935,-3.6917,-3.6288,-3.5312,-3.4192,-3.3556,-3.3045,-3.2213,-3.1449,-3.1389,-3.119,-3.0975,-3.074,-3.0123,-2.9271,-2.8352,-2.7705,-2.742,-2.728,-2.7085,-2.6572,-2.5989,-2.5097,-2.409,-2.2824,-2.1582,-2.1051,-2.0534,-2.0042,-6.08,-6.08,-6.08,-6.08,-6.08,-6.08,-6.08,-6.0723,-6.0319,-5.9302,-5.8011,-5.6987,-5.5825,-5.4678,-5.4255,-5.4255,-5.4005,-5.2767,-5.2295,-5.217,-5.0969,-5.0313,-5.0683,-5.0835,-5.0966,-5.0617,-4.9596,-4.8843,-4.8671,-4.6852,-4.6013,-4.5862,-4.5679,-4.5362,-4.4943,-4.4676,-4.428,-4.3849,-4.3508,-4.2596,-4.0648,-3.921,-3.7178,-3.6151,-3.5639,-3.5639,-3.5639,-3.5639,-3.5639,-3.547,-3.4958,-3.4479,-3.3921,-3.3166,-3.2256,-3.1682,-3.1582,-3.1524,-3.1524,-3.1524,-3.1625,-3.2003,-3.2144,-3.2604,-3.3307,-3.3958,-3.4545,-3.5491,-3.6163,-3.702,-3.7506,-3.8107,-3.8685,-3.9034,-3.9327,-3.9607,-3.9842,-4.012,-4.0212,-4.0248,-4.0267,-4.0285,-4.0321,-4.0119,-3.9906,-3.9221,-3.8249,-3.734,-3.6425,-3.5238,-3.4045,-3.3444,-3.2947,-3.2264,-3.1524,-3.1291,-3.119,-3.1015,-3.0576,-2.9908,-2.9361,-2.8591,-2.8042,-2.765,-2.751,-2.737,-2.6737,-2.6063,-2.5156,-2.4334,-2.3181,-2.218,-2.1479,-2.0868,-2.0283,-6.08,-6.08,-6.08,-6.08,-6.08,-6.08,-6.0734,-6.0537,-5.9975,-5.8834,-5.7415,-5.6336,-5.5163,-5.4093,-5.3796,-5.3832,-5.409,-5.248,-5.2039,-5.1991,-5.0767,-5.0202,-5.0625,-5.0805,-5.0898,-5.0778,-4.9449,-4.8779,-4.8496,-4.6877,-4.6033,-4.5852,-4.5699,-4.54,-4.4966,-4.4707,-4.4223,-4.3899,-4.3495,-4.2504,-4.0387,-3.8217,-3.6474,-3.5723,-3.5639,-3.5639,-3.5639,-3.5639,-3.5639,-3.5424,-3.5052,-3.4592,-3.4479,-3.3937,-3.3077,-3.2145,-3.1936,-3.1951,-3.1936,-3.1992,-3.2351,-3.2718,-3.2363,-3.3134,-3.3974,-3.4529,-3.4918,-3.626,-3.702,-3.7506,-3.7975,-3.8637,-3.8968,-3.9089,-3.9435,-3.9834,-3.9851,-4.0013,-4.0194,-4.0284,-4.0431,-4.0473,-4.0441,-4.0353,-4.0119,-3.9302,-3.8338,-3.7305,-3.6353,-3.5156,-3.4092,-3.3441,-3.2872,-3.2264,-3.1714,-3.1308,-3.123,-3.1151,-3.0576,-2.9908,-2.9451,-2.895,-2.8352,-2.771,-2.7595,-2.7365,-2.6752,-2.6258,-2.5655,-2.4843,-2.3679,-2.2666,-2.1759,-2.1028,-2.0497,-6.08,-6.08,-6.08,-6.08,-6.08,-6.08,-6.0553,-6.0198,-6.0026,-5.8851,-5.6965,-5.6365,-5.5231,-5.3999,-5.3422,-5.3318,-5.292,-5.1913,-5.1444,-5.1741,-5.0478,-5.0043,-5.0604,-5.0702,-5.0839,-5.0655,-4.9293,-4.8775,-4.8378,-4.6869,-4.5927,-4.5872,-4.5736,-4.5513,-4.5263,-4.4806,-4.4553,-4.4337,-4.3754,-4.2232,-3.9953,-3.8188,-3.6869,-3.596,-3.5639,-3.5639,-3.5639,-3.5639,-3.5639,-3.5515,-3.4988,-3.464,-3.4479,-3.3971,-3.3633,-3.3375,-3.3375,-3.3339,-3.3235,-3.313,-3.3166,-3.3463,-3.3645,-3.4267,-3.4708,-3.5562,-3.6191,-3.6949,-3.7542,-3.7869,-3.8217,-3.8766,-3.8927,-3.8858,-3.8861,-3.9199,-3.9394,-3.9698,-3.9912,-4.0335,-4.0469,-4.0489,-4.0473,-4.0406,-4.0226,-3.9334,-3.8403,-3.7318,-3.6229,-3.5008,-3.4156,-3.3499,-3.2903,-3.2316,-3.1914,-3.1504,-3.123,-3.119,-3.0699,-3.0038,-2.9629,-2.918,-2.8319,-2.781,-2.771,-2.7595,-2.72,-2.6722,-2.6213,-2.5354,-2.4275,-2.3077,-2.1935,-2.1286,-2.0858,-6.08,-6.08,-6.08,-6.08,-6.08,-6.08,-6.0553,-6.0065,-5.9569,-5.8344,-5.6664,-5.5884,-5.4799,-5.3632,-5.3272,-5.3206,-5.2858,-5.1536,-5.1232,-5.1399,-5.042,-4.9943,-5.0544,-5.0702,-5.0775,-5.0457,-4.9394,-4.8602,-4.8089,-4.709,-4.5988,-4.5881,-4.5751,-4.5524,-4.5381,-4.4853,-4.4501,-4.3957,-4.3008,-4.1468,-3.9757,-3.8286,-3.6922,-3.5718,-3.5639,-3.5639,-3.5639,-3.5639,-3.5639,-3.5577,-3.5253,-3.5191,-3.5161,-3.4911,-3.4769,-3.4752,-3.4752,-3.435,-3.3735,-3.3633,-3.3836,-3.3941,-3.4167,-3.4197,-3.4972,-3.6121,-3.7058,-3.7542,-3.7957,-3.8193,-3.8303,-3.8627,-3.8461,-3.8347,-3.836,-3.8769,-3.9073,-3.9281,-3.9585,-4.0065,-4.0469,-4.0431,-4.0392,-4.0338,-3.9991,-3.9109,-3.8064,-3.693,-3.5845,-3.4703,-3.4037,-3.3559,-3.2996,-3.2417,-3.2056,-3.1657,-3.1291,-3.119,-3.1151,-3.0518,-2.9995,-2.9361,-2.8543,-2.8008,-2.786,-2.7745,-2.7615,-2.7066,-2.6437,-2.5655,-2.483,-2.3775,-2.2725,-2.217,-2.1636,-6.0508,-6.0622,-6.0622,-6.0553,-6.0437,-6.0437,-6.0161,-5.9678,-5.8887,-5.7627,-5.6181,-5.5092,-5.4038,-5.3382,-5.3206,-5.3206,-5.3078,-5.1536,-5.1306,-5.1016,-5.0376,-4.9914,-5.0291,-5.0525,-5.0625,-5.0813,-4.9132,-4.8533,-4.8061,-4.7069,-4.6019,-4.5907,-4.5813,-4.5584,-4.5265,-4.4919,-4.458,-4.396,-4.2616,-4.116,-3.9669,-3.845,-3.7093,-3.611,-3.5639,-3.5639,-3.5639,-3.5639,-3.5639,-3.5577,-3.5577,-3.5515,-3.5487,-3.5424,-3.5424,-3.5424,-3.5424,-3.5098,-3.4496,-3.4301,-3.4399,-3.4523,-3.471,-3.5035,-3.595,-3.6927,-3.7649,-3.819,-3.8407,-3.8507,-3.8577,-3.8963,-3.8632,-3.8303,-3.7958,-3.8424,-3.8738,-3.8604,-3.9123,-4.0065,-4.0354,-4.0296,-4.0258,-4.02,-3.972,-3.886,-3.7772,-3.654,-3.545,-3.4375,-3.3918,-3.3476,-3.3166,-3.255,-3.2056,-3.1714,-3.1428,-3.119,-3.1134,-3.0878,-3.0251,-2.9673,-2.9012,-2.8559,-2.8076,-2.7845,-2.768,-2.7195,-2.6647,-2.6045,-2.5399,-2.4555,-2.3731,-2.3069,-2.2077,-5.976,-6.0132,-6.0132,-5.9935,-5.9526,-5.9492,-5.9248,-5.8764,-5.7958,-5.6825,-5.5386,-5.4154,-5.3401,-5.3206,-5.3206,-5.3188,-5.3078,-5.1536,-5.1175,-5.0689,-4.9874,-4.9636,-4.9993,-5.0272,-5.0342,-5.0413,-4.9087,-4.8445,-4.8097,-4.6869,-4.6149,-4.5913,-4.585,-4.5728,-4.5473,-4.5142,-4.4612,-4.3975,-4.2875,-4.1488,-4.0065,-3.8775,-3.7533,-3.6093,-3.5656,-3.5639,-3.5639,-3.5639,-3.5639,-3.5639,-3.5639,-3.5639,-3.5639,-3.5711,-3.5739,-3.5569,-3.582,-3.5576,-3.5296,-3.5244,-3.5453,-3.5616,-3.5848,-3.6173,-3.6934,-3.7485,-3.8168,-3.858,-3.859,-3.897,-3.9375,-3.9776,-3.8644,-3.7874,-3.7348,-3.7656,-3.7747,-3.745,-3.8123,-3.9681,-4.0181,-4.0008,-3.995,-3.9854,-3.9419,-3.8605,-3.6996,-3.5752,-3.5002,-3.4097,-3.3762,-3.3437,-3.3243,-3.2745,-3.2039,-3.1677,-3.1428,-3.1173,-3.1015,-3.0797,-3.0435,-2.9865,-2.9241,-2.8748,-2.8211,-2.7997,-2.77,-2.7225,-2.6782,-2.6497,-2.5893,-2.4932,-2.39,-2.2936,-2.1855,-5.9319,-5.9248,-5.9267,-5.9284,-5.9389,-5.9389,-5.8857,-5.7935,-5.7074,-5.5736,-5.4124,-5.3482,-5.3206,-5.3206,-5.317,-5.2913,-5.2362,-5.1371,-5.0858,-5.0248,-4.9612,-4.9461,-4.9853,-5.0135,-5.0256,-5.024,-4.9061,-4.8245,-4.8179,-4.6733,-4.6147,-4.5902,-4.5885,-4.5825,-4.5611,-4.5265,-4.4713,-4.4167,-4.3484,-4.247,-4.096,-3.9637,-3.8397,-3.7025,-3.5813,-3.5656,-3.5639,-3.5639,-3.5639,-3.5639,-3.5639,-3.5639,-3.5667,-3.5854,-3.5745,-3.5591,-3.5973,-3.6156,-3.589,-3.5998,-3.6207,-3.6521,-3.6615,-3.6809,-3.7344,-3.7228,-3.7587,-3.7988,-3.8254,-3.849,-3.8403,-3.8146,-3.7444,-3.6806,-3.6723,-3.7019,-3.7019,-3.6794,-3.7456,-3.9179,-3.9533,-3.9508,-3.9488,-3.9488,-3.8942,-3.8284,-3.6556,-3.5093,-3.4506,-3.4,-3.376,-3.3494,-3.3302,-3.2952,-3.2264,-3.1842,-3.1449,-3.1196,-3.0975,-3.0797,-3.0518,-2.9848,-2.9255,-2.8794,-2.82,-2.7722,-2.7319,-2.7145,-2.6931,-2.6752,-2.6078,-2.5088,-2.4038,-2.285,-2.1996,-5.8874,-5.8694,-5.8549,-5.8654,-5.8971,-5.8971,-5.8348,-5.7264,-5.6425,-5.5022,-5.3225,-5.3206,-5.3206,-5.317,-5.2876,-5.2601,-5.1848,-5.0971,-5.0357,-4.9751,-4.9264,-4.929,-4.9673,-4.9917,-4.9945,-4.991,-4.9009,-4.8133,-4.7752,-4.6532,-4.6072,-4.5956,-4.5952,-4.5909,-4.5684,-4.5227,-4.4707,-4.4308,-4.3806,-4.3096,-4.1505,-4.0664,-3.9288,-3.7982,-3.6827,-3.6163,-3.5912,-3.5739,-3.5639,-3.5639,-3.5639,-3.5639,-3.5739,-3.5822,-3.5734,-3.5833,-3.6129,-3.6559,-3.6224,-3.6394,-3.6847,-3.7214,-3.7376,-3.7229,-3.7089,-3.7091,-3.7717,-3.769,-3.7638,-3.7507,-3.754,-3.7617,-3.7263,-3.6841,-3.6618,-3.6792,-3.6764,-3.6686,-3.7564,-3.8663,-3.864,-3.851,-3.8642,-3.8546,-3.807,-3.7437,-3.6281,-3.5116,-3.4645,-3.4213,-3.3917,-3.3671,-3.3419,-3.2996,-3.2517,-3.2179,-3.1787,-3.1252,-3.1055,-3.0935,-3.0576,-2.9935,-2.93,-2.8748,-2.809,-2.7334,-2.6879,-2.6666,-2.6826,-2.7115,-2.6078,-2.4881,-2.3833,-2.2752,-2.2586,-5.8307,-5.8632,-5.8176,-5.8033,-5.805,-5.8051,-5.7537,-5.6607,-5.5772,-5.4632,-5.328,-5.3206,-5.3206,-5.3041,-5.2546,-5.205,-5.1555,-5.0398,-4.9632,-4.9321,-4.8808,-4.8919,-4.9265,-4.9561,-4.9588,-4.9218,-4.8547,-4.7788,-4.7129,-4.6337,-4.604,-4.6033,-4.6022,-4.5963,-4.5744,-4.5044,-4.4631,-4.4474,-4.3899,-4.2962,-4.2014,-4.1431,-4.0137,-3.9057,-3.7807,-3.7099,-3.6679,-3.6131,-3.6002,-3.5941,-3.5898,-3.5898,-3.5941,-3.5968,-3.5794,-3.5392,-3.6098,-3.6317,-3.6074,-3.6766,-3.7435,-3.7837,-3.7966,-3.7824,-3.7838,-3.7877,-3.77,-3.7335,-3.7241,-3.7477,-3.7728,-3.7765,-3.7154,-3.6804,-3.6548,-3.6448,-3.6417,-3.6382,-3.7142,-3.785,-3.7519,-3.7185,-3.7448,-3.7514,-3.7074,-3.6454,-3.5701,-3.5114,-3.4693,-3.4284,-3.3935,-3.3752,-3.3447,-3.3027,-3.2631,-3.2484,-3.2109,-3.1524,-3.1151,-3.1015,-3.0797,-3.0309,-2.9613,-2.881,-2.7859,-2.7055,-2.6497,-2.6093,-2.6183,-2.6123,-2.551,-2.4447,-2.3419,-2.283,-2.2815,-5.8097,-5.8157,-5.75,-5.7207,-5.7207,-5.7207,-5.6473,-5.5207,-5.4381,-5.3702,-5.3298,-5.3206,-5.3206,-5.2949,-5.2325,-5.1665,-5.1022,-5.0251,-4.9444,-4.8728,-4.8416,-4.8677,-4.9011,-4.934,-4.9299,-4.8907,-4.8316,-4.7644,-4.6959,-4.6213,-4.5968,-4.5967,-4.6007,-4.5909,-4.5757,-4.5342,-4.5118,-4.4657,-4.4243,-4.3769,-4.2809,-4.1996,-4.1178,-4.0287,-3.8968,-3.8038,-3.7629,-3.694,-3.6539,-3.6522,-3.6522,-3.6522,-3.6643,-3.6706,-3.6478,-3.6025,-3.6414,-3.717,-3.7394,-3.7985,-3.8474,-3.8549,-3.8396,-3.8082,-3.7493,-3.7064,-3.6882,-3.6743,-3.6591,-3.6786,-3.703,-3.6593,-3.6135,-3.6197,-3.6064,-3.6053,-3.6033,-3.5944,-3.6277,-3.6956,-3.7017,-3.7278,-3.754,-3.6929,-3.6386,-3.6136,-3.5534,-3.5096,-3.4674,-3.4213,-3.3842,-3.3716,-3.3447,-3.3057,-3.2695,-3.2517,-3.2144,-3.1507,-3.1252,-3.1151,-3.0878,-3.0477,-2.9935,-2.9164,-2.7919,-2.6733,-2.6138,-2.5588,-2.5226,-2.4896,-2.4567,-2.4313,-2.3615,-2.329,-2.3319,-5.7978,-5.7886,-5.7134,-5.6638,-5.6418,-5.6381,-5.5592,-5.4399,-5.3573,-5.3206,-5.3206,-5.3206,-5.3004,-5.2619,-5.194,-5.1132,-5.0343,-4.9517,-4.9022,-4.8324,-4.8324,-4.8568,-4.8897,-4.9109,-4.8815,-4.8452,-4.8018,-4.7434,-4.641,-4.6035,-4.5939,-4.5982,-4.5966,-4.5928,-4.5782,-4.5517,-4.5118,-4.4657,-4.4299,-4.3986,-4.3324,-4.272,-4.2086,-4.1307,-4.0183,-3.8933,-3.8467,-3.7856,-3.7228,-3.7228,-3.7228,-3.721,-3.7377,-3.7309,-3.7122,-3.6717,-3.7071,-3.7958,-3.8532,-3.882,-3.92,-3.94,-3.8874,-3.8215,-3.7637,-3.7565,-3.6878,-3.6449,-3.5996,-3.6115,-3.6319,-3.5785,-3.5813,-3.5888,-3.5926,-3.5923,-3.6289,-3.623,-3.6523,-3.7109,-3.7408,-3.7644,-3.7481,-3.6554,-3.5795,-3.5645,-3.5444,-3.5059,-3.4734,-3.433,-3.3928,-3.3743,-3.3606,-3.3314,-3.2903,-3.2517,-3.2039,-3.1507,-3.1351,-3.1252,-3.0797,-3.0393,-2.9951,-2.9424,-2.81,-2.6814,-2.5771,-2.5123,-2.4612,-2.4373,-2.4208,-2.3924,-2.364,-2.3595,-2.3595,-5.7978,-5.785,-5.7097,-5.6271,-5.5611,-5.5464,-5.5005,-5.4289,-5.3537,-5.3206,-5.3206,-5.3151,-5.2747,-5.1958,-5.1169,-5.0398,-4.9664,-4.882,-4.8471,-4.8343,-4.8324,-4.8586,-4.8744,-4.8889,-4.8445,-4.7884,-4.7449,-4.7066,-4.5815,-4.5796,-4.5929,-4.6045,-4.6067,-4.5982,-4.5781,-4.5526,-4.5104,-4.4762,-4.4373,-4.4046,-4.3568,-4.3387,-4.2862,-4.2172,-4.1142,-4.0112,-3.9319,-3.8385,-3.7702,-3.745,-3.7396,-3.736,-3.7342,-3.7285,-3.7298,-3.7441,-3.7991,-3.8573,-3.915,-3.9377,-3.9759,-3.9925,-3.9853,-3.8994,-3.8379,-3.8182,-3.7486,-3.6675,-3.6172,-3.6006,-3.5877,-3.5878,-3.5888,-3.5938,-3.5971,-3.6289,-3.6836,-3.7129,-3.748,-3.7832,-3.8027,-3.7985,-3.7327,-3.6466,-3.5886,-3.5797,-3.5656,-3.5202,-3.487,-3.4733,-3.4325,-3.3928,-3.3797,-3.3606,-3.3196,-3.2745,-3.2213,-3.1733,-3.1449,-3.1312,-3.0804,-3.0477,-3.0208,-2.9534,-2.8206,-2.6871,-2.5511,-2.458,-2.3893,-2.3729,-2.3849,-2.3789,-2.3595,-2.3595,-2.3595,-5.7666,-5.7079,-5.6271,-5.5482,-5.4711,-5.4142,-5.3739,-5.3518,-5.328,-5.3206,-5.317,-5.2582,-5.2197,-5.1867,-5.0563,-4.9903,-4.9315,-4.8802,-4.8453,-4.8324,-4.8324,-4.8364,-4.8513,-4.8612,-4.8084,-4.7578,-4.7143,-4.6746,-4.589,-4.5738,-4.5938,-4.6078,-4.6093,-4.5997,-4.587,-4.5686,-4.5321,-4.4973,-4.4594,-4.4233,-4.3881,-4.3646,-4.3358,-4.2873,-4.2111,-4.1152,-4.0266,-3.9431,-3.8803,-3.8325,-3.8462,-3.8529,-3.8559,-3.8738,-3.8801,-3.8122,-3.8328,-3.8593,-3.9086,-3.964,-4.0043,-4.0104,-3.9908,-3.9532,-3.8955,-3.8453,-3.7906,-3.7074,-3.6484,-3.634,-3.6192,-3.6153,-3.6057,-3.5991,-3.6172,-3.668,-3.7207,-3.7637,-3.7988,-3.8359,-3.8555,-3.8408,-3.7672,-3.682,-3.6317,-3.6161,-3.5863,-3.5376,-3.5034,-3.4889,-3.4632,-3.4213,-3.3968,-3.3813,-3.3504,-3.3027,-3.25,-3.1986,-3.1733,-3.1449,-3.1179,-3.0861,-3.0601,-2.9641,-2.821,-2.6585,-2.4985,-2.4222,-2.3834,-2.3625,-2.3684,-2.364,-2.3595,-2.3595,-2.3595,-5.7244,-5.6675,-5.5574,-5.4656,-5.3922,-5.3427,-5.3206,-5.3206,-5.3206,-5.3078,-5.2674,-5.2234,-5.1646,-5.0894,-5.0013,-4.9407,-4.8985,-4.86,-4.8324,-4.8324,-4.8324,-4.8306,-4.8402,-4.818,-4.7564,-4.7065,-4.6569,-4.6025,-4.5611,-4.5711,-4.5929,-4.6008,-4.6052,-4.6053,-4.5969,-4.5842,-4.5692,-4.534,-4.4998,-4.4638,-4.4233,-4.3881,-4.3758,-4.3531,-4.2857,-4.1952,-4.1144,-4.0336,-3.959,-3.8992,-3.9063,-3.9178,-3.9282,-3.9557,-3.97,-3.9136,-3.9279,-3.9487,-3.9813,-4.0095,-4.0241,-4.0082,-3.9746,-3.9335,-3.8927,-3.8402,-3.7829,-3.7176,-3.6941,-3.6709,-3.657,-3.6435,-3.6247,-3.6074,-3.6562,-3.707,-3.7519,-3.7969,-3.8379,-3.8809,-3.8924,-3.8897,-3.8315,-3.7417,-3.671,-3.6479,-3.608,-3.5532,-3.5223,-3.507,-3.4813,-3.4486,-3.4242,-3.4031,-3.367,-3.3343,-3.2885,-3.2382,-3.1951,-3.1696,-3.1487,-3.1106,-3.0664,-2.956,-2.8152,-2.6675,-2.5328,-2.4551,-2.4073,-2.3909,-2.3744,-2.3684,-2.3655,-2.3595,-2.3595,-5.6767,-5.6547,-5.4987,-5.3922,-5.328,-5.3225,-5.3109,-5.3011,-5.2877,-5.265,-5.2087,-5.1752,-5.0831,-4.9955,-4.9328,-4.8888,-4.8616,-4.8361,-4.8324,-4.8324,-4.8324,-4.8324,-4.8086,-4.7536,-4.7122,-4.6382,-4.581,-4.5504,-4.539,-4.5545,-4.5839,-4.5899,-4.603,-4.6073,-4.606,-4.5981,-4.5841,-4.566,-4.5342,-4.4998,-4.4638,-4.429,-4.4028,-4.3855,-4.3058,-4.2046,-4.1254,-4.0456,-3.9716,-3.9333,-3.9238,-3.9408,-3.9712,-3.9943,-4.0024,-4.0117,-4.014,-4.0256,-4.0359,-4.0563,-4.0283,-4.0033,-3.9634,-3.9331,-3.8994,-3.8222,-3.7545,-3.7379,-3.712,-3.697,-3.6829,-3.7266,-3.7344,-3.6953,-3.6992,-3.7324,-3.7617,-3.8379,-3.9355,-3.9719,-3.9855,-3.9764,-3.9416,-3.8538,-3.742,-3.6983,-3.6211,-3.5599,-3.5547,-3.5392,-3.5133,-3.4827,-3.4508,-3.4284,-3.3917,-3.357,-3.3314,-3.2854,-3.2348,-3.1915,-3.166,-3.1253,-3.0723,-2.9658,-2.8524,-2.727,-2.6041,-2.5264,-2.4595,-2.4313,-2.4118,-2.3864,-2.3789,-2.3908,-2.3655,-5.6436,-5.5739,-5.4161,-5.3371,-5.3225,-5.3206,-5.251,-5.1538,-5.1538,-5.165,-5.1632,-5.0302,-4.9513,-4.9322,-4.8439,-4.8038,-4.8263,-4.8075,-4.8267,-4.8267,-4.8267,-4.8119,-4.8104,-4.7333,-4.6797,-4.6294,-4.5693,-4.5087,-4.5167,-4.5481,-4.5813,-4.5918,-4.6008,-4.6085,-4.6111,-4.6036,-4.5971,-4.5832,-4.5645,-4.536,-4.4995,-4.4688,-4.4409,-4.4175,-4.3512,-4.2651,-4.1846,-4.1049,-4.0265,-3.9674,-3.9772,-3.9984,-4.0285,-4.0372,-4.0446,-4.0544,-4.0597,-4.0668,-4.0743,-4.0779,-4.0571,-4.0337,-4.0019,-3.9682,-3.9087,-3.8025,-3.7476,-3.7448,-3.7324,-3.7187,-3.7344,-3.7969,-3.832,-3.7832,-3.7559,-3.7734,-3.791,-3.9043,-4.0273,-4.0541,-4.0723,-4.0547,-4.0233,-3.9461,-3.8372,-3.7318,-3.623,-3.567,-3.5939,-3.5912,-3.5692,-3.5363,-3.4866,-3.4542,-3.4234,-3.3858,-3.3597,-3.3225,-3.2695,-3.2298,-3.188,-3.1247,-3.0594,-2.9985,-2.9001,-2.7869,-2.6835,-2.5967,-2.5372,-2.5104,-2.494,-2.4874,-2.482,-2.4881,-2.4236,-5.5185,-5.4851,-5.3361,-5.2707,-5.2607,-5.2055,-5.1326,-5.0522,-4.9858,-4.9757,-5.0009,-4.9053,-4.85,-4.8418,-4.7547,-4.747,-4.7797,-4.7494,-4.7838,-4.8075,-4.798,-4.7821,-4.7476,-4.7003,-4.6176,-4.5626,-4.5084,-4.4684,-4.4919,-4.5246,-4.5542,-4.582,-4.5967,-4.6039,-4.6093,-4.6095,-4.6059,-4.5948,-4.5856,-4.566,-4.5342,-4.5061,-4.483,-4.4597,-4.4134,-4.3253,-4.2316,-4.1523,-4.0839,-4.022,-4.0101,-4.0315,-4.0492,-4.0549,-4.0636,-4.071,-4.0752,-4.077,-4.085,-4.0863,-4.0758,-4.0452,-4.0184,-3.9756,-3.9051,-3.8151,-3.8092,-3.8008,-3.7461,-3.7246,-3.8027,-3.8691,-3.8652,-3.832,-3.9004,-3.9609,-3.9707,-4.0195,-4.0801,-4.0917,-4.1011,-4.097,-4.0567,-3.9938,-3.9012,-3.8689,-3.7459,-3.6716,-3.6795,-3.671,-3.6427,-3.6153,-3.5818,-3.5359,-3.5102,-3.45,-3.3847,-3.3478,-3.3057,-3.2466,-3.1916,-3.1145,-3.0465,-3.0059,-2.9535,-2.8688,-2.7694,-2.6918,-2.6608,-2.6428,-2.6221,-2.6084,-2.5964,-2.5804,-2.5318,-5.3494,-5.3762,-5.2513,-5.188,-5.167,-5.0574,-4.9811,-4.9354,-4.8222,-4.747,-4.7466,-4.7936,-4.7362,-4.7015,-4.6801,-4.7088,-4.715,-4.6892,-4.7306,-4.7614,-4.7614,-4.7357,-4.6882,-4.6324,-4.5534,-4.4863,-4.4313,-4.4429,-4.4701,-4.5039,-4.5396,-4.5711,-4.5861,-4.5959,-4.6062,-4.6113,-4.6085,-4.6053,-4.5966,-4.5856,-4.5641,-4.5417,-4.5244,-4.5033,-4.4672,-4.3748,-4.2721,-4.1897,-4.1328,-4.0807,-4.0392,-4.0552,-4.0641,-4.0699,-4.0762,-4.0805,-4.0836,-4.0908,-4.0972,-4.1023,-4.0689,-4.033,-4.0117,-3.9706,-3.9042,-3.8787,-3.8728,-3.8476,-3.793,-3.7988,-3.8769,-3.9219,-3.9121,-3.9082,-4.0078,-4.0801,-4.0859,-4.0996,-4.1133,-4.1191,-4.1191,-4.1191,-4.082,-4.0215,-3.9819,-3.9552,-3.9146,-3.8607,-3.8122,-3.7928,-3.766,-3.7513,-3.729,-3.6787,-3.6,-3.5207,-3.4365,-3.3697,-3.323,-3.2595,-3.1951,-3.1247,-3.0735,-3.0473,-2.9865,-2.9256,-2.8793,-2.8142,-2.7929,-2.7604,-2.6845,-2.6503,-2.6734,-2.6581,-2.6397,-5.2195,-5.1708,-5.1396,-5.0936,-5.0421,-5.0021,-4.8992,-4.7439,-4.7056,-4.6325,-4.5663,-4.5891,-4.6052,-4.6365,-4.5915,-4.6063,-4.6524,-4.6288,-4.6383,-4.6682,-4.6936,-4.6765,-4.6273,-4.5512,-4.4894,-4.4331,-4.3966,-4.425,-4.4501,-4.4877,-4.5304,-4.5736,-4.5809,-4.592,-4.6055,-4.6104,-4.6113,-4.6075,-4.605,-4.5979,-4.5839,-4.567,-4.5547,-4.5227,-4.4747,-4.3885,-4.3022,-4.2237,-4.145,-4.0899,-4.0668,-4.0733,-4.077,-4.0796,-4.085,-4.0925,-4.0944,-4.0994,-4.1069,-4.1074,-4.0759,-4.0779,-4.0576,-4.0307,-3.979,-3.9487,-3.9443,-3.9427,-3.9082,-3.9121,-3.9687,-4.0,-4.0019,-3.9785,-4.0273,-4.0332,-4.0371,-4.082,-4.1172,-4.1191,-4.1191,-4.1191,-4.1113,-4.0547,-4.0051,-3.973,-3.9328,-3.8856,-3.878,-3.8791,-3.881,-3.8736,-3.8608,-3.743,-3.6308,-3.5713,-3.4958,-3.4168,-3.3338,-3.2595,-3.1933,-3.1393,-3.0948,-3.0737,-3.0486,-2.9989,-2.956,-2.9293,-2.8865,-2.8407,-2.7242,-2.6738,-2.7222,-2.7566,-2.7501]},{"header":{"parameterUnit":"m.s-1","parameterCategory":1,"la1":31.0,"la2":29.5877,"lo1":-88.7671,"lo2":-86.6584,"dy":0.0162,"dx":0.0185,"nx":115,"ny":88,"refTime":"2023-08-02T18:00:00:Z","depth":0,"parameterNumber":3,"parameterNumberName":"V-component_of_WINDS"},"data":[0.0,0.0,0.0,0.0,0.0,0.0,0.0,0.0,0.0,0.0,0.0,0.0,0.0,0.0,0.0,0.0,0.0,0.0,0.0,0.0,0.0,0.0,0.0,0.0,0.0,0.0,0.0,0.0,0.0,0.0,0.0,0.0,0.0,0.0,0.0,0.0,0.0,0.0,0.0,0.0,0.0,0.0,0.0,0.0,0.0,0.0,0.0,0.0,0.0,0.0,0.0,0.0,0.0,0.0,0.0,0.0,0.0,0.0,0.0,0.0,0.0,0.0,0.0,0.0,0.0,0.0,0.0,0.0,0.0,0.0,0.0,0.0,0.0,0.0,0.0,0.0,0.0,0.0,0.0,0.0,0.0,0.0,0.0,0.0,0.0,0.0,0.0,0.0,0.0,0.0,0.0,0.0,0.0,0.0,0.0,0.0,0.0,0.0,0.0,0.0,0.0,0.0,0.0,0.0,0.0,0.0,0.0,0.0,0.0,0.0,0.0,0.0,0.0,0.0,0.0,0.0,0.0,0.0,0.0,0.0,0.0,0.0,0.0,0.0,0.0,0.0,0.0,0.0,0.0,0.0,0.0,0.0,0.0,0.0,0.0,0.0,0.0,0.0,0.0,0.0,0.0,0.0,0.0,0.0,0.0,0.0,0.0,0.0,0.0,0.0,0.0,0.0,0.0,0.0,0.0,0.0,0.0,0.0,0.0,0.0,0.0,0.0,0.0,0.0,0.0,0.0,0.0,0.0,0.0,0.0,0.0,0.0,0.0,0.0,0.0,0.0,0.0,0.0,0.0,0.0,0.0,0.0,0.0,0.0,0.0,0.0,0.0,0.0,0.0,0.0,0.0,0.0,0.0,0.0,0.0,0.0,0.0,0.0,0.0,0.0,0.0,0.0,0.0,0.0,0.0,0.0,0.0,0.0,0.0,0.0,0.0,0.0,0.0,0.0,0.0,0.0,0.0,0.0,0.0,0.0,0.0,0.0,0.0,0.0,0.0,0.0,0.0,0.0,0.0,0.0,0.0,0.0,0.0,0.0,0.0,0.0,0.0,0.0,0.0,0.0,0.0,0.0,0.0,0.0,0.0,0.0,0.0,0.0,0.0,0.0,0.0,0.0,0.0,0.0,0.0,0.0,0.0,0.0,0.0,0.0,0.0,0.0,0.0,0.0,0.0,0.0,0.0,0.0,0.0,0.0,0.0,0.0,0.0,0.0,0.0,0.0,0.0,0.0,0.0,0.0,0.0,0.0,0.0,0.0,0.0,0.0,0.0,0.0,0.0,0.0,0.0,0.0,0.0,0.0,0.0,0.0,0.0,0.0,0.0,0.0,0.0,0.0,0.0,0.0,0.0,0.0,0.0,0.0,0.0,0.0,0.0,0.0,0.0,0.0,0.0,0.0,0.0,0.0,0.0,0.0,0.0,0.0,0.0,0.0,0.0,0.0,0.0,0.0,0.0,0.0,0.0,0.0,0.0,0.0,0.0,0.0,0.0,0.0,0.0,0.0,0.0,0.0,0.0,0.0,0.0,0.0,0.0,0.0,0.0,0.0,0.0,0.0,0.0,0.0,0.0,0.0,0.0,0.0,0.0,0.0,0.0,0.0,0.0,0.0,0.0,0.0,0.0,0.0,0.0,0.0,0.0,0.0,0.0,0.0,0.0,0.0,0.0,0.0,0.0,0.0,0.0,0.0,0.0,0.0,0.0,0.0,0.0,0.0,0.0,0.0,0.0,0.0,0.0,0.0,0.0,0.0,0.0,0.0,0.0,0.0,0.0,0.0,0.0,0.0,0.0,0.0,0.0,0.0,0.0,0.0,0.0,0.0,0.0,0.0,0.0,0.0,0.0,0.0,0.0,0.0,0.0,0.0,0.0,0.0,0.0,0.0,0.0,0.0,0.0,0.0,0.0,0.0,0.0,0.0,0.0,0.0,0.0,0.0,0.0,0.0,0.0,0.0,0.0,0.0,0.0,0.0,0.0,0.0,0.0,0.0,0.0,0.0,0.0,0.0,0.0,0.0,0.0,0.0,0.0,0.0,0.0,0.0,0.0,0.0,0.0,0.0,0.0,0.0,0.0,0.0,0.0,0.0,0.0,0.0,0.0,0.0,0.0,0.0,0.0,0.0,0.0,0.0,0.0,0.0,0.0,0.0,0.0,0.0,0.0,0.0,0.0,0.0,0.0,0.0,0.0,0.0,0.0,0.0,0.0,0.0,0.0,0.0,0.0,0.0,0.0,0.0,0.0,0.0,0.0,0.0,0.0,0.0,0.0,0.0,0.0,0.0,0.0,0.0,0.0,0.0,0.0,0.0,0.0,0.0,0.0,0.0,0.0,0.0,0.0,0.0,0.0,0.0,0.0,0.0,0.0,0.0,0.0,0.0,0.0,0.0,0.0,0.0,0.0,0.0,0.0,0.0,0.0,0.0,0.0,0.0,0.0,0.0,0.0,0.0,0.0,0.0,0.0,0.0,0.0,0.0,0.0,0.0,0.0,0.0,0.0,0.0,0.0,0.0,0.0,0.0,0.0,0.0,0.0,0.0,0.0,0.0,0.0,0.0,0.0,0.0,0.0,0.0,0.0,0.0,0.0,0.0,0.0,0.0,0.0,0.0,0.0,0.0,0.0,0.0,0.0,0.0,0.0,0.0,0.0,0.0,0.0,0.0,0.0,0.0,0.0,0.0,0.0,0.0,0.0,0.0,0.0,0.0,0.0,0.0,0.0,0.0,0.0,0.0,0.0,0.0,0.0,0.0,0.0,0.0,0.0,0.0,0.0,0.0,0.0,0.0,0.0,0.0,0.0,0.0,0.0,0.0,0.0,0.0,0.0,0.0,0.0,0.0,0.0,0.0,0.0,0.0,0.0,0.0,0.0,0.0,0.0,0.0,0.0,0.0,0.0,0.0,0.0,0.0,0.0,0.0,0.0,0.0,0.0,0.0,0.0,0.0,0.0,0.0,0.0,0.0,0.0,0.0,0.0,0.0,0.0,0.0,0.0,0.0,0.0,0.0,0.0,0.0,0.0,0.0,0.0,0.0,0.0,0.0,0.0,0.0,0.0,0.0,0.0,0.0,0.0,0.0,0.0,0.0,0.0,0.0,0.0,0.0,0.0,0.0,0.0,0.0,0.0,0.0,0.0,0.0,0.0,0.0,0.0,0.0,0.0,0.0,0.0,0.0,0.0,0.0,0.0,0.0,0.0,0.0,0.0,0.0,0.0,0.0,0.0,0.0,0.0,0.0,0.0,0.0,0.0,0.0,0.0,0.0,0.0,0.0,0.0,0.0,0.0,0.0,0.0,0.0,0.0,0.0,0.0,0.0,0.0,0.0,0.0,0.0,0.0,0.0,0.0,0.0,0.0,0.0,0.0,0.0,0.0,0.0,0.0,0.0,0.0,0.0,0.0,0.0,0.0,0.0,0.0,0.0,0.0,0.0,0.0,0.0,0.0,0.0,0.0,0.0,0.0,0.0,0.0,0.0,0.0,0.0,0.0,0.0,0.0,0.0,0.0,0.0,0.0,0.0,0.0,0.0,0.0,0.0,0.0,0.0,0.0,0.0,0.0,0.0,0.0,0.0,0.0,0.0,0.0,0.0,0.0,0.0,0.0,0.0,0.0,0.0,0.0,0.0,0.0,0.0,0.0,0.0,0.0,0.0,0.0,0.0,0.0,0.0,0.0,0.0,0.0,0.0,0.0,0.0,0.0,0.0,0.0,0.0,0.0,0.0,0.0,0.0,0.0,0.0,0.0,0.0,0.0,0.0,0.0,0.0,0.0,0.0,0.0,0.0,0.0,0.0,0.0,0.0,0.0,0.0,0.0,0.0,0.0,0.0,0.0,0.0,0.0,0.0,0.0,0.0,0.0,0.0,0.0,0.0,0.0,0.0,0.0,0.0,0.0,0.0,0.0,0.0,0.0,0.0,0.0,0.0,0.0,0.0,0.0,0.0,0.0,0.0,0.0,0.0,0.0,0.0,0.0,0.0,0.0,0.0,0.0,0.0,0.0,0.0,0.0,0.0,0.0,0.0,0.0,0.0,0.0,0.0,0.0,0.0,0.0,0.0,0.0,0.0,0.0,0.0,0.0,0.0,0.0,0.0,0.0,0.0,0.0,0.0,0.0,0.0,0.0,0.0,0.0,0.0,0.0,0.0,0.0,0.0,0.0,0.0,0.0,0.0,0.0,0.0,0.0,0.0,0.0,0.0,0.0,0.0,0.0,0.0,0.0,0.0,0.0,0.0,0.0,0.0,0.0,0.0,0.0,0.0,0.0,0.0,-0.6992,0.0,0.0,0.0,0.0,0.0,0.0,0.0,0.0,0.0,0.0,0.0,0.0,0.0,0.0,0.0,0.0,0.0,0.0,0.0,0.0,0.0,0.0,0.0,0.0,0.0,0.0,0.0,0.0,0.0,0.0,0.0,0.0,0.0,0.0,0.0,0.0,0.0,0.0,0.0,0.0,0.0,0.0,0.0,0.0,0.0,0.0,0.0,0.0,0.0,0.0,0.0,0.0,0.0,0.0,0.0,0.0,0.0,0.0,0.0,0.0,0.0,0.0,0.0,0.0,0.0,0.0,0.0,0.0,0.0,0.0,0.0,0.0,0.0,0.0,0.0,0.0,0.0,0.0,0.0,0.0,0.0,0.0,0.0,0.0,0.0,0.0,0.0,0.0,0.0,0.0,0.0,0.0,0.0,0.0,0.0,0.0,0.0,0.0,0.0,0.0,0.0,0.0,0.0,0.0,0.0,0.0,0.0,0.0,0.0,0.0,-0.8096,-0.7888,-0.7796,-0.7502,-0.7005,0.0,0.0,0.0,0.0,0.0,0.0,0.0,0.0,0.0,0.0,0.0,0.0,0.0,0.0,0.0,0.0,0.0,0.0,0.0,0.0,0.0,0.0,0.0,0.0,0.0,0.0,0.0,0.0,0.0,0.0,0.0,0.0,0.0,0.0,0.0,0.0,0.0,0.0,0.0,0.0,0.0,0.0,0.0,0.0,0.0,0.0,0.0,0.0,0.0,0.0,0.0,0.0,0.0,0.0,0.0,0.0,0.0,0.0,0.0,0.0,0.0,0.0,0.0,0.0,0.0,0.0,0.0,0.0,0.0,0.0,0.0,0.0,0.0,0.0,0.0,0.0,0.0,0.0,0.0,0.0,0.0,0.0,0.0,0.0,0.0,0.0,0.0,0.0,0.0,0.0,0.0,0.0,0.0,0.0,0.0,0.0,0.0,0.0,0.0,0.0,0.0,0.0,0.0,0.0,0.0,0.0,0.0,0.0,0.0,0.0,0.0,0.0,-0.823,-0.7895,-0.7361,0.0,0.0,0.0,0.0,0.0,0.0,0.0,0.0,0.0,0.0,0.0,0.0,0.0,0.0,0.0,0.0,0.0,0.0,0.0,0.0,0.0,0.0,0.0,0.0,0.0,0.0,0.0,0.0,0.0,0.0,0.0,0.0,0.0,0.0,0.0,0.0,0.0,0.0,0.0,0.0,0.0,0.0,0.0,0.0,0.0,0.0,0.0,0.0,0.0,0.0,0.0,0.0,0.0,0.0,0.0,0.0,0.0,0.0,0.0,0.0,0.0,0.0,0.0,0.0,0.0,0.0,0.0,0.0,0.0,0.0,0.0,0.0,0.0,0.0,0.0,0.0,0.0,0.0,0.0,0.0,0.0,0.0,0.0,0.0,0.0,0.0,0.0,0.0,0.0,0.0,0.0,0.0,0.0,0.0,0.0,0.0,0.0,0.0,0.0,0.0,0.0,0.0,0.0,0.0,0.0,0.0,0.0,0.0,0.0,0.0,-0.8287,-0.9037,-0.9057,0.0,-0.831,0.0,0.0,0.0,0.0,0.0,0.0,0.0,0.0,0.0,0.0,0.0,0.0,0.0,0.0,0.0,0.0,0.0,0.0,0.0,0.0,0.0,0.0,0.0,0.0,0.0,0.0,0.0,0.0,0.0,0.0,0.0,0.0,0.0,0.0,0.0,0.0,0.0,0.0,0.0,0.0,0.0,0.0,0.0,0.0,0.0,0.0,0.0,0.0,0.0,0.0,0.0,0.0,0.0,0.0,0.0,0.0,0.0,0.0,0.0,0.0,0.0,0.0,0.0,0.0,0.0,0.0,0.0,0.0,0.0,0.0,0.0,0.0,0.0,0.0,0.0,0.0,0.0,0.0,0.0,0.0,0.0,0.0,0.0,0.0,0.0,0.0,0.0,0.0,0.0,0.0,0.0,0.0,0.0,0.0,0.0,0.0,0.0,0.0,0.0,0.0,0.0,0.0,0.0,0.0,0.0,0.0,0.0,0.0,0.0,0.0,-0.9058,-0.9176,-0.8905,-0.853,0.0,0.0,0.0,0.0,0.0,0.0,0.0,0.0,0.0,0.0,0.0,0.0,0.0,0.0,0.0,0.0,0.0,0.0,0.0,0.0,0.0,0.0,0.0,0.0,0.0,0.0,0.0,0.0,0.0,0.0,0.0,0.0,0.0,0.0,0.0,0.0,0.0,0.0,0.0,0.0,0.0,0.0,0.0,0.0,0.0,0.0,0.0,0.0,0.0,0.0,0.0,0.0,0.0,0.0,0.0,0.0,0.0,0.0,0.0,0.0,0.0,0.0,0.0,0.0,0.0,0.0,0.0,0.0,0.0,0.0,0.0,0.0,0.0,0.0,0.0,0.0,0.0,0.0,0.0,0.0,0.0,0.0,0.0,0.0,0.0,0.0,0.0,0.0,0.0,0.0,0.0,0.0,0.0,0.0,0.0,0.0,0.0,0.0,0.0,0.0,0.0,0.0,0.0,0.0,0.0,0.0,0.0,0.0,0.0,0.0,-0.9406,-0.9532,-0.9459,-0.8998,-0.8484,-0.7949,0.0,0.0,0.0,0.0,0.0,0.0,0.0,0.0,0.0,0.0,0.0,0.0,0.0,0.0,0.0,0.0,0.0,0.0,0.0,0.0,0.0,0.0,0.0,0.0,0.0,0.0,0.0,0.0,0.0,0.0,0.0,0.0,0.0,0.0,0.0,0.0,0.0,0.0,0.0,0.0,0.0,0.0,0.0,0.0,0.0,0.0,0.0,0.0,0.0,0.0,0.0,0.0,0.0,0.0,0.0,0.0,0.0,0.0,0.0,0.0,0.0,0.0,0.0,0.0,0.0,0.0,0.0,0.0,0.0,0.0,0.0,0.0,0.0,0.0,0.0,0.0,0.0,0.0,0.0,0.0,0.0,0.0,0.0,0.0,0.0,0.0,0.0,0.0,0.0,0.0,0.0,0.0,0.0,0.0,0.0,0.0,0.0,0.0,0.0,0.0,0.0,0.0,0.0,0.0,0.0,0.0,0.0,0.0,-1.0681,-0.98,-0.9469,-1.0067,-0.978,-0.9092,0.0,0.0,0.0,0.0,0.0,0.0,0.0,0.0,0.0,0.0,0.0,0.0,0.0,0.0,0.0,0.0,0.0,0.0,0.0,0.0,0.0,0.0,0.0,0.0,0.0,0.0,0.0,0.0,0.0,0.0,0.0,0.0,0.0,0.0,0.0,0.0,0.0,0.0,0.0,0.0,0.0,0.0,0.0,0.0,0.0,0.0,0.0,0.0,0.0,0.0,0.0,0.0,0.0,0.0,0.0,0.0,0.0,0.0,0.0,0.0,0.0,0.0,0.0,0.0,0.0,0.0,0.0,0.0,0.0,0.0,0.0,0.0,0.0,0.0,0.0,0.0,0.0,0.0,0.0,0.0,0.0,0.0,0.0,0.0,0.0,0.0,0.0,0.0,0.0,0.0,0.0,0.0,0.0,0.0,0.0,0.0,0.0,0.0,0.0,0.0,0.0,0.0,0.0,0.0,0.0,0.0,0.0,0.0,0.0,-0.8971,-0.9103,-0.9886,-1.1116,-0.9512,-0.853,0.0,0.0,0.0,0.0,0.0,0.0,0.0,0.0,0.0,0.0,0.0,0.0,0.0,0.0,0.0,0.0,0.0,0.0,0.0,0.0,0.0,0.0,0.0,0.0,0.0,0.0,0.0,0.0,0.0,0.0,0.0,0.0,0.0,0.0,0.0,0.0,0.0,0.0,0.0,0.0,0.0,0.0,0.0,0.0,0.0,0.0,0.0,0.0,0.0,0.0,0.0,0.0,0.0,0.0,0.0,0.0,0.0,0.0,0.0,0.0,0.0,0.0,0.0,0.0,0.0,0.0,0.0,0.0,0.0,0.0,0.0,0.0,0.0,0.0,0.0,0.0,0.0,0.0,0.0,0.0,0.0,0.0,0.0,0.0,0.0,0.0,0.0,0.0,0.0,0.0,0.0,0.0,0.0,0.0,0.0,0.0,0.0,0.0,0.0,0.0,0.0,0.0,0.0,0.0,0.0,0.0,0.0,0.0,0.0,-0.8572,0.0,-1.0347,-1.1049,-0.9439,-0.833,0.0,0.0,0.0,0.0,0.0,0.0,0.0,0.0,0.0,0.0,0.0,0.0,0.0,0.0,0.0,0.0,0.0,0.0,0.0,0.0,0.0,0.0,0.0,0.0,0.0,0.0,0.0,0.0,0.0,0.0,0.0,0.0,0.0,0.0,0.0,0.0,0.0,0.0,0.0,0.0,0.0,0.0,0.0,0.0,0.0,0.0,0.0,0.0,0.0,0.0,0.0,0.0,0.0,0.0,0.0,0.0,0.0,0.0,0.0,0.0,0.0,0.0,0.0,0.0,0.0,0.0,0.0,0.0,0.0,0.0,0.0,0.0,0.0,0.0,0.0,0.0,0.0,0.0,0.0,0.0,0.0,0.0,0.0,0.0,0.0,0.0,0.0,0.0,0.0,0.0,0.0,0.0,0.0,0.0,0.0,0.0,0.0,0.0,0.0,0.0,0.0,0.0,0.0,0.0,0.0,0.0,0.0,0.0,-0.8343,-1.0013,-1.0902,-1.0848,-0.9793,-0.9666,-0.8622,0.0,0.0,0.0,0.0,0.0,0.0,0.0,0.0,0.0,0.0,0.0,0.0,0.0,0.0,0.0,0.0,0.0,0.0,0.0,0.0,0.0,0.0,0.0,0.0,0.0,0.0,0.0,0.0,0.0,0.0,0.0,0.0,0.0,0.0,0.0,0.0,0.0,0.0,0.0,0.0,0.0,0.0,0.0,0.0,0.0,0.0,0.0,0.0,0.0,0.0,0.0,0.0,0.0,0.0,0.0,0.0,0.0,0.0,0.0,0.0,0.0,0.0,0.0,0.0,0.0,0.0,0.0,0.0,0.0,0.0,0.0,0.0,0.0,0.0,0.0,0.0,0.0,0.0,0.0,0.0,0.0,0.0,0.0,0.0,0.0,0.0,0.0,0.0,0.0,0.0,0.0,0.0,0.0,0.0,0.0,0.0,0.0,0.0,0.0,0.0,0.0,0.0,0.0,0.0,0.0,0.0,0.0,0.0,0.0,-0.9462,-1.0367,-1.1042,-1.141,-0.9719,-0.8818,0.0,0.0,0.0,0.0,0.0,0.0,0.0,0.0,0.0,0.0,0.0,0.0,0.0,0.0,0.0,0.0,0.0,0.0,0.0,0.0,0.0,0.0,0.0,0.0,0.0,0.0,0.0,0.0,0.0,0.0,0.0,0.0,0.0,0.0,0.0,0.0,0.0,0.0,0.0,0.0,0.0,0.0,0.0,0.0,0.0,0.0,0.0,0.0,0.0,0.0,0.0,0.0,0.0,0.0,0.0,0.0,0.0,0.0,0.0,0.0,0.0,0.0,0.0,0.0,0.0,0.0,0.0,0.0,0.0,0.0,0.0,0.0,0.0,0.0,0.0,0.0,0.0,0.0,0.0,0.0,0.0,0.0,0.0,0.0,0.0,0.0,0.0,0.0,0.0,0.0,0.0,0.0,0.0,0.0,0.0,0.0,0.0,0.0,0.0,0.0,0.0,0.0,0.0,0.0,0.0,0.0,0.0,0.0,0.0,-1.0421,-1.1249,-1.1844,-1.2138,-1.0321,-0.9325,-0.9265,0.0,0.0,0.0,0.0,0.0,0.0,0.0,0.0,0.0,0.0,0.0,0.0,0.0,0.0,0.0,0.0,0.0,0.0,0.0,0.0,0.0,0.0,0.0,0.0,0.0,0.0,0.0,0.0,0.0,0.0,0.0,0.0,0.0,0.0,0.0,0.0,0.0,0.0,0.0,0.0,0.0,0.0,0.0,0.0,0.0,0.0,0.0,0.0,0.0,0.0,0.0,0.0,0.0,0.0,0.0,0.0,0.0,0.0,0.0,0.0,0.0,0.0,0.0,0.0,0.0,0.0,0.0,0.0,0.0,0.0,0.0,0.0,0.0,0.0,0.0,0.0,0.0,0.0,0.0,0.0,0.0,0.0,0.0,0.0,0.0,0.0,0.0,0.0,0.0,0.0,0.0,0.0,0.0,0.0,0.0,0.0,0.0,0.0,0.0,0.0,0.0,0.0,0.0,0.0,0.0,0.0,0.0,0.0,-1.2338,-1.326,-1.3193,-1.2157,-1.1363,-1.0114,0.0,0.0,0.0,0.0,0.0,0.0,0.0,0.0,0.0,0.0,0.0,0.0,0.0,0.0,0.0,0.0,0.0,0.0,0.0,0.0,0.0,0.0,0.0,0.0,0.0,0.0,0.0,0.0,0.0,0.0,0.0,0.0,0.0,0.0,0.0,0.0,0.0,0.0,0.0,0.0,0.0,0.0,0.0,0.0,0.0,0.0,0.0,0.0,0.0,0.0,0.0,0.0,0.0,0.0,0.0,0.0,0.0,0.0,0.0,0.0,0.0,0.0,0.0,0.0,0.0,0.0,0.0,0.0,0.0,0.0,0.0,0.0,0.0,0.0,0.0,0.0,0.0,0.0,0.0,0.0,0.0,0.0,0.0,0.0,0.0,0.0,0.0,0.0,0.0,0.0,0.0,0.0,0.0,0.0,0.0,0.0,0.0,0.0,0.0,0.0,0.0,0.0,0.0,0.0,0.0,0.0,0.0,0.0,0.0,-1.2966,-1.4262,-1.4583,-1.3821,-1.2198,-1.1062,0.0,0.0,0.0,0.0,0.0,0.0,0.0,0.0,0.0,0.0,0.0,0.0,0.0,0.0,0.0,0.0,0.0,0.0,0.0,0.0,0.0,0.0,0.0,0.0,0.0,0.0,0.0,0.0,0.0,0.0,0.0,0.0,0.0,0.0,0.0,0.0,0.0,0.0,0.0,0.0,0.0,0.0,0.0,0.0,0.0,0.0,0.0,0.0,0.0,0.0,0.0,0.0,0.0,0.0,0.0,0.0,0.0,0.0,0.0,0.0,0.0,0.0,0.0,0.0,0.0,0.0,0.0,0.0,0.0,0.0,0.0,0.0,0.0,0.0,0.0,0.0,0.0,0.0,0.0,0.0,0.0,0.0,0.0,0.0,0.0,0.0,0.0,0.0,0.0,0.0,0.0,0.0,0.0,0.0,0.0,0.0,0.0,0.0,0.0,0.0,0.0,0.0,0.0,0.0,0.0,0.0,0.0,0.0,-1.2432,-1.3741,-1.4957,-1.5357,-1.4897,-1.3367,-1.2131,0.0,0.0,0.0,0.0,0.0,0.0,0.0,0.0,0.0,0.0,0.0,0.0,0.0,0.0,0.0,0.0,0.0,0.0,0.0,0.0,0.0,0.0,0.0,0.0,0.0,0.0,0.0,0.0,0.0,0.0,0.0,0.0,0.0,0.0,0.0,0.0,0.0,0.0,0.0,0.0,0.0,0.0,0.0,0.0,0.0,0.0,0.0,0.0,0.0,0.0,0.0,0.0,0.0,0.0,0.0,0.0,0.0,0.0,0.0,0.0,0.0,0.0,0.0,0.0,0.0,0.0,0.0,0.0,0.0,0.0,0.0,0.0,0.0,0.0,0.0,0.0,0.0,0.0,0.0,0.0,0.0,0.0,0.0,0.0,0.0,0.0,0.0,0.0,0.0,0.0,0.0,0.0,0.0,0.0,0.0,0.0,0.0,0.0,0.0,0.0,0.0,0.0,0.0,0.0,0.0,0.0,0.0,0.0,-1.31,-1.4536,-1.5391,-1.5712,-1.5431,-1.4536,-1.3113,0.0,0.0,0.0,0.0,0.0,0.0,0.0,0.0,0.0,0.0,0.0,0.0,0.0,0.0,0.0,0.0,0.0,0.0,0.0,0.0,0.0,0.0,0.0,0.0,0.0,0.0,0.0,0.0,0.0,0.0,0.0,0.0,0.0,0.0,0.0,0.0,0.0,0.0,0.0,0.0,0.0,0.0,0.0,0.0,0.0,0.0,0.0,0.0,0.0,0.0,0.0,0.0,0.0,0.0,0.0,0.0,0.0,0.0,0.0,0.0,0.0,0.0,0.0,0.0,0.0,0.0,0.0,0.0,0.0,0.0,0.0,0.0,0.0,0.0,0.0,0.0,0.0,0.0,0.0,0.0,0.0,0.0,0.0,0.0,0.0,0.0,0.0,0.0,0.0,0.0,0.0,0.0,0.0,0.0,0.0,0.0,0.0,0.0,0.0,0.0,0.0,0.0,0.0,0.0,0.0,0.0,0.0,0.0,-1.3621,-1.4836,-1.5498,-1.5798,-1.5738,-1.4436,-1.3093,0.0,0.0,0.0,0.0,0.0,0.0,0.0,0.0,0.0,0.0,0.0,0.0,0.0,0.0,0.0,0.0,0.0,0.0,0.0,0.0,0.0,0.0,0.0,0.0,0.0,0.0,0.0,0.0,0.0,0.0,0.0,0.0,0.0,0.0,0.0,0.0,0.0,0.0,0.0,0.0,0.0,0.0,0.0,0.0,0.0,0.0,0.0,0.0,-1.1123,0.0,0.0,0.0,0.0,0.0,0.0,0.0,0.0,0.0,0.0,0.0,0.0,0.0,0.0,0.0,0.0,0.0,0.0,0.0,0.0,0.0,0.0,0.0,0.0,0.0,0.0,0.0,0.0,0.0,0.0,0.0,0.0,0.0,0.0,0.0,0.0,0.0,0.0,0.0,0.0,0.0,0.0,0.0,0.0,0.0,0.0,0.0,0.0,0.0,0.0,0.0,0.0,0.0,0.0,0.0,0.0,0.0,0.0,0.0,-1.3981,-1.513,-1.5598,-1.5825,-1.5792,-1.481,-1.3574,0.0,0.0,0.0,0.0,0.0,0.0,0.0,0.0,0.0,0.0,0.0,0.0,0.0,0.0,0.0,0.0,0.0,0.0,0.0,0.0,0.0,0.0,0.0,0.0,0.0,0.0,0.0,0.0,0.0,0.0,0.0,0.0,0.0,0.0,0.0,0.0,0.0,0.0,0.0,0.0,0.0,0.0,0.0,0.0,0.0,0.0,0.0,0.0,0.0,0.0,0.0,0.0,0.0,0.0,0.0,0.0,0.0,0.0,0.0,0.0,0.0,0.0,0.0,0.0,0.0,0.0,0.0,0.0,0.0,0.0,0.0,0.0,0.0,0.0,0.0,0.0,0.0,0.0,0.0,0.0,0.0,0.0,0.0,0.0,0.0,0.0,0.0,0.0,0.0,0.0,0.0,0.0,0.0,0.0,0.0,0.0,0.0,0.0,0.0,0.0,0.0,0.0,0.0,0.0,0.0,0.0,0.0,-1.2966,-1.4188,-1.5404,-1.5698,-1.5825,-1.5825,-1.5271,-1.4128,-1.2371,0.0,0.0,0.0,0.0,0.0,0.0,0.0,0.0,0.0,0.0,0.0,0.0,0.0,0.0,0.0,0.0,0.0,0.0,0.0,0.0,0.0,0.0,0.0,0.0,0.0,0.0,0.0,0.0,0.0,0.0,0.0,0.0,0.0,0.0,0.0,0.0,0.0,0.0,-1.3618,-1.4874,0.0,0.0,0.0,0.0,0.0,0.0,0.0,0.0,-1.2153,0.0,0.0,0.0,0.0,0.0,0.0,0.0,0.0,0.0,0.0,0.0,0.0,0.0,0.0,0.0,0.0,0.0,0.0,0.0,0.0,0.0,0.0,0.0,0.0,0.0,0.0,0.0,0.0,0.0,0.0,0.0,0.0,0.0,0.0,0.0,0.0,0.0,0.0,0.0,0.0,0.0,0.0,0.0,0.0,0.0,0.0,0.0,0.0,0.0,0.0,0.0,0.0,0.0,0.0,0.0,0.0,-1.3233,-1.3287,-1.4088,-1.5705,-1.5805,-1.5825,-1.5812,-1.5264,-1.4128,-1.2385,0.0,0.0,0.0,0.0,0.0,0.0,0.0,0.0,0.0,0.0,0.0,0.0,0.0,0.0,0.0,0.0,0.0,0.0,0.0,0.0,0.0,0.0,0.0,0.0,0.0,0.0,0.0,0.0,0.0,0.0,0.0,0.0,0.0,0.0,0.0,0.0,0.0,0.0,0.0,-1.6866,-1.6878,0.0,0.0,0.0,0.0,0.0,0.0,0.0,0.0,-1.2052,0.0,0.0,0.0,0.0,0.0,0.0,0.0,0.0,0.0,0.0,0.0,0.0,0.0,0.0,0.0,0.0,0.0,0.0,0.0,0.0,0.0,0.0,0.0,0.0,0.0,0.0,0.0,0.0,0.0,0.0,0.0,0.0,0.0,0.0,0.0,0.0,0.0,0.0,0.0,0.0,0.0,0.0,0.0,0.0,0.0,0.0,0.0,0.0,0.0,0.0,0.0,0.0,0.0,0.0,0.0,-1.2852,-1.3721,-1.4676,-1.5778,-1.5825,-1.5825,-1.5805,-1.4823,-1.3661,0.0,0.0,0.0,0.0,0.0,0.0,0.0,0.0,0.0,0.0,0.0,0.0,0.0,0.0,0.0,0.0,0.0,0.0,0.0,0.0,0.0,0.0,0.0,0.0,0.0,0.0,0.0,0.0,0.0,0.0,0.0,0.0,0.0,0.0,0.0,0.0,0.0,0.0,0.0,0.0,-1.7818,-1.7801,-1.7353,0.0,0.0,0.0,0.0,0.0,0.0,-1.3333,-1.2617,0.0,0.0,0.0,0.0,0.0,0.0,0.0,0.0,0.0,0.0,0.0,0.0,0.0,0.0,0.0,0.0,0.0,0.0,0.0,0.0,0.0,0.0,0.0,0.0,0.0,0.0,0.0,0.0,0.0,0.0,0.0,0.0,0.0,0.0,0.0,0.0,0.0,0.0,0.0,0.0,0.0,0.0,0.0,0.0,0.0,0.0,0.0,0.0,0.0,0.0,0.0,0.0,0.0,0.0,0.0,-1.2298,-1.3881,-1.507,-1.5785,-1.5825,-1.5825,-1.5805,-1.4522,-1.334,0.0,0.0,0.0,0.0,0.0,0.0,0.0,0.0,0.0,0.0,0.0,0.0,0.0,0.0,0.0,0.0,0.0,0.0,0.0,0.0,0.0,0.0,0.0,0.0,0.0,0.0,0.0,0.0,0.0,0.0,0.0,0.0,0.0,0.0,0.0,0.0,0.0,0.0,0.0,0.0,0.0,-1.8462,-1.7311,-1.6454,0.0,0.0,0.0,0.0,-1.4927,-1.44,0.0,0.0,0.0,0.0,0.0,0.0,0.0,0.0,0.0,0.0,0.0,0.0,0.0,0.0,0.0,0.0,0.0,0.0,0.0,0.0,0.0,0.0,0.0,0.0,0.0,0.0,0.0,0.0,0.0,0.0,0.0,0.0,0.0,0.0,0.0,0.0,0.0,0.0,0.0,0.0,0.0,0.0,0.0,0.0,0.0,0.0,0.0,0.0,0.0,0.0,0.0,0.0,0.0,0.0,0.0,0.0,-1.2251,-1.3287,-1.4369,-1.5745,-1.5825,-1.5825,-1.5812,-1.491,-1.3754,0.0,0.0,0.0,0.0,0.0,0.0,0.0,0.0,0.0,0.0,0.0,0.0,0.0,0.0,0.0,0.0,0.0,0.0,0.0,0.0,0.0,0.0,0.0,0.0,0.0,0.0,0.0,0.0,0.0,0.0,0.0,0.0,0.0,0.0,0.0,0.0,0.0,0.0,0.0,0.0,0.0,-1.8846,-1.69,-1.6877,-1.6729,0.0,0.0,-1.6007,-1.5668,-1.5894,0.0,0.0,0.0,0.0,0.0,0.0,0.0,0.0,0.0,0.0,0.0,0.0,0.0,0.0,0.0,0.0,0.0,0.0,0.0,0.0,0.0,0.0,0.0,0.0,0.0,0.0,0.0,0.0,0.0,0.0,0.0,0.0,0.0,0.0,0.0,0.0,0.0,0.0,0.0,0.0,0.0,0.0,0.0,0.0,0.0,0.0,0.0,0.0,0.0,0.0,0.0,0.0,0.0,0.0,0.0,-1.0581,-1.2285,-1.3681,-1.4863,-1.5785,-1.5825,-1.5825,-1.5825,-1.4496,-1.3313,0.0,0.0,0.0,0.0,0.0,0.0,0.0,0.0,0.0,0.0,0.0,0.0,0.0,0.0,0.0,0.0,0.0,0.0,0.0,0.0,0.0,0.0,0.0,0.0,0.0,0.0,0.0,0.0,0.0,0.0,0.0,0.0,0.0,0.0,0.0,0.0,0.0,0.0,0.0,0.0,0.0,0.0,-1.7636,-1.7706,0.0,0.0,0.0,-1.6616,-1.7061,0.0,0.0,0.0,0.0,0.0,0.0,0.0,0.0,0.0,0.0,0.0,0.0,0.0,0.0,0.0,0.0,0.0,0.0,0.0,0.0,0.0,0.0,0.0,0.0,0.0,0.0,0.0,0.0,0.0,0.0,0.0,0.0,0.0,0.0,0.0,0.0,0.0,0.0,0.0,0.0,0.0,0.0,0.0,0.0,0.0,0.0,0.0,0.0,0.0,0.0,0.0,0.0,0.0,0.0,0.0,0.0,0.0,-1.2298,-1.4062,-1.5244,-1.5805,-1.5825,-1.5798,-1.5698,-1.4235,0.0,0.0,0.0,0.0,0.0,0.0,0.0,0.0,0.0,0.0,0.0,0.0,0.0,0.0,0.0,0.0,0.0,0.0,0.0,0.0,0.0,0.0,0.0,0.0,0.0,0.0,0.0,-0.7964,0.0,0.0,0.0,0.0,0.0,0.0,0.0,0.0,0.0,0.0,0.0,0.0,0.0,0.0,-1.8981,-1.8086,-1.824,-1.8422,0.0,0.0,-1.7338,-1.7915,-1.7513,-1.6584,0.0,0.0,0.0,0.0,0.0,0.0,0.0,0.0,0.0,0.0,0.0,0.0,0.0,0.0,0.0,0.0,0.0,0.0,0.0,0.0,0.0,0.0,0.0,0.0,0.0,0.0,0.0,0.0,0.0,0.0,0.0,0.0,0.0,0.0,0.0,0.0,0.0,0.0,0.0,0.0,0.0,0.0,0.0,0.0,0.0,0.0,0.0,0.0,0.0,0.0,0.0,0.0,0.0,0.0,0.0,-1.2305,-1.4055,-1.5244,-1.5798,-1.5825,-1.5698,-1.5418,-1.4522,-1.3353,0.0,0.0,0.0,0.0,0.0,0.0,0.0,0.0,0.0,0.0,0.0,0.0,0.0,0.0,0.0,0.0,0.0,0.0,0.0,0.0,0.0,0.0,0.0,0.0,0.0,0.0,0.0,0.0,0.0,0.0,0.0,0.0,0.0,0.0,0.0,0.0,0.0,0.0,0.0,0.0,0.0,-1.9176,-1.7606,-1.828,-1.8803,0.0,0.0,-1.8543,-1.7589,-1.8242,-1.779,-1.4676,0.0,0.0,0.0,0.0,0.0,0.0,0.0,0.0,0.0,0.0,0.0,0.0,0.0,0.0,0.0,0.0,0.0,0.0,0.0,0.0,0.0,0.0,0.0,0.0,0.0,0.0,0.0,0.0,0.0,0.0,0.0,0.0,0.0,0.0,0.0,0.0,0.0,0.0,0.0,0.0,0.0,0.0,0.0,0.0,0.0,0.0,0.0,0.0,0.0,0.0,0.0,0.0,0.0,-1.0661,-1.2291,-1.4055,-1.5244,-1.5798,-1.5825,-1.5691,-1.5404,-1.4543,-1.3387,0.0,0.0,0.0,0.0,0.0,0.0,0.0,0.0,0.0,0.0,0.0,0.0,0.0,0.0,0.0,0.0,0.0,0.0,0.0,0.0,0.0,0.0,0.0,0.0,0.0,0.0,0.0,0.0,-1.0998,-1.1312,-1.0973,0.0,0.0,0.0,0.0,0.0,0.0,0.0,0.0,0.0,0.0,-1.913,-1.8454,-1.9059,0.0,0.0,-1.9108,-1.8995,-1.8894,-1.8668,-1.7852,-1.5894,-1.5029,0.0,0.0,0.0,0.0,0.0,0.0,0.0,0.0,0.0,0.0,0.0,0.0,0.0,0.0,0.0,0.0,0.0,0.0,0.0,0.0,0.0,0.0,0.0,0.0,0.0,0.0,0.0,0.0,0.0,0.0,0.0,0.0,0.0,0.0,0.0,0.0,0.0,0.0,0.0,0.0,0.0,0.0,0.0,0.0,0.0,0.0,0.0,0.0,0.0,0.0,0.0,0.0,-1.0635,-1.2291,-1.4062,-1.5244,-1.5812,-1.5825,-1.5645,-1.5264,-1.4583,-1.348,0.0,0.0,0.0,0.0,0.0,0.0,0.0,0.0,0.0,0.0,0.0,0.0,0.0,0.0,0.0,0.0,0.0,0.0,0.0,0.0,0.0,0.0,0.0,0.0,0.0,0.0,0.0,0.0,-1.1939,-1.197,-1.1521,0.0,0.0,0.0,0.0,0.0,0.0,0.0,0.0,0.0,0.0,-1.9302,-1.9236,-1.9662,-1.9894,-1.9799,-1.9359,-1.9108,-1.9284,-1.8694,-1.7765,-1.6471,0.0,0.0,0.0,0.0,0.0,0.0,0.0,0.0,0.0,0.0,0.0,0.0,0.0,0.0,0.0,0.0,0.0,0.0,0.0,0.0,0.0,0.0,0.0,0.0,0.0,0.0,0.0,0.0,0.0,0.0,0.0,0.0,0.0,0.0,0.0,0.0,0.0,0.0,0.0,0.0,0.0,0.0,0.0,0.0,0.0,0.0,0.0,0.0,0.0,0.0,0.0,0.0,0.0,-1.077,-1.2298,-1.4062,-1.5244,-1.5805,-1.5825,-1.5558,-1.4997,-1.4669,-1.3674,-1.1904,0.0,0.0,0.0,0.0,0.0,0.0,0.0,0.0,0.0,0.0,0.0,0.0,0.0,0.0,0.0,0.0,0.0,0.0,0.0,0.0,0.0,0.0,0.0,0.0,0.0,0.0,-1.1575,-1.1643,-1.1547,0.0,0.0,0.0,0.0,0.0,0.0,0.0,0.0,0.0,0.0,-1.907,-1.9769,-1.9773,-1.9786,-1.9812,-1.9798,-1.9371,-1.8857,-1.8392,-1.8242,-1.7639,0.0,0.0,0.0,0.0,0.0,0.0,0.0,0.0,0.0,0.0,0.0,0.0,0.0,0.0,0.0,0.0,0.0,0.0,0.0,0.0,0.0,0.0,0.0,0.0,0.0,0.0,0.0,-0.2161,-0.2318,0.0,0.0,0.0,0.0,0.0,0.0,0.0,0.0,0.0,0.0,0.0,-0.2082,-0.1889,0.0,0.0,0.0,0.0,0.0,0.0,0.0,0.0,0.0,0.0,0.0,0.0,-1.038,-1.2516,-1.337,-1.4492,-1.571,-1.5825,-1.5551,-1.4977,-1.4676,-1.35,-1.1349,0.0,0.0,0.0,0.0,0.0,0.0,0.0,0.0,0.0,0.0,0.0,0.0,0.0,0.0,0.0,0.0,0.0,0.0,0.0,0.0,0.0,0.0,0.0,0.0,0.0,-1.2033,0.0,0.0,0.0,0.0,0.0,0.0,0.0,0.0,0.0,0.0,0.0,-1.8367,-1.9706,-1.9846,-1.9807,-1.9824,-1.9788,-1.9798,0.0,0.0,0.0,0.0,0.0,0.0,0.0,0.0,0.0,0.0,0.0,0.0,0.0,0.0,-1.4739,-1.2542,-1.1525,-1.1073,-1.1261,0.0,0.0,0.0,0.0,0.0,0.0,0.0,0.0,0.0,0.0,0.0,0.0,0.0,0.0,0.0,0.0,-0.2102,0.0,0.0,0.0,0.0,0.0,0.0,0.0,0.0,-0.1064,-0.089,-0.1385,-0.1277,-0.1522,0.0,-0.3582,-0.4307,0.0,0.0,0.0,0.0,0.0,0.0,0.0,0.0,-1.0101,-1.2337,-1.2948,-1.4025,-1.5697,-1.5732,-1.5451,-1.4977,-1.4275,-1.3133,-1.1496,-1.014,-0.9494,0.0,0.0,0.0,0.0,0.0,0.0,0.0,0.0,0.0,0.0,0.0,0.0,0.0,0.0,0.0,0.0,0.0,0.0,0.0,0.0,0.0,0.0,0.0,-1.3257,0.0,0.0,0.0,0.0,0.0,0.0,0.0,0.0,0.0,-1.7648,-1.824,-1.9364,-2.1175,-2.0505,-1.9861,-2.0076,0.0,0.0,0.0,0.0,0.0,0.0,0.0,-1.8995,-1.8794,-1.8154,-1.7476,-1.6911,-1.7287,-1.7488,-1.6923,0.0,0.0,-1.4274,-1.3245,-1.2793,-1.2981,-1.3006,-1.3094,-1.3471,-1.3835,-1.4173,0.0,0.0,0.0,0.0,0.0,0.0,0.0,0.0,-0.1066,-0.1368,0.0,-0.1798,0.0,0.0,0.0,0.0,0.0,0.0,0.0,0.0,-0.0359,0.0,0.0,-0.1018,-0.1466,-0.1438,-0.4014,-0.5027,-0.4508,-0.4668,0.0,0.0,0.0,0.0,0.0,0.0,-1.0039,-1.1674,-1.2621,-1.4032,-1.5697,-1.5551,-1.5257,-1.4923,-1.3622,-1.2721,-1.2291,-1.1182,-1.0287,-0.9588,-0.941,0.0,0.0,0.0,0.0,0.0,0.0,0.0,0.0,0.0,0.0,0.0,0.0,0.0,0.0,0.0,0.0,0.0,0.0,0.0,0.0,-1.3856,0.0,0.0,0.0,0.0,0.0,0.0,0.0,0.0,0.0,0.0,-1.9886,-1.9861,-2.0532,-2.2322,0.0,0.0,0.0,0.0,-2.0756,-2.0743,-2.0743,-2.0743,-2.0731,-2.0718,-2.0504,-1.9936,0.0,0.0,-1.7765,-1.7928,-1.8103,-1.7539,-1.7463,-1.725,-1.6609,-1.5567,-1.5092,-1.5492,-1.484,-1.4576,-1.5457,-1.558,-1.5932,0.2567,0.0,0.0,0.0,0.0,0.0,-0.0084,-0.0269,-0.0353,-0.0435,-0.0598,-0.098,0.0,0.0,0.0,0.0,0.0,0.0,-0.1057,-0.1016,-0.0362,0.0,0.0,-0.0294,-0.039,-0.0479,-0.2975,-0.412,-0.3905,-0.5573,-0.5888,-0.4833,0.0,0.0,0.0,0.0,-0.939,-1.1931,-1.2136,-1.3356,-1.5724,-1.5545,-1.515,-1.4656,-1.3627,-1.2933,-1.2625,-1.169,-1.1396,-1.178,-1.0719,0.0,0.0,0.0,0.0,0.0,0.0,0.0,0.0,0.0,0.0,0.0,0.0,0.0,0.0,0.0,0.0,0.0,0.0,0.0,-1.3859,-1.5144,-1.5792,0.0,0.0,0.0,0.0,0.0,0.0,0.0,0.0,0.0,-2.2133,-2.2007,-2.1835,0.0,0.0,-2.0916,-2.0756,-2.1058,-2.1255,-2.1255,0.0,0.0,0.0,-2.0916,-2.0794,-2.0966,-2.0677,-2.0263,-1.9862,-1.9522,-1.9171,-1.8643,-1.8555,-1.8267,-1.7313,-1.6547,-1.612,-1.6208,-1.6007,-1.5906,-1.6195,-1.6283,-1.6363,0.4164,0.1817,0.0539,0.0,0.0,0.0,0.0,0.0,0.0,0.0,0.0,-0.0364,-0.0516,-0.0556,-0.0912,0.0,0.0,0.0,-0.0614,-0.064,-0.0189,0.0,0.0,0.0,0.0,0.0,-0.267,-0.3806,-0.3813,-0.6168,-0.6905,-0.5956,0.0,0.0,-0.6549,-0.7356,-0.9122,-1.1822,-1.1815,-1.3048,-1.5717,-1.5431,-1.489,-1.4188,-1.3547,-1.3066,-1.2829,-1.1897,-1.1798,-1.2484,-1.1511,-1.0948,0.0,0.0,0.0,0.0,0.0,0.0,0.0,0.0,0.0,0.0,0.0,-0.8863,0.0,0.0,0.0,0.0,-1.1963,-1.395,-1.6275,-1.7474,0.0,0.0,0.0,0.0,0.0,0.0,0.0,-2.0889,-2.169,-2.2342,-2.2924,-2.3138,-2.3124,-2.2709,-2.1975,-2.1443,-2.133,0.0,-2.1807,-2.182,-2.1995,-2.2146,-2.2133,-2.187,-2.1694,-2.1794,-2.1355,-2.0903,-2.0731,-2.0188,-1.971,-1.9384,-1.8995,-1.8493,-1.7827,-1.7074,-1.6534,-1.6534,-1.6534,-1.6534,-1.6534,-1.6534,-1.6552,0.6317,0.4793,0.1586,0.0,0.0,0.0,0.0,0.0,0.0,0.0,0.0,0.0,0.0,0.0,0.0,0.0,-0.097,-0.0275,0.0,0.0,0.0,0.0,0.0,0.0,-0.0101,0.0,-0.2815,-0.4116,-0.431,-0.6606,-0.7617,-0.721,-0.7461,-0.7364,-0.6809,-0.7565,-0.9108,-1.1472,-1.1619,-1.3048,-1.5644,-1.5237,-1.4543,-1.3674,-1.334,-1.3026,-1.2699,-1.1955,-1.1734,-1.2213,-1.1976,-1.1662,-1.1327,0.0,0.0,0.0,0.0,0.0,0.0,0.0,0.0,0.0,0.0,0.0,0.0,0.0,0.0,0.0,-1.4955,0.0,-1.902,-2.0277,0.0,0.0,0.0,-2.1724,-2.1231,-2.2757,-2.3596,-2.2956,0.0,0.0,0.0,0.0,-2.4294,-2.4255,-2.2731,-2.1794,-2.2259,-2.2334,-2.2385,-2.2372,-2.2786,-2.3113,-2.2952,-2.3012,-2.279,-2.2259,-2.1825,-2.1305,-2.0828,-2.02,-1.9849,-1.9773,-1.897,-1.8254,-1.8216,-1.7313,-1.6572,-1.6547,-1.6534,-1.6534,-1.6534,-1.6534,-1.6637,0.712,0.6511,0.3218,0.1887,0.1819,0.0531,0.0,0.0,0.0,0.0,0.0,0.0,0.0,0.0,0.0,-0.0095,-0.0293,-0.0099,0.0,0.0,0.0,0.0,0.0,0.0,-0.0504,-0.1611,-0.3214,-0.4518,-0.5525,-0.7198,-0.7933,-0.7824,-0.7907,-0.758,-0.6909,-0.7427,-0.9015,-1.1619,-1.1748,-1.2964,-1.5086,-1.5037,-1.4543,-1.3674,-1.3133,-1.2712,-1.2405,-1.2403,-1.2504,-1.2663,-1.2856,-1.2833,-1.2473,-1.1281,0.0,0.0,0.0,0.0,0.0,0.0,0.0,0.0,0.0,-1.2221,-0.9893,0.0,-1.3995,0.0,-1.6106,-1.8268,-1.9584,-2.0793,0.0,0.0,-2.343,-2.4268,-2.5106,-2.56,-2.5751,-2.5356,-2.5744,-2.5588,-2.4343,-2.4457,-2.4506,-2.4075,-2.3296,-2.2636,-2.2397,-2.2627,-2.2937,-2.2877,-2.3037,-2.3125,-2.3065,-2.3125,-2.2834,-2.2091,-2.1703,-2.1443,-2.1317,-2.0464,-1.9798,-1.9773,-1.9284,-1.8719,-1.8292,-1.7626,-1.7024,-1.6635,-1.6534,-1.6534,-1.6534,-1.6534,-1.6509,0.8486,0.8233,0.5725,0.4668,0.4432,0.1336,0.0,0.0,0.0,0.0,0.0,0.0,0.0,0.0,0.0,0.0,0.0,0.0,0.0,0.0,0.0,0.0,0.0,0.0,-0.0706,-0.2012,-0.3316,-0.472,-0.6029,-0.7335,-0.8038,-0.8038,-0.8038,-0.7834,-0.7451,-0.8233,-1.0027,-1.2612,-1.3216,-1.3993,-1.4977,-1.4836,-1.4342,-1.3487,-1.3126,-1.2913,-1.2632,-1.2713,-1.2925,-1.3277,-1.3212,-1.3159,-1.3143,-1.1914,-1.0898,0.0,0.0,0.0,0.0,0.0,0.0,0.0,0.0,0.0,0.0,0.0,-1.5581,0.0,-1.8677,0.0,-2.1882,-2.3376,-2.4477,-2.4896,-2.6063,-2.7006,-2.744,-2.7739,-2.7583,-2.6729,-2.6638,-2.6182,-2.4963,-2.4833,-2.472,-2.4393,-2.3879,-2.3314,-2.2824,-2.289,-2.3125,-2.3125,-2.3125,-2.2944,-2.2641,-2.2884,-2.2724,-2.1753,-2.1513,-2.1418,-2.1154,-2.0401,-1.9798,-1.9761,-1.9183,-1.8581,-1.8242,-1.7526,-1.6886,-1.6647,-1.6534,-1.6534,-1.6534,-1.6534,-1.6552,0.9849,0.9714,0.8116,0.7337,0.7067,0.2568,0.0454,0.033,0.033,0.0217,0.0,0.0,0.0,0.0,0.0,0.0,0.0,0.0,0.0,0.0,0.0,0.0,0.0,0.0,-0.0807,-0.2314,-0.3416,-0.482,-0.6232,-0.7437,-0.8038,-0.8038,-0.8038,-0.8137,-0.8528,-0.9702,-1.1453,-1.3872,-1.4903,-1.5291,-1.497,-1.4716,-1.4142,-1.3267,-1.3218,-1.3216,-1.3035,-1.3021,-1.3236,-1.387,-1.3471,-1.3284,-1.3474,-1.2383,-1.1504,0.0,-1.135,0.0,0.0,0.0,0.0,0.0,0.0,0.0,0.0,-1.6005,-1.7342,-1.9433,-2.1653,-2.3389,-2.4492,-2.6408,-2.74,-2.6856,-2.8502,-2.946,-2.8936,-2.9376,-2.911,-2.7621,-2.7308,-2.6653,-2.5318,-2.5034,-2.5034,-2.4908,-2.4252,-2.3629,-2.3169,-2.3055,-2.3078,-2.3005,-2.2823,-2.231,-2.1753,-2.2187,-2.225,-2.1164,-2.1073,-2.1181,-2.0778,-2.02,-1.9798,-1.9723,-1.9032,-1.8355,-1.8229,-1.7363,-1.6647,-1.6547,-1.6534,-1.6534,-1.6534,-1.6534,-1.668,1.0005,0.9741,0.8116,0.7402,0.7199,0.4894,0.3277,0.2044,0.2016,0.1205,0.0,0.0,0.0,0.0,0.0,0.0,0.0,0.0,0.0,0.0,0.0,0.0,0.0,0.0,-0.131,-0.3515,-0.3914,-0.522,-0.764,-0.7839,-0.8038,-0.8038,-0.8038,-0.9019,-1.1068,0.0,0.0,0.0,-1.5095,-1.5491,-1.4983,-1.491,-1.4342,-1.3247,-1.3327,0.0,-1.284,-1.3907,-1.425,-1.374,-1.4486,0.0,0.0,0.0,0.0,0.0,0.0,0.0,0.0,0.0,0.0,0.0,-1.7074,-1.7162,-1.703,-1.9227,-2.0801,-2.1255,-2.3145,-2.4388,-2.4581,-2.6408,-2.7565,-2.747,-2.9146,-3.0268,-3.0178,-3.0118,-2.9789,-2.8782,-2.8025,-2.7275,-2.6291,-2.6151,-2.595,-2.5394,-2.4369,-2.3441,-2.2823,-2.2887,-2.2836,-2.2261,-2.1616,-2.0846,-1.9955,-2.059,-2.098,-2.0154,-2.0204,-2.0471,-2.0553,-2.0188,-1.9811,-1.9786,-1.9284,-1.8694,-1.8292,-1.7664,-1.7011,-1.6622,-1.6534,-1.6534,-1.6534,-1.6522,-1.668,1.012,0.0,0.9091,0.8613,0.0,0.7645,0.6467,0.4915,0.3999,0.3124,0.2182,0.1407,0.1079,0.1078,0.0321,0.0,0.0,0.0,0.0,0.0,0.0,0.0,0.0,0.0,-0.1109,-0.3015,-0.3715,-0.502,-0.6933,-0.7637,-0.8038,-0.8038,-0.8038,-0.9019,-1.0974,-1.2231,-1.3488,-1.4854,-1.5302,-1.5404,-1.4983,-1.4823,-1.4322,-1.3454,0.0,0.0,0.0,0.0,0.0,0.0,0.0,0.0,0.0,0.0,0.0,-1.342,-1.4526,-1.5362,-1.5753,-1.7107,-1.8248,-1.897,-1.9773,-1.9886,-1.907,-2.127,-2.2801,-2.3078,-2.4681,-2.5775,-2.609,-2.7575,-2.8562,-2.8652,-3.0028,-3.0887,-3.0484,-3.038,-2.9752,-2.8556,-2.7999,-2.743,-2.6589,-2.6025,-2.5571,-2.4951,-2.3665,-2.2544,-2.2124,-2.1933,-2.1678,-2.129,-2.091,-2.0333,-1.9562,-2.0009,-2.0131,-1.9219,-1.9568,-1.9987,-1.9763,-1.9778,-1.9798,-1.9736,-1.9171,-1.8581,-1.8555,-1.7739,-1.6948,-1.6923,-1.6722,-1.6547,-1.6522,-1.671,-1.7076,1.0243,1.012,1.0073,0.9978,0.9859,0.9832,0.9004,0.7668,0.0,0.0,0.0,0.3201,0.2412,0.2081,0.0974,0.0215,0.0,0.0,0.0,0.0,0.0,0.0,0.0,0.0,-0.0706,-0.2012,-0.3314,-0.472,-0.6029,-0.7338,-0.8038,-0.8038,-0.8038,-0.8825,-1.0386,-1.2909,-1.4752,-1.5717,-1.5598,-1.5311,-1.4977,-1.4723,-1.4374,-1.3899,-1.451,-1.5008,-1.5267,-1.591,-1.6095,-1.5663,-1.5713,-1.5371,-1.4551,-1.4473,-1.475,-1.5469,-1.6993,-1.8047,-1.839,-1.9908,-2.0853,-2.1008,-2.1794,-2.192,-2.1016,-2.2791,-2.4113,-2.4637,-2.5959,-2.6991,-2.758,-2.8786,-2.9525,-2.9416,-3.0505,-3.0955,-3.0194,-2.9875,-2.9178,-2.7986,-2.7537,-2.7098,-2.6195,-2.5411,-2.4589,-2.3895,-2.2583,-2.1404,-2.0941,-2.0576,-2.0386,-2.0398,-2.0139,-1.9824,-1.9365,-1.9562,-1.9469,-1.8385,-1.9021,-1.9471,-1.9088,-1.9263,-1.9592,-1.9798,-1.9032,-1.8769,-1.8808,-1.7856,-1.6999,-1.73,-1.6923,-1.6534,-1.6565,-1.6993,-1.7558,1.0449,1.0409,1.0154,1.0036,1.0005,0.9876,0.9617,0.8985,0.6034,0.4685,0.4671,0.4375,0.3453,0.2227,0.2001,0.1214,0.0,0.0,0.0,0.0,0.0,0.0,0.0,0.0,-0.0706,-0.2013,-0.3316,-0.4718,-0.6029,-0.7335,-0.8038,-0.8038,-0.8038,-0.9213,-1.1653,-1.4268,-1.5635,-1.5825,-1.5785,-1.5504,-1.4977,-1.4917,-1.5002,-1.5109,-1.5506,-1.5972,-1.6351,-1.7248,-1.7358,-1.6548,-1.6904,-1.6709,-1.5859,-1.5831,-1.6026,-1.6493,-1.7677,-1.8713,-1.9431,-2.0674,-2.1581,-2.2033,-2.2234,-2.2234,-2.2178,-2.3966,-2.5191,-2.5315,-2.6628,-2.752,-2.7649,-2.8801,-2.9347,-2.8766,-2.9682,-3.0119,-2.9275,-2.8566,-2.7971,-2.7578,-2.7095,-2.6108,-2.4925,-2.4429,-2.3757,-2.2628,-2.1257,-1.9928,-1.91,-1.9096,-1.9431,-1.9365,-1.8854,-1.8405,-1.8327,-1.8269,-1.842,-1.8425,-1.8217,-1.8555,-1.9107,-1.9042,-1.9174,-1.9683,-1.9547,-1.9384,-1.9133,-1.8493,-1.7865,-1.7564,-1.7061,-1.6647,-1.6622,-1.7337,-1.8014,1.0568,1.048,1.0344,1.0195,1.0036,0.9883,0.9785,0.9583,0.8066,0.7359,0.7174,0.6266,0.5429,0.4632,0.2915,0.1782,0.1218,0.033,0.0,0.0,0.0,0.0,0.0,0.0,-0.0306,-0.1009,-0.3016,-0.4316,-0.5022,-0.7033,-0.8038,-0.8137,-0.941,-1.0681,-1.1945,-1.4465,-1.5825,-1.5825,-1.5671,-1.5391,-1.497,-1.481,-1.4947,-1.5494,-1.6095,-1.6767,-1.7494,-1.8309,-1.8311,-1.7461,-1.7617,-1.7324,-1.6484,-1.6426,-1.6921,-1.7941,-1.8781,-1.9831,-2.1023,-2.1886,-2.2485,-2.2736,-2.2761,-2.3065,-2.3793,-2.5148,-2.6106,-2.6523,-2.7871,-2.8517,-2.8203,-2.9011,-2.9456,-2.9028,-2.9217,-2.9052,-2.8532,-2.7517,-2.6671,-2.6181,-2.5378,-2.4609,-2.3951,-2.2995,-2.2123,-2.1109,-1.9839,-1.8692,-1.8105,-1.8337,-1.8596,-1.8529,-1.8269,-1.8076,-1.8008,-1.8008,-1.7957,-1.7946,-1.7862,-1.8059,-1.868,-1.869,-1.9052,-1.9606,-1.9597,-1.9434,-1.9371,-1.8756,-1.8304,-1.8317,-1.7827,-1.7413,-1.7232,-1.7872,-1.8765,1.0653,1.0541,1.0504,1.0321,1.0039,0.9886,0.9819,0.9808,0.9703,0.9591,0.9345,0.8008,0.7228,0.6623,0.4289,0.2914,0.2121,0.0995,0.0,0.0,0.0,0.0,0.0,0.0,0.0,0.0,-0.2414,-0.3715,-0.4216,-0.6429,-0.7736,-0.8233,-1.0288,-1.1653,-1.195,-1.4178,-1.5534,-1.571,-1.5484,-1.519,-1.4963,-1.4669,-1.5042,-1.6041,-1.6573,-1.7422,-1.8592,-1.9144,-1.9082,-1.8359,-1.8203,-1.7842,-1.7152,-1.707,-1.7747,-1.9238,-1.9795,-2.0761,-2.2334,-2.2887,-2.3125,-2.3125,-2.3125,-2.3761,-2.5269,-2.6188,-2.6904,-2.7691,-2.868,-2.9086,-2.8742,-2.8946,-2.9163,-2.8866,-2.8369,-2.7865,-2.7373,-2.6459,-2.5458,-2.4601,-2.3923,-2.3423,-2.2613,-2.1559,-2.0477,-1.9702,-1.8672,-1.8027,-1.8008,-1.8008,-1.8008,-1.8008,-1.8008,-1.8008,-1.8008,-1.8008,-1.7881,-1.7559,-1.761,-1.7966,-1.8313,-1.8586,-1.8964,-1.9512,-1.951,-1.9434,-1.9648,-1.907,-1.8607,-1.8745,-1.8442,-1.8109,-1.8157,-1.8857,-1.9806,1.0711,1.0677,1.0555,1.0321,1.0049,0.989,0.9825,0.9819,0.9805,0.9798,0.9737,0.9365,0.8356,0.6982,0.6507,0.4867,0.2462,0.2009,0.133,0.011,0.0,0.0,0.0,0.0,0.0,0.0,-0.1511,-0.2914,-0.4016,-0.5522,-0.6833,-0.8035,-0.9509,-1.0774,-1.195,-1.3397,-1.4657,-1.5724,-1.5284,-1.499,-1.495,-1.4676,-1.5383,-1.7107,-1.722,-1.8083,-1.9649,-1.9798,-1.9648,-1.9189,-1.8789,-1.8545,-1.8418,-1.8096,-1.8655,-2.0306,-2.0553,-2.1283,-2.2797,-2.304,-2.3125,-2.3125,-2.315,-2.4025,-2.6038,-2.6851,-2.7493,-2.8253,-2.8567,-2.8793,-2.8614,-2.8539,-2.8054,-2.7044,-2.6944,-2.6551,-2.5499,-2.5026,-2.4613,-2.3713,-2.3382,-2.2712,-2.0937,-2.026,-1.9603,-1.8584,-1.8135,-1.793,-1.8008,-1.7862,-1.794,-1.8008,-1.8008,-1.8008,-1.8008,-1.8008,-1.7969,-1.7891,-1.7654,-1.7922,-1.8447,-1.8563,-1.8632,-1.9537,-1.9761,-1.9723,-1.9648,-1.9334,-1.8958,-1.897,-1.8803,-1.852,-1.9408,-2.0118,-2.0867,1.0721,1.0714,1.0653,1.0456,1.0181,1.0019,0.9903,0.9822,0.9819,0.9819,0.9808,0.969,0.9199,0.8469,0.7385,0.615,0.4867,0.3029,0.1895,0.1219,0.0,0.0,0.0,0.0,0.0,0.0,-0.1317,-0.2714,-0.4117,-0.6126,-0.7437,-0.8137,-0.9312,-1.0583,-1.1945,-1.3199,-1.4561,-1.571,-1.5257,-1.506,-1.491,-1.4509,-1.5281,-1.7033,-1.7342,-1.824,-2.0082,-2.0293,-2.0107,-1.9687,-1.9482,-1.916,-1.8652,-1.8933,-1.9582,-2.056,-2.1553,-2.2372,-2.3065,-2.3125,-2.3125,-2.3125,-2.3452,-2.4563,-2.6634,-2.7012,-2.7721,-2.9199,-2.9551,-2.9475,-2.8983,-2.8496,-2.7722,-2.6854,-2.6223,-2.5585,-2.5117,-2.3854,-2.2914,-2.2519,-2.1655,-2.0742,-1.9769,-1.9188,-1.8652,-1.7959,-1.7569,-1.7354,-1.7862,-1.7569,-1.7432,-1.7862,-1.8008,-1.8008,-1.8008,-1.8008,-1.8008,-1.7939,-1.7666,-1.7789,-1.8549,-1.8592,-1.8667,-1.9651,-1.9809,-1.9836,-1.9786,-1.9685,-1.9484,-1.9359,-1.9145,-1.9131,-2.0666,-2.0927,-2.141,1.0721,1.0711,1.0677,1.0534,1.0324,1.0131,0.9988,0.9883,0.9839,0.9819,0.9819,0.9819,0.9768,0.9516,0.8215,0.7383,0.6625,0.4069,0.258,0.2125,0.0672,0.0,0.0,0.0,0.0,0.0,-0.0915,-0.2314,-0.4116,-0.6728,-0.8038,-0.8237,-0.9316,-1.0681,-1.195,-1.3204,-1.4555,-1.5684,-1.5324,-1.5044,-1.4999,-1.4802,-1.5474,-1.7115,-1.7342,-1.8301,-2.0489,-2.0576,-2.042,-2.0117,-1.998,-1.958,-1.8877,-1.9502,-2.0232,-2.0978,-2.231,-2.3125,-2.3125,-2.3125,-2.314,-2.3389,-2.3791,-2.4867,-2.6654,-2.6979,-2.7854,-2.9501,-2.9752,-2.9271,-2.8944,-2.8,-2.7271,-2.6788,-2.5601,-2.4788,-2.4359,-2.2849,-2.1785,-2.1337,-2.0325,-1.9166,-1.8911,-1.8482,-1.8018,-1.794,-1.7217,-1.6775,-1.7354,-1.707,-1.6922,-1.751,-1.7794,-1.8008,-1.8008,-1.8008,-1.8008,-1.7959,-1.7734,-1.7891,-1.8703,-1.8572,-1.8714,-1.9607,-1.9846,-1.9924,-1.9823,-1.9786,-1.9773,-1.9825,-1.9787,-1.9999,-2.126,-2.1499,-2.2088,1.0721,1.07,1.0568,1.0504,1.046,1.0178,1.0049,1.0012,0.9883,0.9819,0.9819,0.9819,0.9815,0.9791,0.9397,0.8482,0.6886,0.537,0.374,0.2353,0.0784,0.0,0.0,0.0,0.0,0.0,0.0,-0.1513,-0.4017,-0.6628,-0.8038,-0.8038,-0.9312,-1.0681,-1.1945,-1.3199,-1.4555,-1.5596,-1.5504,-1.5231,-1.5136,-1.5662,-1.6331,-1.7286,-1.7342,-1.8381,-2.0323,-2.0576,-2.0537,-2.0605,-2.0146,-1.9717,-1.935,-1.9745,-2.0566,-2.1761,-2.2641,-2.3125,-2.3125,-2.3163,-2.3315,-2.3841,-2.4054,-2.4823,-2.6678,-2.6878,-2.749,-2.8947,-2.8376,-2.7927,-2.7906,-2.6948,-2.6126,-2.5906,-2.4794,-2.3778,-2.2971,-2.2357,-2.1312,-2.0366,-1.9567,-1.8775,-1.8115,-1.8008,-1.7813,-1.7657,-1.707,-1.6567,-1.6567,-1.6567,-1.6636,-1.6853,-1.7432,-1.8008,-1.8008,-1.8008,-1.8008,-1.7978,-1.7978,-1.8041,-1.8547,-1.9014,-1.9313,-1.9616,-2.0128,-2.0248,-1.9962,-1.9798,-1.985,-2.0067,-2.0716,-2.1322,-2.1824,-2.2786,-2.3244,1.0721,1.0714,1.0663,1.0585,1.0473,1.0276,1.0141,1.0039,0.9886,0.9819,0.9819,0.9819,0.9819,0.9819,0.9768,0.9394,0.8488,0.6929,0.5242,0.3739,0.2135,0.0893,0.0,0.0,0.0,0.0,0.0,-0.1427,-0.4019,-0.6728,-0.8038,-0.8233,-0.9312,-1.0681,-1.1945,-1.3199,-1.4555,-1.5609,-1.5538,-1.5609,-1.591,-1.6102,-1.6773,-1.8256,-1.8399,-1.9116,-2.0566,-2.0576,-2.0576,-2.0557,-2.04,-2.043,-2.0679,-2.1358,-2.1952,-2.258,-2.2944,-2.3125,-2.3175,-2.3489,-2.3766,-2.4004,-2.4657,-2.5498,-2.6582,-2.6765,-2.7076,-2.7749,-2.7417,-2.7033,-2.6893,-2.6192,-2.5588,-2.5129,-2.4196,-2.328,-2.2574,-2.1686,-2.0863,-2.0289,-1.9183,-1.7828,-1.6911,-1.6447,-1.6422,-1.614,-1.5376,-1.5155,-1.5579,-1.5728,-1.5869,-1.6576,-1.7364,-1.8008,-1.8008,-1.8008,-1.8008,-1.8008,-1.8007,-1.8145,-1.8547,-1.9315,-1.9652,-1.9527,-2.0129,-2.0435,-2.0062,-1.9798,-1.985,-2.0346,-2.1002,-2.1615,-2.2221,-2.286,-2.3171,1.0721,1.0721,1.0721,1.066,1.0555,1.0412,1.0263,1.0114,0.9961,0.9869,0.9829,0.9819,0.9819,0.9819,0.9819,0.9774,0.941,0.7724,0.6436,0.5368,0.3715,0.2125,0.0893,0.0661,0.0434,0.0,-0.0935,-0.2341,-0.4121,-0.6728,-0.7939,-0.8038,-0.9706,-1.0974,-1.2042,-1.359,-1.4949,-1.5589,-1.5631,-1.5711,-1.6116,-1.6545,-1.7303,-1.8388,-1.9116,-1.9844,-2.0566,-2.0576,-2.0576,-2.0576,-2.0576,-2.0954,-2.176,-2.206,-2.2559,-2.3268,-2.3238,-2.3238,-2.3427,-2.3778,-2.4142,-2.4506,-2.5146,-2.5955,-2.6621,-2.6633,-2.6824,-2.704,-2.6837,-2.6521,-2.6352,-2.5722,-2.5056,-2.473,-2.3917,-2.2963,-2.2229,-2.1246,-2.0338,-1.9508,-1.8295,-1.6931,-1.5881,-1.5708,-1.5518,-1.5213,-1.4314,-1.4099,-1.4522,-1.4736,-1.5021,-1.6009,-1.6932,-1.7579,-1.7862,-1.8008,-1.8008,-1.8008,-1.8008,-1.8185,-1.8637,-1.9414,-1.9851,-1.9657,-1.9829,-2.0196,-2.0188,-1.9886,-2.0105,-2.051,-2.1015,-2.1615,-2.2207,-2.2725,-2.3069,1.0721,1.0721,1.0721,1.0714,1.0677,1.0538,1.0402,1.0266,1.0103,0.9958,0.9859,0.9825,0.9819,0.9819,0.9819,0.9815,0.9506,0.8063,0.708,0.6529,0.518,0.3575,0.2011,0.1984,0.1193,-0.0107,-0.2665,-0.3823,-0.4116,-0.6625,-0.8038,-0.8428,-1.0386,-1.1556,-1.1945,-1.4178,-1.5635,-1.5818,-1.5792,-1.5611,-1.5397,-1.7003,-1.7867,-1.7831,-1.9432,-2.0489,-2.0576,-2.0576,-2.0576,-2.0576,-2.0576,-2.1247,-2.2254,-2.2071,-2.2232,-2.3616,-2.3502,-2.3502,-2.3929,-2.4079,-2.4607,-2.5234,-2.5598,-2.5954,-2.64,-2.6552,-2.6521,-2.6577,-2.6589,-2.6521,-2.6308,-2.5237,-2.456,-2.4767,-2.3812,-2.257,-2.1646,-2.0874,-1.9837,-1.8267,-1.7141,-1.6374,-1.579,-1.5322,-1.5112,-1.4712,-1.4099,-1.3528,-1.3745,-1.381,-1.4243,-1.5163,-1.6228,-1.7148,-1.7647,-1.8008,-1.8008,-1.8008,-1.8008,-1.8123,-1.8742,-1.9414,-1.9946,-1.9981,-2.0297,-2.0619,-2.0062,-1.985,-2.0042,-2.0484,-2.1051,-2.1758,-2.2423,-2.2995,-2.3275,1.0721,1.0721,1.0721,1.0721,1.07,1.0555,1.0463,1.0399,1.0161,1.0022,0.9964,0.9866,0.9819,0.9819,0.9819,0.9819,0.9674,0.8924,0.8064,0.7065,0.6336,0.4689,0.2678,0.2224,0.1423,-0.0213,-0.2697,-0.3964,-0.4526,-0.6728,-0.8038,-0.8333,-0.9702,-1.1068,-1.1945,-1.359,-1.4854,-1.573,-1.5825,-1.5903,-1.6145,-1.747,-1.8237,-1.8567,-1.9835,-2.0576,-2.0576,-2.0576,-2.0576,-2.0576,-2.0566,-2.1247,-2.2535,-2.3671,-2.4308,-2.4466,-2.4418,-2.4343,-2.4556,-2.4895,-2.5184,-2.5611,-2.595,-2.6226,-2.6414,-2.6521,-2.6521,-2.6521,-2.6521,-2.6521,-2.6277,-2.546,-2.4695,-2.4435,-2.2883,-2.1815,-2.1136,-2.0141,-1.8939,-1.7638,-1.6613,-1.5488,-1.4379,-1.4043,-1.3889,-1.3404,-1.3025,-1.2813,-1.2806,-1.331,-1.4091,-1.5021,-1.6009,-1.6862,-1.7647,-1.8008,-1.8008,-1.8008,-1.8008,-1.8076,-1.8654,-1.9575,-2.005,-2.0532,-2.0868,-2.0707,-2.0085,-1.9901,-2.0093,-2.067,-2.1376,-2.2086,-2.2831,-2.3216,-2.3508,1.0721,1.0721,1.0721,1.0721,1.0711,1.0612,1.0544,1.0463,1.0239,1.0103,1.0029,0.9886,0.9819,0.9819,0.9819,0.9819,0.9795,0.9568,0.8962,0.8055,0.7598,0.6144,0.3791,0.2664,0.1423,-0.0107,-0.2191,-0.3478,-0.4119,-0.6126,-0.7537,-0.8134,-0.9801,-1.1072,-1.2042,-1.3686,-1.5045,-1.573,-1.5818,-1.6144,-1.6862,-1.77,-1.8558,-1.9255,-2.0165,-2.0576,-2.0576,-2.0576,-2.0576,-2.0644,-2.0934,-2.1741,-2.2922,-2.4291,-2.5103,-2.5094,-2.4946,-2.4883,-2.5109,-2.5372,-2.5711,-2.5925,-2.6264,-2.6521,-2.6521,-2.6521,-2.6521,-2.6521,-2.6521,-2.6314,-2.5873,-2.4992,-2.4174,-2.347,-2.2342,-2.1226,-2.0516,-1.916,-1.7946,-1.6806,-1.5771,-1.4582,-1.3627,-1.3193,-1.2959,-1.2465,-1.2305,-1.2305,-1.2378,-1.2813,-1.3738,-1.4728,-1.5508,-1.6576,-1.7725,-1.8008,-1.8008,-1.8008,-1.8008,-1.8134,-1.8462,-1.9672,-2.0545,-2.095,-2.1325,-2.0861,-2.0275,-1.9936,-2.0003,-2.0855,-2.1568,-2.2132,-2.2711,-2.3275,-2.3551,1.0721,1.0721,1.0721,1.0721,1.0721,1.0707,1.0633,1.0504,1.0334,1.0195,1.0059,0.9897,0.9819,0.9819,0.9819,0.9819,0.9791,0.9663,0.9507,0.9221,0.8765,0.7727,0.5688,0.3312,0.1415,0.0,-0.1466,-0.2769,-0.4019,-0.5525,-0.6631,-0.8134,-1.0288,-1.175,-1.2237,-1.437,-1.5534,-1.573,-1.5825,-1.6206,-1.7086,-1.7802,-1.8617,-1.9462,-2.0182,-2.0576,-2.0576,-2.0576,-2.0576,-2.0722,-2.1527,-2.2531,-2.3341,-2.4014,-2.4932,-2.5557,-2.5172,-2.5285,-2.5536,-2.5711,-2.5912,-2.6314,-2.6402,-2.6521,-2.6521,-2.6521,-2.6521,-2.6452,-2.6383,-2.5943,-2.5158,-2.4036,-2.304,-2.2017,-2.149,-2.0728,-1.9246,-1.7971,-1.6919,-1.5944,-1.4782,-1.3861,-1.3307,-1.3213,-1.2906,-1.2485,-1.2305,-1.2305,-1.2305,-1.2666,-1.3375,-1.4299,-1.5296,-1.6367,-1.7579,-1.8008,-1.8008,-1.8008,-1.8134,-1.8395,-1.8911,-2.0246,-2.0989,-2.1387,-2.1594,-2.1091,-2.0489,-2.0112,-2.0118,-2.0746,-2.1369,-2.1927,-2.2575,-2.3187,-2.3551,1.0721,1.0721,1.0721,1.0721,1.0721,1.0721,1.0697,1.0629,1.0388,1.0263,1.0164,0.9934,0.9825,0.9819,0.9819,0.9819,0.9788,0.968,0.9527,0.9371,0.9195,0.7564,0.5258,0.3226,0.1423,0.0,-0.1269,-0.2697,-0.4024,-0.5225,-0.6631,-0.8041,-0.9702,-1.1072,-1.2042,-1.359,-1.4854,-1.5635,-1.5825,-1.6116,-1.6899,-1.7707,-1.8524,-1.9164,-2.0058,-2.0566,-2.0576,-2.0576,-2.0576,-2.0722,-2.2264,-2.3147,-2.3576,-2.4908,-2.5822,-2.607,-2.6088,-2.6038,-2.6163,-2.6214,-2.6382,-2.6483,-2.6521,-2.6521,-2.6521,-2.6521,-2.6521,-2.6383,-2.5873,-2.53,-2.4791,-2.3368,-2.1714,-2.011,-1.9875,-1.9571,-1.8789,-1.7326,-1.5944,-1.5621,-1.4741,-1.396,-1.342,-1.318,-1.2986,-1.2518,-1.2325,-1.2331,-1.2351,-1.2378,-1.2945,-1.4307,-1.5438,-1.6437,-1.7295,-1.7794,-1.8008,-1.8008,-1.8269,-1.8777,-1.9803,-2.1342,-2.1632,-2.18,-2.1963,-2.1619,-2.079,-2.015,-2.0476,-2.0851,-2.1307,-2.1899,-2.2575,-2.3187,-2.3465,1.0721,1.0721,1.0721,1.0721,1.0721,1.0721,1.0721,1.0677,1.0477,1.0331,1.0236,1.0032,0.988,0.9825,0.9819,0.9819,0.9808,0.9737,0.9581,0.9364,0.9154,0.7321,0.4921,0.3462,0.2088,0.0107,-0.0746,-0.2186,-0.3739,-0.482,-0.6126,-0.7932,-0.9312,-1.0681,-1.1945,-1.3204,-1.4555,-1.554,-1.5812,-1.6316,-1.7455,-1.7961,-1.8895,-1.9613,-2.0458,-2.0576,-2.0576,-2.0576,-2.0576,-2.0944,-2.2038,-2.3073,-2.3588,-2.5004,-2.6025,-2.6383,-2.6521,-2.6508,-2.6521,-2.6521,-2.6521,-2.6521,-2.6521,-2.6521,-2.6521,-2.6521,-2.6521,-2.6383,-2.5581,-2.485,-2.4024,-2.2232,-2.042,-1.9256,-1.8221,-1.7658,-1.7649,-1.6511,-1.5538,-1.5061,-1.4461,-1.3921,-1.344,-1.322,-1.306,-1.2752,-1.2452,-1.2458,-1.2465,-1.2446,-1.2732,-1.4019,-1.5155,-1.6079,-1.701,-1.7579,-1.8008,-1.8008,-1.8721,-1.9166,-2.0257,-2.1768,-2.197,-2.2023,-2.2168,-2.2008,-2.1029,-2.0458,-2.0772,-2.1133,-2.1485,-2.2039,-2.2711,-2.3187,-2.3465,1.0721,1.0721,1.0721,1.0721,1.0721,1.0721,1.0721,1.069,1.0548,1.0402,1.0266,1.0117,0.9951,0.9822,0.9819,0.9819,0.9819,0.9805,0.9625,0.9374,0.8888,0.7487,0.5252,0.447,0.286,0.0752,0.0107,-0.1463,-0.3155,-0.3929,-0.542,-0.7425,-0.911,-1.0681,-1.1945,-1.3204,-1.4555,-1.5534,-1.5825,-1.6707,-1.8024,-1.8349,-1.9022,-2.0467,-2.0644,-2.0586,-2.0576,-2.0576,-2.0576,-2.0576,-2.1593,-2.2702,-2.3599,-2.448,-2.5511,-2.6314,-2.6521,-2.6521,-2.6521,-2.6521,-2.6521,-2.6521,-2.6521,-2.6521,-2.6452,-2.6314,-2.6164,-2.6164,-2.5358,-2.3952,-2.268,-2.0488,-1.9097,-1.8221,-1.6756,-1.5861,-1.5538,-1.5538,-1.513,-1.4075,-1.3906,-1.3767,-1.3517,-1.3272,-1.3068,-1.2999,-1.2719,-1.2572,-1.2525,-1.2493,-1.2854,-1.3673,-1.4665,-1.5587,-1.6507,-1.7432,-1.7794,-1.8076,-1.911,-1.9748,-2.0333,-2.1335,-2.1861,-2.2172,-2.2443,-2.197,-2.0983,-2.0794,-2.1082,-2.1246,-2.1417,-2.2225,-2.3039,-2.3319,-2.3595,1.0721,1.0721,1.0721,1.0721,1.0721,1.0721,1.0721,1.0707,1.0558,1.0412,1.027,1.0117,0.9964,0.9819,0.994,0.9819,0.9937,0.9795,0.9659,0.9371,0.9076,0.7943,0.6142,0.5139,0.3427,0.1737,0.0429,-0.0842,-0.2369,-0.3641,-0.4818,-0.6526,-0.8715,-1.0583,-1.1848,-1.3108,-1.4561,-1.5534,-1.5825,-1.665,-1.8081,-1.8308,-1.9045,-2.0584,-2.0635,-2.0586,-2.0576,-2.0576,-2.0576,-2.1011,-2.2113,-2.322,-2.3734,-2.5063,-2.6025,-2.6383,-2.6521,-2.6521,-2.6521,-2.6521,-2.6521,-2.6521,-2.6521,-2.6452,-2.6452,-2.5734,-2.5441,-2.4992,-2.3661,-2.2167,-2.0488,-1.9571,-1.8221,-1.6919,-1.5936,-1.5206,-1.4643,-1.4489,-1.3886,-1.3112,-1.276,-1.2578,-1.2337,-1.2264,-1.2426,-1.2969,-1.2979,-1.2739,-1.2612,-1.2512,-1.2836,-1.3419,-1.4522,-1.5446,-1.6158,-1.7148,-1.7794,-1.8076,-1.8911,-2.0009,-2.0526,-2.1106,-2.1653,-2.2212,-2.2714,-2.1983,-2.1134,-2.1046,-2.1358,-2.1389,-2.1452,-2.2146,-2.2756,-2.3187,-2.3595,1.0721,1.0721,1.0721,1.0721,1.0721,1.0721,1.0721,1.0687,1.0558,1.0412,1.052,1.0856,1.1061,1.0906,1.0899,1.0899,1.0616,0.9902,0.9534,0.933,0.9086,0.8497,0.7374,0.5577,0.3657,0.2183,0.0752,-0.0633,-0.2069,-0.3351,-0.472,-0.6029,-0.812,-0.9993,-1.1653,-1.2624,-1.398,-1.5439,-1.5818,-1.6686,-1.8226,-1.8308,-1.8993,-2.0251,-2.0576,-2.0576,-2.0576,-2.0576,-2.0576,-2.1088,-2.2414,-2.3514,-2.3588,-2.4541,-2.5429,-2.6371,-2.6521,-2.6521,-2.6521,-2.6521,-2.6521,-2.6521,-2.6521,-2.6164,-2.5873,-2.5229,-2.4779,-2.4108,-2.284,-2.1191,-1.9265,-1.7819,-1.6838,-1.5936,-1.4685,-1.3937,-1.3451,-1.3203,-1.3112,-1.2328,-1.1901,-1.1582,-1.1313,-1.121,-1.179,-1.2416,-1.2295,-1.2148,-1.2899,-1.2772,-1.2635,-1.3176,-1.441,-1.5376,-1.5939,-1.6793,-1.7794,-1.8076,-1.8395,-1.9497,-2.0398,-2.0894,-2.1428,-2.2116,-2.2786,-2.2334,-2.1619,-2.165,-2.1488,-2.1485,-2.1659,-2.2066,-2.2529,-2.3187,-2.3508,1.0721,1.0721,1.0721,1.0721,1.0721,1.0721,1.0721,1.0697,1.0585,1.0446,1.0658,1.1864,1.22,1.2251,1.2453,1.2573,1.212,1.1168,1.0539,1.0033,0.9626,0.9172,0.8263,0.6246,0.4221,0.2517,0.0861,-0.0634,-0.1663,-0.3252,-0.442,-0.5827,-0.7335,-0.9213,-1.1068,-1.1945,-1.3108,-1.5051,-1.5629,-1.6772,-1.8394,-1.8502,-1.9059,-2.0251,-2.0576,-2.0576,-2.0576,-2.0576,-2.0576,-2.0722,-2.2339,-2.322,-2.3588,-2.4036,-2.4541,-2.6452,-2.6521,-2.6521,-2.6521,-2.6521,-2.6521,-2.6521,-2.6245,-2.5873,-2.5229,-2.4564,-2.3963,-2.3147,-2.2017,-2.0575,-1.8868,-1.7163,-1.5854,-1.4851,-1.3341,-1.2407,-1.198,-1.1901,-1.1638,-1.1466,-1.0783,-1.0322,-1.0282,-1.0218,-1.1113,-1.1764,-1.1577,-1.1798,-1.2627,-1.2906,-1.2709,-1.3036,-1.4186,-1.5869,-1.6655,-1.6941,-1.7862,-1.8202,-1.8269,-1.9299,-2.0462,-2.1369,-2.2042,-2.2333,-2.2636,-2.2297,-2.1958,-2.1656,-2.1584,-2.1603,-2.1758,-2.2024,-2.2515,-2.3187,-2.3421,1.0721,1.0721,1.0721,1.0721,1.0721,1.0721,1.0721,1.0717,1.068,1.0527,1.0545,1.1984,1.2632,1.2772,1.3765,1.4123,1.3788,1.2892,1.2232,1.1261,1.0743,1.0135,0.8598,0.7035,0.5349,0.3758,0.1624,0.0,-0.0946,-0.2664,-0.4123,-0.492,-0.6828,-0.892,-1.0391,-1.1361,-1.2721,-1.4561,-1.5425,-1.6865,-1.8345,-1.8807,-1.9051,-2.0498,-2.0576,-2.0576,-2.0576,-2.0576,-2.0576,-2.0722,-2.1669,-2.2627,-2.3514,-2.4767,-2.5804,-2.6383,-2.6521,-2.6521,-2.6521,-2.6521,-2.6521,-2.6302,-2.5755,-2.5276,-2.4624,-2.3492,-2.2711,-2.1855,-2.0556,-1.9018,-1.7738,-1.6183,-1.4761,-1.3425,-1.2492,-1.1724,-1.0956,-1.0183,-0.9662,-0.9662,-0.9318,-0.9148,-0.9113,-0.9347,-1.0221,-1.1006,-1.1327,-1.1906,-1.285,-1.2852,-1.2445,-1.3134,-1.4027,-1.5799,-1.7432,-1.7579,-1.8008,-1.8337,-1.8654,-1.9562,-2.0782,-2.2051,-2.2737,-2.2805,-2.279,-2.2627,-2.2297,-2.1807,-2.153,-2.1407,-2.1659,-2.1866,-2.2377,-2.2905,-2.3363,1.0721,1.0721,1.0721,1.0721,1.0721,1.0721,1.0721,1.0707,1.0636,1.0991,1.1802,1.3026,1.4178,1.4779,1.5429,1.5429,1.4724,1.4139,1.316,1.1925,1.13,1.0351,0.8823,0.7371,0.5919,0.4317,0.2274,0.0639,-0.0212,-0.2763,-0.3823,-0.4618,-0.6725,-0.892,-1.0583,-1.1658,-1.3011,-1.4459,-1.5514,-1.6779,-1.8847,-1.923,-2.0186,-2.0349,-2.0576,-2.0576,-2.0576,-2.0576,-2.0576,-2.0789,-2.1527,-2.2178,-2.2988,-2.4097,-2.5429,-2.6233,-2.6383,-2.6452,-2.6452,-2.6452,-2.6302,-2.5685,-2.5001,-2.4236,-2.343,-2.237,-2.1377,-2.0285,-1.9228,-1.7658,-1.6601,-1.5011,-1.351,-1.2401,-1.137,-1.0428,-0.9657,-0.8619,-0.8273,-0.8097,-0.8101,-0.8013,-0.7929,-0.8436,-0.9305,-1.0052,-1.0877,-1.1863,-1.2988,-1.2826,-1.2392,-1.3258,-1.4155,-1.5649,-1.7295,-1.7794,-1.8008,-1.8269,-1.8921,-1.989,-2.0655,-2.1741,-2.2506,-2.2895,-2.288,-2.2865,-2.2435,-2.187,-2.1581,-2.1247,-2.1334,-2.1512,-2.2049,-2.2575,-2.3128,1.0721,1.0721,1.0721,1.0721,1.0721,1.0721,1.0982,1.1083,1.1116,1.197,1.3255,1.4701,1.5948,1.6796,1.7091,1.6844,1.551,1.5172,1.4065,1.2602,1.1837,1.0785,0.8927,0.7706,0.6475,0.5113,0.3458,0.1703,-0.0212,-0.2662,-0.3825,-0.4718,-0.6728,-0.8825,-1.0485,-1.1458,-1.3204,-1.437,-1.5724,-1.685,-1.8619,-2.0107,-2.0847,-2.0625,-2.0576,-2.0576,-2.0576,-2.0576,-2.0576,-2.0867,-2.1375,-2.2038,-2.2178,-2.2999,-2.4253,-2.5569,-2.5861,-2.5873,-2.5861,-2.5791,-2.5276,-2.4767,-2.4167,-2.3201,-2.2274,-2.1367,-2.0262,-1.8876,-1.7658,-1.6503,-1.5343,-1.3587,-1.2287,-1.1209,-0.9924,-0.874,-0.838,-0.7778,-0.745,-0.7285,-0.7129,-0.7228,-0.7404,-0.7661,-0.8528,-0.989,-1.0632,-1.1584,-1.2606,-1.2709,-1.2662,-1.3426,-1.4378,-1.5649,-1.6862,-1.7803,-1.794,-1.8076,-1.8921,-1.989,-2.0526,-2.1227,-2.2051,-2.2944,-2.3053,-2.2962,-2.2447,-2.2033,-2.1718,-2.1406,-2.1134,-2.1229,-2.1855,-2.2452,-2.2965,1.0721,1.0721,1.0721,1.0721,1.0721,1.0721,1.1633,1.2795,1.2759,1.3722,1.4998,1.6429,1.7018,1.7415,1.8525,1.8881,1.8481,1.7748,1.5974,1.3743,1.2937,1.1324,0.9265,0.8826,0.7485,0.622,0.4855,0.2663,0.0211,-0.2456,-0.3917,-0.4518,-0.6326,-0.8333,-0.9312,-1.1068,-1.2042,-1.2818,-1.4746,-1.6636,-1.8208,-1.9353,-2.0018,-2.0449,-2.0576,-2.0576,-2.0576,-2.0576,-2.0576,-2.0712,-2.1441,-2.1962,-2.2178,-2.2914,-2.3441,-2.3806,-2.3806,-2.3891,-2.4036,-2.4181,-2.4097,-2.3649,-2.2908,-2.2254,-2.1374,-2.012,-1.884,-1.7624,-1.6519,-1.5396,-1.4289,-1.2971,-1.1346,-1.0049,-0.8972,-0.8064,-0.7479,-0.7447,-0.7037,-0.7112,-0.7136,-0.7139,-0.7228,-0.7489,-0.791,-0.9262,-1.047,-1.1409,-1.2122,-1.2311,-1.2601,-1.328,-1.4307,-1.5587,-1.6437,-1.7373,-1.794,-1.8008,-1.8721,-1.9694,-2.0268,-2.091,-2.2125,-2.2823,-2.2944,-2.3053,-2.2824,-2.2422,-2.1995,-2.1559,-2.1195,-2.1332,-2.165,-2.2235,-2.2663,1.0721,1.0721,1.0721,1.0721,1.0721,1.0721,1.1633,1.3041,1.3206,1.4412,1.6382,1.7085,1.7673,1.8336,1.9127,1.9366,1.9239,1.8758,1.6894,1.4617,1.3392,1.176,0.9482,0.8826,0.8156,0.6979,0.5737,0.4039,0.1259,-0.1336,-0.3115,-0.4216,-0.5922,-0.7822,-0.8821,-1.0872,-1.2237,-1.3544,-1.523,-1.6965,-1.8118,-1.8984,-1.9839,-2.0518,-2.0576,-2.0576,-2.0576,-2.0576,-2.0576,-2.0644,-2.1078,-2.1145,-2.1231,-2.1603,-2.1832,-2.1821,-2.1821,-2.2414,-2.3294,-2.3441,-2.3147,-2.2678,-2.1977,-2.1162,-2.009,-1.8804,-1.7577,-1.6519,-1.5335,-1.4185,-1.2816,-1.1259,-0.9947,-0.8765,-0.8066,-0.7624,-0.7066,-0.7015,-0.698,-0.7065,-0.7136,-0.7129,-0.7122,-0.7204,-0.7683,-0.876,-0.9844,-1.0589,-1.1474,-1.2119,-1.2472,-1.2966,-1.4091,-1.5376,-1.6158,-1.701,-1.7794,-1.8008,-1.8076,-1.8977,-1.9759,-2.0655,-2.1803,-2.258,-2.2763,-2.2871,-2.2967,-2.2711,-2.2184,-2.1718,-2.1301,-2.1407,-2.1565,-2.141,-2.1921,1.1762,1.1372,1.1372,1.1633,1.2022,1.2022,1.3062,1.4465,1.441,1.5846,1.7579,1.8034,1.8475,1.9166,1.9366,1.9366,1.9319,1.8758,1.7042,1.5233,1.3852,1.2214,1.046,0.9478,0.8813,0.7254,0.6577,0.4994,0.2834,0.0308,-0.1808,-0.3915,-0.5422,-0.722,-0.9106,-1.0681,-1.1945,-1.3861,-1.5511,-1.6944,-1.8078,-1.865,-1.9516,-2.0222,-2.0576,-2.0576,-2.0576,-2.0576,-2.0576,-2.0644,-2.0644,-2.0712,-2.0799,-2.0867,-2.0867,-2.0867,-2.0867,-2.1298,-2.2188,-2.2489,-2.2339,-2.1782,-2.0959,-1.9822,-1.8022,-1.7121,-1.6175,-1.4851,-1.4169,-1.2884,-1.1427,-0.9715,-0.883,-0.8054,-0.7292,-0.7035,-0.6831,-0.6807,-0.6898,-0.7065,-0.7115,-0.7105,-0.7099,-0.7088,-0.7541,-0.8437,-0.9243,-0.9876,-1.0838,-1.1752,-1.2513,-1.3018,-1.3738,-1.5092,-1.6158,-1.6862,-1.751,-1.8008,-1.8066,-1.8462,-1.9365,-2.0204,-2.1175,-2.1815,-2.2433,-2.275,-2.2919,-2.2618,-2.2359,-2.1952,-2.1597,-2.144,-2.1368,-2.1139,-2.1506,1.4623,1.3193,1.3193,1.3975,1.5394,1.5524,1.6431,1.7546,1.7581,1.8327,1.9477,1.9443,1.9173,1.9366,1.9366,1.9359,1.9319,1.8758,1.7372,1.6226,1.5367,1.33,1.1542,1.0457,1.0014,0.8549,0.7446,0.5948,0.4208,0.2456,-0.0503,-0.3613,-0.492,-0.6528,-0.8223,-0.9698,-1.1745,-1.355,-1.5078,-1.6447,-1.7525,-1.8287,-1.8918,-2.0213,-2.0586,-2.0576,-2.0576,-2.0576,-2.0576,-2.0576,-2.0576,-2.0576,-2.0576,-2.0411,-2.0323,-2.0227,-2.006,-2.0333,-2.0584,-2.0864,-2.0779,-2.0459,-1.9565,-1.8232,-1.6541,-1.5912,-1.4747,-1.3096,-1.2445,-1.1267,-1.0,-0.8818,-0.795,-0.7105,-0.6502,-0.6555,-0.6486,-0.6603,-0.6722,-0.6997,-0.7085,-0.7054,-0.7044,-0.7027,-0.7128,-0.7942,-0.8797,-0.9496,-1.0701,-1.1658,-1.2539,-1.3171,-1.36,-1.4665,-1.6149,-1.6932,-1.751,-1.7998,-1.8269,-1.8596,-1.911,-1.9955,-2.0858,-2.1369,-2.2041,-2.247,-2.2834,-2.2643,-2.2472,-2.2234,-2.192,-2.1482,-2.1238,-2.1109,-2.1759,1.6172,1.6431,1.6436,1.6302,1.5913,1.5913,1.6738,1.7989,1.7995,1.8514,1.97,1.9466,1.9366,1.9366,1.9352,1.9259,1.9058,1.8698,1.7512,1.6448,1.5286,1.3717,1.1969,1.1,1.0339,0.8972,0.799,0.6995,0.5702,0.3883,0.1511,-0.1202,-0.3712,-0.5322,-0.6918,-0.9106,-1.1356,-1.3188,-1.4444,-1.5458,-1.7071,-1.7959,-1.8624,-1.9687,-2.0469,-2.0586,-2.0576,-2.0576,-2.0576,-2.0576,-2.0576,-2.0576,-2.0489,-2.0079,-1.9712,-1.9425,-1.9127,-1.8822,-1.8783,-1.904,-1.9353,-1.8408,-1.7464,-1.6292,-1.5183,-1.4198,-1.3218,-1.1887,-1.0789,-0.9597,-0.8954,-0.7848,-0.6855,-0.6077,-0.5734,-0.5863,-0.5863,-0.591,-0.61,-0.6205,-0.6704,-0.6966,-0.6963,-0.6963,-0.713,-0.7355,-0.8272,-0.9239,-1.0385,-1.1459,-1.2204,-1.3025,-1.3455,-1.4243,-1.5649,-1.6576,-1.7432,-1.792,-1.8337,-1.8596,-1.8977,-1.9944,-2.0771,-2.1209,-2.1737,-2.225,-2.2621,-2.2677,-2.2598,-2.2447,-2.1882,-2.1239,-2.1081,-2.103,-2.1616,1.7859,1.8506,1.9024,1.8634,1.7468,1.7468,1.7978,1.8744,1.8606,1.8677,1.9372,1.9366,1.9366,1.9352,1.9245,1.9145,1.8871,1.8426,1.7586,1.6888,1.6126,1.425,1.2615,1.1524,1.0958,0.9363,0.8531,0.7731,0.6287,0.4788,0.2717,0.0301,-0.2006,-0.4117,-0.642,-0.8996,-1.1458,-1.2915,-1.4339,-1.5155,-1.698,-1.747,-1.8112,-1.8937,-1.9684,-2.0046,-2.0215,-2.0323,-2.0576,-2.0576,-2.0576,-2.0576,-2.0323,-1.9856,-1.9201,-1.8554,-1.8013,-1.7536,-1.7375,-1.7652,-1.7971,-1.7058,-1.5769,-1.4947,-1.3959,-1.25,-1.1441,-1.063,-0.9297,-0.8315,-0.7979,-0.6887,-0.6069,-0.5342,-0.4821,-0.4844,-0.4758,-0.4748,-0.5112,-0.5434,-0.5861,-0.6186,-0.6466,-0.645,-0.6798,-0.7108,-0.7795,-0.8755,-0.9771,-1.087,-1.1761,-1.2505,-1.3164,-1.4091,-1.5163,-1.5869,-1.6724,-1.7862,-1.8202,-1.8405,-1.8921,-1.9814,-2.0707,-2.1369,-2.1848,-2.2233,-2.2355,-2.2276,-2.251,-2.2652,-2.1882,-2.097,-2.0901,-2.0848,-2.097,1.9935,1.8768,2.0316,2.0836,2.0556,2.0843,2.0658,2.0185,2.0024,1.9615,1.9392,1.9366,1.9366,1.9305,1.9125,1.8945,1.8764,1.8343,1.782,1.7587,1.7164,1.5541,1.4126,1.2817,1.1562,0.9344,0.8451,0.7783,0.6519,0.4768,0.3219,0.1406,-0.1105,-0.3718,-0.6124,-0.978,-1.175,-1.2334,-1.437,-1.5531,-1.6656,-1.7056,-1.7556,-1.8006,-1.885,-1.921,-1.9297,-1.9618,-1.9854,-1.9923,-2.0001,-2.0001,-1.9923,-1.9835,-1.9132,-1.813,-1.8294,-1.7811,-1.6917,-1.7144,-1.6472,-1.5576,-1.4289,-1.3487,-1.2294,-1.104,-0.9925,-0.9222,-0.8341,-0.771,-0.6822,-0.5897,-0.5222,-0.4437,-0.3922,-0.375,-0.3667,-0.3824,-0.4232,-0.4731,-0.4856,-0.5143,-0.5513,-0.5858,-0.637,-0.6839,-0.7426,-0.8268,-0.9377,-1.0645,-1.1768,-1.2285,-1.3091,-1.4019,-1.4871,-1.5234,-1.6009,-1.7295,-1.8076,-1.8269,-1.8596,-1.9309,-2.0257,-2.1318,-2.1571,-2.152,-2.1745,-2.1895,-2.197,-2.192,-2.1405,-2.0787,-2.072,-2.0646,-2.0633,2.0716,2.0309,2.0645,2.0822,2.0822,2.0822,2.0555,2.0094,1.9793,1.9546,1.9399,1.9366,1.9366,1.9272,1.9045,1.8804,1.8571,1.829,1.7996,1.7736,1.7622,1.6405,1.4984,1.3567,1.2178,1.0396,0.9173,0.8401,0.7648,0.5367,0.4123,0.251,-0.0903,-0.4117,-0.6024,-0.8506,-0.9899,-1.1653,-1.3,-1.4011,-1.6006,-1.6649,-1.7056,-1.7309,-1.7965,-1.8245,-1.815,-1.8619,-1.8718,-1.8709,-1.8709,-1.8709,-1.847,-1.8301,-1.7204,-1.6134,-1.5833,-1.483,-1.3981,-1.3732,-1.3814,-1.3368,-1.2847,-1.1916,-1.0751,-0.9499,-0.8685,-0.8062,-0.7361,-0.6652,-0.5534,-0.5143,-0.4437,-0.3087,-0.2522,-0.2679,-0.2678,-0.3066,-0.3493,-0.3966,-0.4299,-0.5322,-0.5946,-0.5932,-0.6334,-0.6942,-0.7553,-0.8345,-0.9372,-1.087,-1.215,-1.2439,-1.3091,-1.3947,-1.4728,-1.5163,-1.5939,-1.7285,-1.7862,-1.8076,-1.8462,-1.9044,-1.9814,-2.0899,-2.0848,-2.0792,-2.1072,-2.1281,-2.1167,-2.0983,-2.0706,-2.0401,-2.0258,-2.0156,-2.0093,2.1102,2.1069,2.0795,2.0615,2.0535,2.0521,2.0234,1.98,1.9499,1.9366,1.9366,1.9366,1.9292,1.9152,1.8905,1.8611,1.8323,1.8023,1.7842,1.7589,1.7589,1.6605,1.5417,1.4314,1.2738,1.1186,0.9878,0.9006,0.7975,0.5856,0.4221,0.2209,-0.1003,-0.3413,-0.552,-0.7515,-0.9899,-1.1653,-1.2807,-1.3974,-1.5448,-1.6185,-1.6472,-1.6584,-1.6953,-1.7334,-1.7227,-1.7252,-1.7261,-1.7261,-1.7261,-1.7253,-1.6935,-1.6611,-1.5567,-1.4649,-1.3037,-1.2242,-1.178,-1.1776,-1.1798,-1.1112,-1.0964,-1.0418,-0.9384,-0.8414,-0.7419,-0.6756,-0.6185,-0.5317,-0.454,-0.4235,-0.3212,-0.1881,-0.149,-0.1568,0.0,0.0,0.0,0.0,-0.3767,-0.4956,-0.6188,-0.6281,-0.6312,-0.7009,-0.7696,-0.8498,-0.9145,-1.0496,-1.1848,-1.2365,-1.2732,-1.3375,-1.4307,-1.5163,-1.6149,-1.7285,-1.7647,-1.7862,-1.8596,-1.9177,-1.9824,-2.0222,-2.0136,-2.0205,-2.0499,-2.0618,-2.0561,-2.0451,-2.0313,-2.0075,-1.9836,-1.9798,-1.9798,2.1102,2.1056,2.0782,2.0481,2.0241,2.0187,2.002,1.976,1.9486,1.9366,1.9366,1.9345,1.9199,1.8911,1.8624,1.8343,1.8076,1.7769,1.7642,1.7595,1.7589,1.6611,1.5956,1.518,1.3435,1.1717,1.0302,0.9362,0.7975,0.6029,0.4119,0.2111,-0.0804,-0.2913,-0.5014,-0.7211,-0.969,-1.1161,-1.2619,-1.3782,-1.5108,-1.5792,-1.5919,-1.5978,-1.6206,-1.6308,-1.6387,-1.6491,-1.6786,-1.687,-1.6846,-1.6927,-1.6919,-1.709,-1.5449,-1.3627,-1.1344,-1.0879,-1.0399,-1.0459,-0.9913,-0.9309,-0.8835,-0.8556,-0.807,-0.7163,-0.6273,-0.5399,-0.4762,-0.4023,-0.3376,-0.2666,-0.1881,-0.1176,-0.0628,0.0,0.0,0.0,0.0,0.0,0.0,-0.4076,-0.5662,-0.6102,-0.6247,-0.6634,-0.7254,-0.7885,-0.8613,-0.9226,-1.0576,-1.1848,-1.2218,-1.2732,-1.3665,-1.4665,-1.5799,-1.6784,-1.7432,-1.7716,-1.8509,-1.9044,-1.9431,-1.9641,-1.9476,-1.9703,-2.0292,-2.0263,-1.996,-1.9911,-2.0012,-1.9962,-1.9798,-1.9798,-1.9798,2.0989,2.0775,2.0481,2.0194,1.9913,1.9706,1.9559,1.9479,1.9392,1.9366,1.9352,1.9138,1.8998,1.8878,1.8404,1.8163,1.7949,1.7762,1.7635,1.7589,1.7589,1.7364,1.6704,1.5795,1.4129,1.2526,1.1209,1.0043,0.7885,0.6022,0.4019,0.181,-0.0302,-0.231,-0.4114,-0.6116,-0.8297,-1.028,-1.1741,-1.3102,-1.4364,-1.5242,-1.5354,-1.5605,-1.564,-1.5694,-1.5658,-1.5433,-1.5481,-1.5097,-1.4189,-1.3833,-1.3749,-1.3056,-1.177,-1.1383,-1.0449,-0.9981,-0.9294,-0.9243,-0.8786,-0.7614,-0.6947,-0.635,-0.5996,-0.5661,-0.4906,-0.4142,-0.3593,-0.302,-0.2372,-0.1658,-0.1102,-0.0628,0.0,0.0,0.0,0.0,0.0,0.0,0.0,-0.336,-0.5043,-0.5996,-0.6159,-0.6376,-0.6809,-0.7358,-0.8008,-0.8618,-0.9523,-1.087,-1.1613,-1.2057,-1.2945,-1.4019,-1.5155,-1.621,-1.6784,-1.7432,-1.791,-1.8452,-1.8844,-1.9157,-1.9298,-1.9762,-2.0323,-2.0235,-1.9999,-1.9823,-1.9874,-1.9836,-1.9798,-1.9798,-1.9798,2.0835,2.0628,2.0227,1.9893,1.9626,1.9446,1.9366,1.9366,1.9366,1.9319,1.9172,1.9011,1.8798,1.8524,1.8203,1.7983,1.7829,1.7689,1.7589,1.7589,1.7589,1.7582,1.714,1.6472,1.5225,1.3718,1.2369,1.1262,0.866,0.6221,0.4119,0.2814,0.0502,-0.1407,-0.3114,-0.4616,-0.6218,-0.8301,-1.0079,-1.1648,-1.3102,-1.4364,-1.4854,-1.5095,-1.5071,-1.5166,-1.4874,-1.4581,-1.4117,-1.3521,-1.2504,-1.2072,-1.1729,-1.0692,-0.999,-0.9667,-0.9068,-0.8213,-0.7469,-0.7341,-0.6734,-0.599,-0.5145,-0.4482,-0.4263,-0.4036,-0.3476,-0.2844,-0.2583,-0.2245,-0.1517,-0.0875,-0.0474,-0.0079,0.0,0.0,0.0,0.0,0.0,0.0,-0.1785,-0.2891,-0.4112,-0.5175,-0.5814,-0.5778,-0.6038,-0.6666,-0.7326,-0.7936,-0.8841,-0.997,-1.0714,-1.1304,-1.2338,-1.3302,-1.4299,-1.5359,-1.628,-1.6853,-1.7364,-1.7959,-1.8516,-1.8922,-1.9348,-1.9738,-2.0147,-2.0329,-2.02,-2.0062,-1.9924,-1.9874,-1.9849,-1.9798,-1.9798,2.0661,2.0581,2.0013,1.9626,1.9392,1.9372,1.9461,1.9557,1.9639,1.9293,1.8958,1.8964,1.8752,1.8306,1.8198,1.8036,1.7815,1.7602,1.7589,1.7589,1.7589,1.7589,1.7502,1.7184,1.5881,1.5071,1.3896,1.2193,0.9751,0.7214,0.502,0.4016,0.2412,0.0302,-0.2212,-0.3215,-0.4818,-0.6722,-0.8506,-1.0079,-1.1648,-1.2909,-1.3776,-1.3933,-1.4303,-1.4786,-1.4508,-1.4128,-1.3578,-1.2685,-1.1809,-1.13,-1.0178,-0.9405,-0.8873,-0.8253,-0.753,-0.6646,-0.5852,-0.552,-0.4946,-0.4208,-0.3467,-0.3095,-0.2898,-0.3008,-0.2625,-0.1795,-0.1458,-0.1291,-0.0723,0.0,0.0,0.0,0.0,0.0,0.0,0.0,0.0,-0.078,-0.1479,-0.2519,-0.3016,-0.405,-0.501,-0.5033,-0.5331,-0.5957,-0.6588,-0.7281,-0.8273,-0.9251,-0.9895,-1.0645,-1.1761,-1.2718,-1.3375,-1.4371,-1.5429,-1.6349,-1.6922,-1.7503,-1.8188,-1.8622,-1.9149,-1.9451,-1.9802,-2.0006,-2.0275,-2.0401,-2.0238,-2.0024,-1.9962,-1.9972,-1.9849,2.0541,2.0287,1.9713,1.9426,1.9372,1.9366,1.9894,2.0562,2.0562,1.9956,1.9176,1.9435,1.9254,1.8441,1.8837,1.8681,1.7925,1.8094,1.7687,1.7687,1.7687,1.7752,1.7508,1.7228,1.6228,1.5154,1.4079,1.2822,1.022,0.7611,0.5422,0.4017,0.2814,0.0905,-0.1409,-0.2312,-0.3618,-0.5425,-0.6822,-0.8407,-1.0181,-1.1453,-1.242,-1.2459,-1.2786,-1.2735,-1.2495,-1.2159,-1.1641,-1.1003,-1.0101,-0.9139,-0.8013,-0.7665,-0.7041,-0.6331,-0.5977,-0.5174,-0.4372,-0.4016,-0.3728,-0.3263,-0.2798,-0.2253,-0.2048,-0.2159,-0.18,-0.0981,0.0,0.0,0.0,0.0,0.0,0.0,0.0,0.0,0.0,0.0,0.0,-0.0708,-0.1244,-0.177,-0.2197,-0.2932,-0.3948,-0.4417,-0.477,-0.5251,-0.5934,-0.6656,-0.7749,-0.8653,-0.918,-0.9986,-1.1123,-1.199,-1.2645,-1.3593,-1.4728,-1.5579,-1.6419,-1.7232,-1.8022,-1.8465,-1.8924,-1.9243,-1.9586,-1.9835,-2.0091,-2.0238,-2.0286,-1.9963,-2.0279,-2.0419,-2.0157,2.077,2.01,2.035,2.0364,2.0458,2.09,2.1391,2.1837,2.155,2.0992,2.0332,2.0193,1.9842,1.9317,1.9695,1.942,1.8708,1.931,1.8603,1.8094,1.8178,1.788,1.7633,1.7108,1.6465,1.5488,1.4323,1.2813,1.0681,0.9,0.7111,0.5018,0.3416,0.1809,-0.0302,-0.1308,-0.2615,-0.4121,-0.5225,-0.6722,-0.8506,-0.9887,-1.097,-1.1016,-1.1414,-1.1387,-1.1338,-1.1126,-1.0657,-0.9842,-0.8798,-0.7654,-0.6776,-0.6422,-0.5711,-0.4999,-0.4463,-0.4105,-0.3215,-0.2768,-0.2582,-0.212,-0.1579,-0.0867,-0.0937,-0.0999,-0.0997,0.0,0.0,0.0,0.0,0.0,0.0,0.0,0.0,0.0,0.0,0.0,0.0,-0.0268,-0.0626,-0.0715,-0.1239,-0.1831,-0.2642,-0.3045,-0.3442,-0.4508,-0.5253,-0.6061,-0.7081,-0.8015,-0.8516,-0.9227,-1.0231,-1.1127,-1.1903,-1.2851,-1.3947,-1.5226,-1.6262,-1.7175,-1.7856,-1.842,-1.8816,-1.9079,-1.9392,-1.9737,-1.9599,-1.9645,-1.9759,-1.9745,-2.0286,-2.0802,-2.0502,2.1613,2.0503,2.1484,2.1888,2.1933,2.2782,2.3227,2.3145,2.2615,2.2515,2.2386,2.1217,2.1211,2.0933,2.0837,2.0231,2.0135,2.0633,1.9716,1.9117,1.9117,1.8654,1.7879,1.6975,1.6461,1.5667,1.4612,1.3266,1.156,0.9985,0.8209,0.6221,0.482,0.3516,0.1709,0.0,-0.1609,-0.2716,-0.392,-0.5225,-0.6719,-0.8315,-0.9308,-1.019,-1.0622,-1.1111,-1.0949,-1.0543,-0.9827,-0.8581,-0.7122,-0.6151,-0.5531,-0.5087,-0.4374,-0.3749,-0.3393,-0.2681,-0.1878,-0.1612,-0.1065,-0.044,0.0,0.026,0.0256,0.0423,0.0422,0.0,0.0,0.0,0.0,0.0,0.0,0.0,0.0,0.0,0.0,0.0,0.0,0.0,0.0,0.0,0.0,0.0,-0.1391,-0.1727,-0.2394,-0.3547,-0.4596,-0.533,-0.6302,-0.7122,-0.7841,-0.8577,-0.9478,-1.0429,-1.1415,-1.2265,-1.3426,-1.4854,-1.6192,-1.7232,-1.8014,-1.8491,-1.8843,-1.8818,-1.9239,-1.9705,-1.9465,-1.9418,-2.0229,-2.0706,-2.0887,-2.1238,-2.0904,2.3512,2.3022,2.3287,2.3213,2.2978,2.3193,2.3499,2.3911,2.3847,2.4115,2.4408,2.3509,2.271,2.1744,2.2767,2.2466,2.1448,2.1954,2.1752,2.1151,2.0287,1.949,1.8578,1.747,1.6562,1.559,1.4604,1.3318,1.2237,1.0774,0.8806,0.6326,0.5929,0.4422,0.2313,0.0905,0.0,-0.1307,-0.2413,-0.3518,-0.502,-0.652,-0.8031,-0.8484,-0.8496,-0.8431,-0.8265,-0.821,-0.7309,-0.6204,-0.5174,-0.4461,-0.4105,-0.3838,-0.3215,-0.2413,-0.2056,-0.1342,-0.0627,-0.0179,0.0445,0.0445,0.0885,0.1408,0.165,0.2242,0.2326,0.2584,0.0,0.0,0.0,0.0,0.0,0.0,0.0,0.0,0.0,0.0,0.0,0.0,0.0,0.0,0.0,0.0,-0.0786,-0.1127,-0.1459,-0.2632,-0.399,-0.4763,-0.5368,-0.6135,-0.6894,-0.8212,-0.9221,-1.0156,-1.1106,-1.1932,-1.3048,-1.4854,-1.6358,-1.7491,-1.823,-1.8469,-1.8318,-1.8198,-1.8741,-1.9297,-1.9931,-2.0076,-2.1284,-2.1944,-2.175,-2.1344,-2.0818]}]]